Time,TemperatureF,DewpointF,PressureIn,WindDirection,WindDirectionDegrees,WindSpeedMPH,WindSpeedGustMPH,Humidity,HourlyPrecipIn,Conditions,Clouds,dailyrainin,SoftwareType,DateUTC
2013-02-19 00:00:00,28.4,14.7,30.18,WSW,256,0.0,2.0,56,0.00,,,0.00,VWS V14.01,2013-02-19 05:00:00,
2013-02-19 00:01:00,28.4,14.7,30.18,WSW,256,0.0,0.0,56,0.00,,,0.00,VWS V14.01,2013-02-19 05:01:00,
2013-02-19 00:02:00,28.4,15.1,30.18,WSW,256,0.0,0.0,57,0.00,,,0.00,VWS V14.01,2013-02-19 05:02:00,
2013-02-19 00:03:00,28.4,15.1,30.18,WSW,256,0.0,0.0,57,0.00,,,0.00,VWS V14.01,2013-02-19 05:03:00,
2013-02-19 00:04:00,28.4,15.1,30.18,WSW,256,0.0,1.0,57,0.00,,,0.00,VWS V14.01,2013-02-19 05:04:00,
2013-02-19 00:05:00,28.4,14.7,30.18,WSW,256,0.0,1.0,56,0.00,,,0.00,VWS V14.01,2013-02-19 05:05:00,
2013-02-19 00:06:00,28.4,14.7,30.18,WSW,256,0.0,1.0,56,0.00,,,0.00,VWS V14.01,2013-02-19 05:06:00,
2013-02-19 00:07:00,28.4,14.7,30.18,WSW,256,0.0,1.0,56,0.00,,,0.00,VWS V14.01,2013-02-19 05:07:00,
2013-02-19 00:08:00,28.4,15.1,30.18,WSW,258,2.0,2.0,57,0.00,,,0.00,VWS V14.01,2013-02-19 05:08:00,
2013-02-19 00:09:00,28.4,15.5,30.18,WSW,258,0.0,2.0,58,0.00,,,0.00,VWS V14.01,2013-02-19 05:09:00,
2013-02-19 00:10:00,28.4,15.5,30.18,WSW,258,0.0,2.0,58,0.00,,,0.00,VWS V14.01,2013-02-19 05:10:00,
2013-02-19 00:11:00,28.4,15.5,30.18,WSW,258,2.0,2.0,58,0.00,,,0.00,VWS V14.01,2013-02-19 05:11:00,
2013-02-19 00:12:00,28.4,15.5,30.18,WSW,258,0.0,2.0,58,0.00,,,0.00,VWS V14.01,2013-02-19 05:12:00,
2013-02-19 00:13:00,28.4,15.5,30.18,WSW,258,0.0,2.0,58,0.00,,,0.00,VWS V14.01,2013-02-19 05:13:00,
2013-02-19 00:14:00,28.4,15.9,30.18,WSW,258,0.0,2.0,59,0.00,,,0.00,VWS V14.01,2013-02-19 05:14:00,
2013-02-19 00:15:00,28.4,15.9,30.17,WSW,258,0.0,2.0,59,0.00,,,0.00,VWS V14.01,2013-02-19 05:15:00,
2013-02-19 00:16:00,28.4,15.9,30.17,WSW,258,0.0,2.0,59,0.00,,,0.00,VWS V14.01,2013-02-19 05:16:00,
2013-02-19 00:17:00,28.4,15.9,30.17,WSW,258,0.0,2.0,59,0.00,,,0.00,VWS V14.01,2013-02-19 05:17:00,
2013-02-19 00:18:00,28.4,15.9,30.17,WSW,258,0.0,2.0,59,0.00,,,0.00,VWS V14.01,2013-02-19 05:18:00,
2013-02-19 00:19:00,28.3,15.8,30.17,WSW,258,0.0,2.0,59,0.00,,,0.00,VWS V14.01,2013-02-19 05:19:00,
2013-02-19 00:20:00,28.3,15.8,30.17,WSW,258,0.0,2.0,59,0.00,,,0.00,VWS V14.01,2013-02-19 05:20:00,
2013-02-19 00:21:00,28.3,15.8,30.17,WSW,258,0.0,0.0,59,0.00,,,0.00,VWS V14.01,2013-02-19 05:21:00,
2013-02-19 00:22:00,28.3,15.8,30.17,WSW,258,0.0,0.0,59,0.00,,,0.00,VWS V14.01,2013-02-19 05:22:00,
2013-02-19 00:23:00,28.3,15.8,30.17,WSW,258,0.0,0.0,59,0.00,,,0.00,VWS V14.01,2013-02-19 05:23:00,
2013-02-19 00:24:00,28.3,15.8,30.17,WSW,258,0.0,0.0,59,0.00,,,0.00,VWS V14.01,2013-02-19 05:24:00,
2013-02-19 00:25:00,28.3,15.8,30.17,WSW,258,0.0,1.0,59,0.00,,,0.00,VWS V14.01,2013-02-19 05:25:00,
2013-02-19 00:26:00,28.3,16.2,30.17,WSW,258,0.0,1.0,60,0.00,,,0.00,VWS V14.01,2013-02-19 05:26:00,
2013-02-19 00:27:00,28.2,16.1,30.17,WSW,258,0.0,1.0,60,0.00,,,0.00,VWS V14.01,2013-02-19 05:27:00,
2013-02-19 00:28:00,28.2,16.1,30.17,WSW,258,0.0,1.0,60,0.00,,,0.00,VWS V14.01,2013-02-19 05:28:00,
2013-02-19 00:29:00,28.2,16.1,30.17,WSW,258,0.0,1.0,60,0.00,,,0.00,VWS V14.01,2013-02-19 05:29:00,
2013-02-19 00:30:00,28.1,15.6,30.16,WSW,258,0.0,1.0,59,0.00,,,0.00,VWS V14.01,2013-02-19 05:30:00,
2013-02-19 00:31:00,28.1,15.6,30.16,WSW,258,0.0,0.0,59,0.00,,,0.00,VWS V14.01,2013-02-19 05:31:00,
2013-02-19 00:32:00,28.1,16.0,30.16,West,259,2.0,3.0,60,0.00,,,0.00,VWS V14.01,2013-02-19 05:32:00,
2013-02-19 00:33:00,28.1,15.6,30.16,West,276,0.0,3.0,59,0.00,,,0.00,VWS V14.01,2013-02-19 05:33:00,
2013-02-19 00:34:00,28.1,16.0,30.16,West,276,0.0,3.0,60,0.00,,,0.00,VWS V14.01,2013-02-19 05:34:00,
2013-02-19 00:35:00,28.1,15.6,30.16,West,276,0.0,3.0,59,0.00,,,0.00,VWS V14.01,2013-02-19 05:35:00,
2013-02-19 00:36:00,28.1,15.6,30.16,West,276,0.0,3.0,59,0.00,,,0.00,VWS V14.01,2013-02-19 05:36:00,
2013-02-19 00:37:00,28.1,15.6,30.16,West,276,0.0,3.0,59,0.00,,,0.00,VWS V14.01,2013-02-19 05:37:00,
2013-02-19 00:38:00,28.0,15.9,30.16,West,276,0.0,3.0,60,0.00,,,0.00,VWS V14.01,2013-02-19 05:38:00,
2013-02-19 00:39:00,28.0,15.9,30.16,West,276,0.0,3.0,60,0.00,,,0.00,VWS V14.01,2013-02-19 05:39:00,
2013-02-19 00:40:00,28.0,15.5,30.16,West,276,0.0,3.0,59,0.00,,,0.00,VWS V14.01,2013-02-19 05:40:00,
2013-02-19 00:41:00,28.0,15.5,30.16,West,276,0.0,0.0,59,0.00,,,0.00,VWS V14.01,2013-02-19 05:41:00,
2013-02-19 00:42:00,28.0,15.5,30.16,West,276,0.0,0.0,59,0.00,,,0.00,VWS V14.01,2013-02-19 05:42:00,
2013-02-19 00:43:00,28.0,15.5,30.16,West,276,0.0,0.0,59,0.00,,,0.00,VWS V14.01,2013-02-19 05:43:00,
2013-02-19 00:44:00,28.0,15.5,30.16,West,276,0.0,0.0,59,0.00,,,0.00,VWS V14.01,2013-02-19 05:44:00,
2013-02-19 00:45:00,28.0,15.5,30.16,West,276,0.0,0.0,59,0.00,,,0.00,VWS V14.01,2013-02-19 05:45:00,
2013-02-19 00:46:00,27.9,15.4,30.16,West,276,0.0,0.0,59,0.00,,,0.00,VWS V14.01,2013-02-19 05:46:00,
2013-02-19 00:47:00,27.9,15.4,30.16,West,276,0.0,0.0,59,0.00,,,0.00,VWS V14.01,2013-02-19 05:47:00,
2013-02-19 00:48:00,27.9,15.4,30.16,West,276,0.0,0.0,59,0.00,,,0.00,VWS V14.01,2013-02-19 05:48:00,
2013-02-19 00:49:00,27.9,15.4,30.16,West,276,0.0,0.0,59,0.00,,,0.00,VWS V14.01,2013-02-19 05:49:00,
2013-02-19 00:50:00,27.9,15.4,30.16,West,276,0.0,0.0,59,0.00,,,0.00,VWS V14.01,2013-02-19 05:50:00,
2013-02-19 00:51:00,27.9,15.4,30.16,West,276,0.0,0.0,59,0.00,,,0.00,VWS V14.01,2013-02-19 05:51:00,
2013-02-19 00:52:00,27.9,15.1,30.16,West,276,0.0,0.0,58,0.00,,,0.00,VWS V14.01,2013-02-19 05:52:00,
2013-02-19 00:53:00,27.9,15.1,30.16,West,276,0.0,0.0,58,0.00,,,0.00,VWS V14.01,2013-02-19 05:53:00,
2013-02-19 00:54:00,27.8,15.4,30.16,West,276,0.0,0.0,59,0.00,,,0.00,VWS V14.01,2013-02-19 05:54:00,
2013-02-19 00:55:00,27.8,15.4,30.16,West,276,0.0,0.0,59,0.00,,,0.00,VWS V14.01,2013-02-19 05:55:00,
2013-02-19 00:56:00,27.8,15.4,30.16,West,276,0.0,0.0,59,0.00,,,0.00,VWS V14.01,2013-02-19 05:56:00,
2013-02-19 00:57:00,27.8,15.4,30.16,West,276,0.0,0.0,59,0.00,,,0.00,VWS V14.01,2013-02-19 05:57:00,
2013-02-19 00:58:00,27.8,15.4,30.16,West,276,0.0,0.0,59,0.00,,,0.00,VWS V14.01,2013-02-19 05:58:00,
2013-02-19 00:59:00,27.8,15.4,30.16,West,276,0.0,0.0,59,0.00,,,0.00,VWS V14.01,2013-02-19 05:59:00,
2013-02-19 01:00:00,27.8,15.4,30.16,West,276,0.0,0.0,59,0.00,,,0.00,VWS V14.01,2013-02-19 06:00:00,
2013-02-19 01:01:00,27.8,15.4,30.16,West,276,0.0,0.0,59,0.00,,,0.00,VWS V14.01,2013-02-19 06:01:00,
2013-02-19 01:02:00,27.8,15.4,30.16,West,276,0.0,0.0,59,0.00,,,0.00,VWS V14.01,2013-02-19 06:02:00,
2013-02-19 01:03:00,27.8,15.4,30.16,West,276,0.0,0.0,59,0.00,,,0.00,VWS V14.01,2013-02-19 06:03:00,
2013-02-19 01:04:00,27.7,15.3,30.16,West,276,0.0,0.0,59,0.00,,,0.00,VWS V14.01,2013-02-19 06:04:00,
2013-02-19 01:05:00,27.7,15.3,30.16,West,265,1.0,3.0,59,0.00,,,0.00,VWS V14.01,2013-02-19 06:05:00,
2013-02-19 01:06:00,27.7,15.3,30.16,West,265,0.0,3.0,59,0.00,,,0.00,VWS V14.01,2013-02-19 06:06:00,
2013-02-19 01:07:00,27.7,15.3,30.16,SW,225,2.0,3.0,59,0.00,,,0.00,VWS V14.01,2013-02-19 06:07:00,
2013-02-19 01:08:00,27.7,14.9,30.16,SW,225,2.0,3.0,58,0.00,,,0.00,VWS V14.01,2013-02-19 06:08:00,
2013-02-19 01:09:00,27.6,14.8,30.16,SW,225,0.0,3.0,58,0.00,,,0.00,VWS V14.01,2013-02-19 06:09:00,
2013-02-19 01:10:00,27.7,14.9,30.16,SW,225,0.0,3.0,58,0.00,,,0.00,VWS V14.01,2013-02-19 06:10:00,
2013-02-19 01:11:00,27.7,14.9,30.16,SW,225,0.0,0.0,58,0.00,,,0.00,VWS V14.01,2013-02-19 06:11:00,
2013-02-19 01:12:00,27.7,14.9,30.16,SW,225,0.0,1.0,58,0.00,,,0.00,VWS V14.01,2013-02-19 06:12:00,
2013-02-19 01:13:00,27.7,14.5,30.16,SW,225,0.0,1.0,57,0.00,,,0.00,VWS V14.01,2013-02-19 06:13:00,
2013-02-19 01:14:00,27.7,14.5,30.16,SW,225,0.0,2.0,57,0.00,,,0.00,VWS V14.01,2013-02-19 06:14:00,
2013-02-19 01:15:00,27.7,14.5,30.15,SW,230,0.0,2.0,57,0.00,,,0.00,VWS V14.01,2013-02-19 06:15:00,
2013-02-19 01:16:00,27.7,14.9,30.15,SW,230,1.0,2.0,58,0.00,,,0.00,VWS V14.01,2013-02-19 06:16:00,
2013-02-19 01:17:00,27.7,14.9,30.15,SW,232,2.0,2.0,58,0.00,,,0.00,VWS V14.01,2013-02-19 06:17:00,
2013-02-19 01:18:00,27.8,14.6,30.15,SW,232,1.0,2.0,57,0.00,,,0.00,VWS V14.01,2013-02-19 06:18:00,
2013-02-19 01:19:00,27.8,14.6,30.15,SW,232,0.0,2.0,57,0.00,,,0.00,VWS V14.01,2013-02-19 06:19:00,
2013-02-19 01:20:00,27.8,14.6,30.15,SW,232,0.0,2.0,57,0.00,,,0.00,VWS V14.01,2013-02-19 06:20:00,
2013-02-19 01:21:00,27.8,14.2,30.15,SW,232,1.0,4.0,56,0.00,,,0.00,VWS V14.01,2013-02-19 06:21:00,
2013-02-19 01:22:00,27.9,14.2,30.15,SW,232,0.0,4.0,56,0.00,,,0.00,VWS V14.01,2013-02-19 06:22:00,
2013-02-19 01:23:00,27.9,14.2,30.15,SW,232,0.0,4.0,56,0.00,,,0.00,VWS V14.01,2013-02-19 06:23:00,
2013-02-19 01:24:00,27.9,14.2,30.15,SW,232,0.0,4.0,56,0.00,,,0.00,VWS V14.01,2013-02-19 06:24:00,
2013-02-19 01:25:00,28.0,14.8,30.15,SW,231,3.0,4.0,57,0.00,,,0.00,VWS V14.01,2013-02-19 06:25:00,
2013-02-19 01:26:00,28.0,14.3,30.15,SW,231,0.0,4.0,56,0.00,,,0.00,VWS V14.01,2013-02-19 06:26:00,
2013-02-19 01:27:00,28.0,14.3,30.15,SW,231,0.0,4.0,56,0.00,,,0.00,VWS V14.01,2013-02-19 06:27:00,
2013-02-19 01:28:00,28.0,14.3,30.15,SW,231,0.0,4.0,56,0.00,,,0.00,VWS V14.01,2013-02-19 06:28:00,
2013-02-19 01:29:00,28.1,14.4,30.15,SW,231,0.0,4.0,56,0.00,,,0.00,VWS V14.01,2013-02-19 06:29:00,
2013-02-19 01:30:00,28.1,14.4,30.14,SW,231,0.0,4.0,56,0.00,,,0.00,VWS V14.01,2013-02-19 06:30:00,
2013-02-19 01:31:00,28.1,14.8,30.14,SW,231,0.0,0.0,57,0.00,,,0.00,VWS V14.01,2013-02-19 06:31:00,
2013-02-19 01:32:00,28.2,14.9,30.14,SW,231,0.0,0.0,57,0.00,,,0.00,VWS V14.01,2013-02-19 06:32:00,
2013-02-19 01:33:00,28.2,14.9,30.14,SW,231,0.0,1.0,57,0.00,,,0.00,VWS V14.01,2013-02-19 06:33:00,
2013-02-19 01:34:00,28.2,14.9,30.14,SW,231,0.0,2.0,57,0.00,,,0.00,VWS V14.01,2013-02-19 06:34:00,
2013-02-19 01:35:00,28.3,14.6,30.14,SW,231,0.0,2.0,56,0.00,,,0.00,VWS V14.01,2013-02-19 06:35:00,
2013-02-19 01:36:00,28.3,14.6,30.14,SW,231,0.0,2.0,56,0.00,,,0.00,VWS V14.01,2013-02-19 06:36:00,
2013-02-19 01:37:00,28.3,14.6,30.14,SW,231,0.0,2.0,56,0.00,,,0.00,VWS V14.01,2013-02-19 06:37:00,
2013-02-19 01:38:00,28.3,14.6,30.14,SW,231,3.0,3.0,56,0.00,,,0.00,VWS V14.01,2013-02-19 06:38:00,
2013-02-19 01:39:00,28.3,14.6,30.14,SW,225,2.0,3.0,56,0.00,,,0.00,VWS V14.01,2013-02-19 06:39:00,
2013-02-19 01:40:00,28.3,14.6,30.14,SW,225,0.0,3.0,56,0.00,,,0.00,VWS V14.01,2013-02-19 06:40:00,
2013-02-19 01:41:00,28.3,14.6,30.14,SW,225,0.0,1.0,56,0.00,,,0.00,VWS V14.01,2013-02-19 06:41:00,
2013-02-19 01:42:00,28.3,15.0,30.14,SW,225,1.0,1.0,57,0.00,,,0.00,VWS V14.01,2013-02-19 06:42:00,
2013-02-19 01:43:00,28.3,15.4,30.14,SW,225,0.0,1.0,58,0.00,,,0.00,VWS V14.01,2013-02-19 06:43:00,
2013-02-19 01:44:00,28.3,15.4,30.14,SW,225,0.0,1.0,58,0.00,,,0.00,VWS V14.01,2013-02-19 06:44:00,
2013-02-19 01:45:00,28.3,15.4,30.14,SW,225,0.0,1.0,58,0.00,,,0.00,VWS V14.01,2013-02-19 06:45:00,
2013-02-19 01:46:00,28.3,15.4,30.14,SW,225,0.0,1.0,58,0.00,,,0.00,VWS V14.01,2013-02-19 06:46:00,
2013-02-19 01:47:00,28.2,15.3,30.14,SW,225,0.0,1.0,58,0.00,,,0.00,VWS V14.01,2013-02-19 06:47:00,
2013-02-19 01:48:00,28.2,15.3,30.14,SW,225,0.0,1.0,58,0.00,,,0.00,VWS V14.01,2013-02-19 06:48:00,
2013-02-19 01:49:00,28.2,15.3,30.14,SW,225,1.0,2.0,58,0.00,,,0.00,VWS V14.01,2013-02-19 06:49:00,
2013-02-19 01:50:00,28.1,15.2,30.14,SW,225,0.0,2.0,58,0.00,,,0.00,VWS V14.01,2013-02-19 06:50:00,
2013-02-19 01:51:00,28.1,15.2,30.14,SW,225,0.0,0.0,58,0.00,,,0.00,VWS V14.01,2013-02-19 06:51:00,
2013-02-19 01:52:00,28.1,15.2,30.14,SW,225,0.0,0.0,58,0.00,,,0.00,VWS V14.01,2013-02-19 06:52:00,
2013-02-19 01:53:00,28.1,15.2,30.14,SW,225,0.0,0.0,58,0.00,,,0.00,VWS V14.01,2013-02-19 06:53:00,
2013-02-19 01:54:00,28.0,14.8,30.14,SW,225,0.0,0.0,57,0.00,,,0.00,VWS V14.01,2013-02-19 06:54:00,
2013-02-19 01:55:00,28.0,14.8,30.14,SW,225,0.0,0.0,57,0.00,,,0.00,VWS V14.01,2013-02-19 06:55:00,
2013-02-19 01:56:00,28.0,15.1,30.14,SW,225,0.0,0.0,58,0.00,,,0.00,VWS V14.01,2013-02-19 06:56:00,
2013-02-19 01:57:00,28.0,15.1,30.14,SW,225,0.0,0.0,58,0.00,,,0.00,VWS V14.01,2013-02-19 06:57:00,
2013-02-19 01:58:00,27.9,15.1,30.14,SW,225,0.0,0.0,58,0.00,,,0.00,VWS V14.01,2013-02-19 06:58:00,
2013-02-19 01:59:00,27.9,15.1,30.14,SW,225,0.0,1.0,58,0.00,,,0.00,VWS V14.01,2013-02-19 06:59:00,
2013-02-19 02:00:00,27.9,15.1,30.13,SW,225,0.0,1.0,58,0.00,,,0.00,VWS V14.01,2013-02-19 07:00:00,
2013-02-19 02:01:00,27.9,15.1,30.13,SW,225,0.0,0.0,58,0.00,,,0.00,VWS V14.01,2013-02-19 07:01:00,
2013-02-19 02:02:00,27.8,15.4,30.13,SW,225,0.0,0.0,59,0.00,,,0.00,VWS V14.01,2013-02-19 07:02:00,
2013-02-19 02:03:00,27.8,15.4,30.13,SW,225,0.0,0.0,59,0.00,,,0.00,VWS V14.01,2013-02-19 07:03:00,
2013-02-19 02:04:00,27.8,15.4,30.13,SW,225,0.0,0.0,59,0.00,,,0.00,VWS V14.01,2013-02-19 07:04:00,
2013-02-19 02:05:00,27.8,15.4,30.13,SW,225,0.0,0.0,59,0.00,,,0.00,VWS V14.01,2013-02-19 07:05:00,
2013-02-19 02:06:00,27.7,15.3,30.13,SW,225,0.0,0.0,59,0.00,,,0.00,VWS V14.01,2013-02-19 07:06:00,
2013-02-19 02:07:00,27.6,15.2,30.13,SW,225,0.0,0.0,59,0.00,,,0.00,VWS V14.01,2013-02-19 07:07:00,
2013-02-19 02:08:00,27.6,15.2,30.13,SW,225,0.0,0.0,59,0.00,,,0.00,VWS V14.01,2013-02-19 07:08:00,
2013-02-19 02:09:00,27.6,15.2,30.13,SW,225,0.0,0.0,59,0.00,,,0.00,VWS V14.01,2013-02-19 07:09:00,
2013-02-19 02:10:00,27.5,15.1,30.13,SW,225,0.0,0.0,59,0.00,,,0.00,VWS V14.01,2013-02-19 07:10:00,
2013-02-19 02:11:00,27.5,15.1,30.13,SW,225,0.0,0.0,59,0.00,,,0.00,VWS V14.01,2013-02-19 07:11:00,
2013-02-19 02:12:00,27.5,15.1,30.13,SW,225,0.0,0.0,59,0.00,,,0.00,VWS V14.01,2013-02-19 07:12:00,
2013-02-19 02:13:00,27.4,15.0,30.13,SW,225,0.0,0.0,59,0.00,,,0.00,VWS V14.01,2013-02-19 07:13:00,
2013-02-19 02:14:00,27.4,15.0,30.13,SW,225,0.0,0.0,59,0.00,,,0.00,VWS V14.01,2013-02-19 07:14:00,
2013-02-19 02:15:00,27.3,15.3,30.12,SW,225,0.0,0.0,60,0.00,,,0.00,VWS V14.01,2013-02-19 07:15:00,
2013-02-19 02:16:00,27.3,15.3,30.12,SW,225,0.0,0.0,60,0.00,,,0.00,VWS V14.01,2013-02-19 07:16:00,
2013-02-19 02:17:00,27.2,15.2,30.12,SW,225,0.0,0.0,60,0.00,,,0.00,VWS V14.01,2013-02-19 07:17:00,
2013-02-19 02:18:00,27.2,15.2,30.12,SW,225,0.0,0.0,60,0.00,,,0.00,VWS V14.01,2013-02-19 07:18:00,
2013-02-19 02:19:00,27.2,15.2,30.12,SW,225,0.0,0.0,60,0.00,,,0.00,VWS V14.01,2013-02-19 07:19:00,
2013-02-19 02:20:00,27.1,15.1,30.12,SW,225,0.0,0.0,60,0.00,,,0.00,VWS V14.01,2013-02-19 07:20:00,
2013-02-19 02:21:00,27.1,15.1,30.12,SW,225,1.0,1.0,60,0.00,,,0.00,VWS V14.01,2013-02-19 07:21:00,
2013-02-19 02:22:00,27.0,15.0,30.12,SW,225,0.0,1.0,60,0.00,,,0.00,VWS V14.01,2013-02-19 07:22:00,
2013-02-19 02:23:00,27.0,15.0,30.12,SW,225,0.0,1.0,60,0.00,,,0.00,VWS V14.01,2013-02-19 07:23:00,
2013-02-19 02:24:00,27.0,15.0,30.12,SW,225,0.0,1.0,60,0.00,,,0.00,VWS V14.01,2013-02-19 07:24:00,
2013-02-19 02:25:00,27.0,15.0,30.12,SW,225,0.0,1.0,60,0.00,,,0.00,VWS V14.01,2013-02-19 07:25:00,
2013-02-19 02:26:00,27.0,15.0,30.12,SW,225,1.0,1.0,60,0.00,,,0.00,VWS V14.01,2013-02-19 07:26:00,
2013-02-19 02:27:00,26.9,14.9,30.12,SW,225,0.0,1.0,60,0.00,,,0.00,VWS V14.01,2013-02-19 07:27:00,
2013-02-19 02:28:00,26.9,15.3,30.12,SW,225,0.0,1.0,61,0.00,,,0.00,VWS V14.01,2013-02-19 07:28:00,
2013-02-19 02:29:00,26.9,15.3,30.12,SW,225,0.0,1.0,61,0.00,,,0.00,VWS V14.01,2013-02-19 07:29:00,
2013-02-19 02:30:00,26.8,15.2,30.12,SW,225,1.0,1.0,61,0.00,,,0.00,VWS V14.01,2013-02-19 07:30:00,
2013-02-19 02:31:00,26.7,15.4,30.12,SW,225,0.0,1.0,62,0.00,,,0.00,VWS V14.01,2013-02-19 07:31:00,
2013-02-19 02:32:00,26.7,15.4,30.12,SW,225,0.0,1.0,62,0.00,,,0.00,VWS V14.01,2013-02-19 07:32:00,
2013-02-19 02:33:00,26.7,15.4,30.12,SW,225,0.0,1.0,62,0.00,,,0.00,VWS V14.01,2013-02-19 07:33:00,
2013-02-19 02:34:00,26.6,15.4,30.12,SW,225,0.0,1.0,62,0.00,,,0.00,VWS V14.01,2013-02-19 07:34:00,
2013-02-19 02:35:00,26.6,15.4,30.12,SW,225,0.0,1.0,62,0.00,,,0.00,VWS V14.01,2013-02-19 07:35:00,
2013-02-19 02:36:00,26.6,15.4,30.12,SW,225,0.0,1.0,62,0.00,,,0.00,VWS V14.01,2013-02-19 07:36:00,
2013-02-19 02:37:00,26.5,14.9,30.12,SW,225,0.0,1.0,61,0.00,,,0.00,VWS V14.01,2013-02-19 07:37:00,
2013-02-19 02:38:00,26.5,14.9,30.12,SW,225,0.0,1.0,61,0.00,,,0.00,VWS V14.01,2013-02-19 07:38:00,
2013-02-19 02:39:00,26.5,15.3,30.12,SW,225,0.0,1.0,62,0.00,,,0.00,VWS V14.01,2013-02-19 07:39:00,
2013-02-19 02:40:00,26.5,15.3,30.12,SW,225,0.0,1.0,62,0.00,,,0.00,VWS V14.01,2013-02-19 07:40:00,
2013-02-19 02:41:00,26.4,15.2,30.12,SW,225,0.0,1.0,62,0.00,,,0.00,VWS V14.01,2013-02-19 07:41:00,
2013-02-19 02:42:00,26.4,15.2,30.12,SW,225,1.0,1.0,62,0.00,,,0.00,VWS V14.01,2013-02-19 07:42:00,
2013-02-19 02:43:00,26.4,15.2,30.12,West,271,0.0,3.0,62,0.00,,,0.00,VWS V14.01,2013-02-19 07:43:00,
2013-02-19 02:44:00,26.3,15.1,30.12,West,271,0.0,3.0,62,0.00,,,0.00,VWS V14.01,2013-02-19 07:44:00,
2013-02-19 02:45:00,26.3,15.1,30.11,West,271,0.0,3.0,62,0.00,,,0.00,VWS V14.01,2013-02-19 07:45:00,
2013-02-19 02:46:00,26.3,15.1,30.11,West,271,0.0,3.0,62,0.00,,,0.00,VWS V14.01,2013-02-19 07:46:00,
2013-02-19 02:47:00,26.3,14.7,30.11,West,271,0.0,3.0,61,0.00,,,0.00,VWS V14.01,2013-02-19 07:47:00,
2013-02-19 02:48:00,26.3,15.1,30.11,West,271,0.0,3.0,62,0.00,,,0.00,VWS V14.01,2013-02-19 07:48:00,
2013-02-19 02:49:00,26.3,15.1,30.11,WNW,293,0.0,3.0,62,0.00,,,0.00,VWS V14.01,2013-02-19 07:49:00,
2013-02-19 02:50:00,26.2,15.0,30.11,SSW,207,2.0,3.0,62,0.00,,,0.00,VWS V14.01,2013-02-19 07:50:00,
2013-02-19 02:51:00,26.2,15.0,30.11,SSW,207,0.0,2.0,62,0.00,,,0.00,VWS V14.01,2013-02-19 07:51:00,
2013-02-19 02:52:00,26.3,15.1,30.11,SSW,207,1.0,3.0,62,0.00,,,0.00,VWS V14.01,2013-02-19 07:52:00,
2013-02-19 02:53:00,26.3,15.1,30.11,SSW,207,0.0,3.0,62,0.00,,,0.00,VWS V14.01,2013-02-19 07:53:00,
2013-02-19 02:54:00,26.3,15.1,30.11,SSW,207,0.0,3.0,62,0.00,,,0.00,VWS V14.01,2013-02-19 07:54:00,
2013-02-19 02:55:00,26.3,15.1,30.11,SSW,207,4.0,4.0,62,0.00,,,0.00,VWS V14.01,2013-02-19 07:55:00,
2013-02-19 02:56:00,26.3,15.1,30.11,SSW,207,0.0,4.0,62,0.00,,,0.00,VWS V14.01,2013-02-19 07:56:00,
2013-02-19 02:57:00,26.3,15.1,30.11,SSW,207,0.0,4.0,62,0.00,,,0.00,VWS V14.01,2013-02-19 07:57:00,
2013-02-19 02:58:00,26.3,15.1,30.11,SW,232,3.0,4.0,62,0.00,,,0.00,VWS V14.01,2013-02-19 07:58:00,
2013-02-19 02:59:00,26.4,15.2,30.11,WSW,240,1.0,4.0,62,0.00,,,0.00,VWS V14.01,2013-02-19 07:59:00,
2013-02-19 03:00:00,26.4,15.2,30.10,SW,220,2.0,4.0,62,0.00,,,0.00,VWS V14.01,2013-02-19 08:00:00,
2013-02-19 03:01:00,26.5,15.3,30.10,SW,221,1.0,2.0,62,0.00,,,0.00,VWS V14.01,2013-02-19 08:01:00,
2013-02-19 03:02:00,26.6,15.4,30.10,SSW,213,1.0,5.0,62,0.00,,,0.00,VWS V14.01,2013-02-19 08:02:00,
2013-02-19 03:03:00,26.6,15.4,30.10,SSW,213,2.0,5.0,62,0.00,,,0.00,VWS V14.01,2013-02-19 08:03:00,
2013-02-19 03:04:00,26.7,15.4,30.10,SSW,213,0.0,5.0,62,0.00,,,0.00,VWS V14.01,2013-02-19 08:04:00,
2013-02-19 03:05:00,26.7,15.4,30.10,SSW,213,2.0,5.0,62,0.00,,,0.00,VWS V14.01,2013-02-19 08:05:00,
2013-02-19 03:06:00,26.8,15.5,30.10,SSW,213,0.0,5.0,62,0.00,,,0.00,VWS V14.01,2013-02-19 08:06:00,
2013-02-19 03:07:00,26.8,15.5,30.10,SSW,213,0.0,5.0,62,0.00,,,0.00,VWS V14.01,2013-02-19 08:07:00,
2013-02-19 03:08:00,26.8,15.5,30.10,SSW,213,0.0,5.0,62,0.00,,,0.00,VWS V14.01,2013-02-19 08:08:00,
2013-02-19 03:09:00,26.9,15.6,30.10,SSW,213,1.0,5.0,62,0.00,,,0.00,VWS V14.01,2013-02-19 08:09:00,
2013-02-19 03:10:00,26.9,15.6,30.10,SSW,213,0.0,5.0,62,0.00,,,0.00,VWS V14.01,2013-02-19 08:10:00,
2013-02-19 03:11:00,26.9,15.6,30.10,SSW,213,0.0,0.0,62,0.00,,,0.00,VWS V14.01,2013-02-19 08:11:00,
2013-02-19 03:12:00,26.9,15.6,30.10,SSW,213,0.0,0.0,62,0.00,,,0.00,VWS V14.01,2013-02-19 08:12:00,
2013-02-19 03:13:00,26.9,15.6,30.10,SW,215,2.0,2.0,62,0.00,,,0.00,VWS V14.01,2013-02-19 08:13:00,
2013-02-19 03:14:00,27.0,15.7,30.10,SW,216,1.0,2.0,62,0.00,,,0.00,VWS V14.01,2013-02-19 08:14:00,
2013-02-19 03:15:00,27.0,15.7,30.10,SW,216,3.0,3.0,62,0.00,,,0.00,VWS V14.01,2013-02-19 08:15:00,
2013-02-19 03:16:00,27.0,15.7,30.10,SW,218,3.0,4.0,62,0.00,,,0.00,VWS V14.01,2013-02-19 08:16:00,
2013-02-19 03:17:00,27.0,15.4,30.10,SW,218,1.0,4.0,61,0.00,,,0.00,VWS V14.01,2013-02-19 08:17:00,
2013-02-19 03:18:00,27.1,15.4,30.10,SW,218,2.0,4.0,61,0.00,,,0.00,VWS V14.01,2013-02-19 08:18:00,
2013-02-19 03:19:00,27.1,15.4,30.10,SW,218,1.0,4.0,61,0.00,,,0.00,VWS V14.01,2013-02-19 08:19:00,
2013-02-19 03:20:00,27.1,15.4,30.10,SW,218,0.0,4.0,61,0.00,,,0.00,VWS V14.01,2013-02-19 08:20:00,
2013-02-19 03:21:00,27.1,15.4,30.10,SW,218,1.0,1.0,61,0.00,,,0.00,VWS V14.01,2013-02-19 08:21:00,
2013-02-19 03:22:00,27.2,15.6,30.10,SW,219,0.0,1.0,61,0.00,,,0.00,VWS V14.01,2013-02-19 08:22:00,
2013-02-19 03:23:00,27.2,15.6,30.10,SW,219,0.0,1.0,61,0.00,,,0.00,VWS V14.01,2013-02-19 08:23:00,
2013-02-19 03:24:00,27.2,15.6,30.10,SW,219,0.0,1.0,61,0.00,,,0.00,VWS V14.01,2013-02-19 08:24:00,
2013-02-19 03:25:00,27.2,15.6,30.10,SW,219,0.0,1.0,61,0.00,,,0.00,VWS V14.01,2013-02-19 08:25:00,
2013-02-19 03:26:00,27.3,15.6,30.10,SW,219,0.0,1.0,61,0.00,,,0.00,VWS V14.01,2013-02-19 08:26:00,
2013-02-19 03:27:00,27.3,15.6,30.10,SW,219,0.0,1.0,61,0.00,,,0.00,VWS V14.01,2013-02-19 08:27:00,
2013-02-19 03:28:00,27.3,15.6,30.10,SW,219,0.0,1.0,61,0.00,,,0.00,VWS V14.01,2013-02-19 08:28:00,
2013-02-19 03:29:00,27.3,16.0,30.10,SW,219,0.0,1.0,62,0.00,,,0.00,VWS V14.01,2013-02-19 08:29:00,
2013-02-19 03:30:00,27.3,16.0,30.10,SW,219,0.0,1.0,62,0.00,,,0.00,VWS V14.01,2013-02-19 08:30:00,
2013-02-19 03:31:00,27.4,16.1,30.10,SW,219,0.0,0.0,62,0.00,,,0.00,VWS V14.01,2013-02-19 08:31:00,
2013-02-19 03:32:00,27.4,16.1,30.10,SW,219,0.0,0.0,62,0.00,,,0.00,VWS V14.01,2013-02-19 08:32:00,
2013-02-19 03:33:00,27.3,16.0,30.10,SW,219,0.0,1.0,62,0.00,,,0.00,VWS V14.01,2013-02-19 08:33:00,
2013-02-19 03:34:00,27.3,16.0,30.10,SW,219,0.0,1.0,62,0.00,,,0.00,VWS V14.01,2013-02-19 08:34:00,
2013-02-19 03:35:00,27.3,16.0,30.10,SW,219,0.0,1.0,62,0.00,,,0.00,VWS V14.01,2013-02-19 08:35:00,
2013-02-19 03:36:00,27.4,16.1,30.10,SW,219,0.0,1.0,62,0.00,,,0.00,VWS V14.01,2013-02-19 08:36:00,
2013-02-19 03:37:00,27.4,16.1,30.10,SW,219,0.0,1.0,62,0.00,,,0.00,VWS V14.01,2013-02-19 08:37:00,
2013-02-19 03:38:00,27.4,16.1,30.10,SW,219,0.0,1.0,62,0.00,,,0.00,VWS V14.01,2013-02-19 08:38:00,
2013-02-19 03:39:00,27.4,16.1,30.10,SW,219,0.0,1.0,62,0.00,,,0.00,VWS V14.01,2013-02-19 08:39:00,
2013-02-19 03:40:00,27.4,16.1,30.10,SW,219,0.0,1.0,62,0.00,,,0.00,VWS V14.01,2013-02-19 08:40:00,
2013-02-19 03:41:00,27.4,16.1,30.10,SW,219,0.0,0.0,62,0.00,,,0.00,VWS V14.01,2013-02-19 08:41:00,
2013-02-19 03:42:00,27.4,16.1,30.10,SW,219,0.0,0.0,62,0.00,,,0.00,VWS V14.01,2013-02-19 08:42:00,
2013-02-19 03:43:00,27.4,16.1,30.10,SW,219,0.0,0.0,62,0.00,,,0.00,VWS V14.01,2013-02-19 08:43:00,
2013-02-19 03:44:00,27.4,16.1,30.10,SW,219,0.0,0.0,62,0.00,,,0.00,VWS V14.01,2013-02-19 08:44:00,
2013-02-19 03:45:00,27.4,16.1,30.10,SW,219,0.0,0.0,62,0.00,,,0.00,VWS V14.01,2013-02-19 08:45:00,
2013-02-19 03:46:00,27.4,16.1,30.10,SW,219,0.0,0.0,62,0.00,,,0.00,VWS V14.01,2013-02-19 08:46:00,
2013-02-19 03:47:00,27.4,16.5,30.10,SW,219,0.0,0.0,63,0.00,,,0.00,VWS V14.01,2013-02-19 08:47:00,
2013-02-19 03:48:00,27.4,16.5,30.10,SW,219,0.0,0.0,63,0.00,,,0.00,VWS V14.01,2013-02-19 08:48:00,
2013-02-19 03:49:00,27.4,16.5,30.10,SW,219,0.0,0.0,63,0.00,,,0.00,VWS V14.01,2013-02-19 08:49:00,
2013-02-19 03:50:00,27.3,16.4,30.10,SW,219,0.0,0.0,63,0.00,,,0.00,VWS V14.01,2013-02-19 08:50:00,
2013-02-19 03:51:00,27.4,16.5,30.10,SW,219,0.0,0.0,63,0.00,,,0.00,VWS V14.01,2013-02-19 08:51:00,
2013-02-19 03:52:00,27.3,16.4,30.10,SW,219,0.0,0.0,63,0.00,,,0.00,VWS V14.01,2013-02-19 08:52:00,
2013-02-19 03:53:00,27.3,16.4,30.10,SW,219,0.0,0.0,63,0.00,,,0.00,VWS V14.01,2013-02-19 08:53:00,
2013-02-19 03:54:00,27.3,16.4,30.10,SW,219,0.0,0.0,63,0.00,,,0.00,VWS V14.01,2013-02-19 08:54:00,
2013-02-19 03:55:00,27.3,16.4,30.10,SW,219,0.0,0.0,63,0.00,,,0.00,VWS V14.01,2013-02-19 08:55:00,
2013-02-19 03:56:00,27.3,16.4,30.10,SW,219,0.0,0.0,63,0.00,,,0.00,VWS V14.01,2013-02-19 08:56:00,
2013-02-19 03:57:00,27.3,16.4,30.10,SW,219,0.0,0.0,63,0.00,,,0.00,VWS V14.01,2013-02-19 08:57:00,
2013-02-19 03:58:00,27.2,16.3,30.10,SW,219,0.0,0.0,63,0.00,,,0.00,VWS V14.01,2013-02-19 08:58:00,
2013-02-19 03:59:00,27.2,16.3,30.10,SW,219,0.0,0.0,63,0.00,,,0.00,VWS V14.01,2013-02-19 08:59:00,
2013-02-19 04:00:00,27.2,16.3,30.09,SW,219,0.0,0.0,63,0.00,,,0.00,VWS V14.01,2013-02-19 09:00:00,
2013-02-19 04:01:00,27.2,16.3,30.09,SW,219,0.0,0.0,63,0.00,,,0.00,VWS V14.01,2013-02-19 09:01:00,
2013-02-19 04:02:00,27.2,16.3,30.09,SW,219,0.0,0.0,63,0.00,,,0.00,VWS V14.01,2013-02-19 09:02:00,
2013-02-19 04:03:00,27.1,16.6,30.09,SW,219,0.0,0.0,64,0.00,,,0.00,VWS V14.01,2013-02-19 09:03:00,
2013-02-19 04:04:00,27.1,16.6,30.09,SW,219,0.0,0.0,64,0.00,,,0.00,VWS V14.01,2013-02-19 09:04:00,
2013-02-19 04:05:00,27.1,16.6,30.09,SW,219,0.0,0.0,64,0.00,,,0.00,VWS V14.01,2013-02-19 09:05:00,
2013-02-19 04:06:00,27.1,16.6,30.09,SW,219,0.0,0.0,64,0.00,,,0.00,VWS V14.01,2013-02-19 09:06:00,
2013-02-19 04:07:00,27.1,16.6,30.09,SW,219,0.0,0.0,64,0.00,,,0.00,VWS V14.01,2013-02-19 09:07:00,
2013-02-19 04:08:00,27.1,16.6,30.09,SW,219,0.0,0.0,64,0.00,,,0.00,VWS V14.01,2013-02-19 09:08:00,
2013-02-19 04:09:00,27.1,16.6,30.09,SW,219,0.0,0.0,64,0.00,,,0.00,VWS V14.01,2013-02-19 09:09:00,
2013-02-19 04:10:00,27.0,16.5,30.09,SW,219,0.0,0.0,64,0.00,,,0.00,VWS V14.01,2013-02-19 09:10:00,
2013-02-19 04:11:00,27.0,16.5,30.09,SW,219,0.0,0.0,64,0.00,,,0.00,VWS V14.01,2013-02-19 09:11:00,
2013-02-19 04:12:00,27.0,16.5,30.09,SW,219,0.0,0.0,64,0.00,,,0.00,VWS V14.01,2013-02-19 09:12:00,
2013-02-19 04:13:00,27.0,16.5,30.09,SW,219,0.0,0.0,64,0.00,,,0.00,VWS V14.01,2013-02-19 09:13:00,
2013-02-19 04:14:00,27.0,16.5,30.09,SW,219,0.0,0.0,64,0.00,,,0.00,VWS V14.01,2013-02-19 09:14:00,
2013-02-19 04:15:00,27.0,16.5,30.09,SW,219,1.0,1.0,64,0.00,,,0.00,VWS V14.01,2013-02-19 09:15:00,
2013-02-19 04:16:00,27.0,16.8,30.09,SW,219,0.0,1.0,65,0.00,,,0.00,VWS V14.01,2013-02-19 09:16:00,
2013-02-19 04:17:00,26.9,16.7,30.09,SW,219,0.0,1.0,65,0.00,,,0.00,VWS V14.01,2013-02-19 09:17:00,
2013-02-19 04:18:00,27.0,16.8,30.09,SW,219,0.0,1.0,65,0.00,,,0.00,VWS V14.01,2013-02-19 09:18:00,
2013-02-19 04:19:00,27.0,16.8,30.09,SW,219,0.0,1.0,65,0.00,,,0.00,VWS V14.01,2013-02-19 09:19:00,
2013-02-19 04:20:00,26.9,16.7,30.09,SW,219,0.0,1.0,65,0.00,,,0.00,VWS V14.01,2013-02-19 09:20:00,
2013-02-19 04:21:00,26.9,16.7,30.09,SW,219,0.0,0.0,65,0.00,,,0.00,VWS V14.01,2013-02-19 09:21:00,
2013-02-19 04:22:00,26.9,16.7,30.09,SW,219,1.0,1.0,65,0.00,,,0.00,VWS V14.01,2013-02-19 09:22:00,
2013-02-19 04:23:00,26.9,16.7,30.09,SW,219,0.0,1.0,65,0.00,,,0.00,VWS V14.01,2013-02-19 09:23:00,
2013-02-19 04:24:00,26.9,16.7,30.09,SW,219,0.0,1.0,65,0.00,,,0.00,VWS V14.01,2013-02-19 09:24:00,
2013-02-19 04:25:00,26.9,16.7,30.09,SW,219,0.0,1.0,65,0.00,,,0.00,VWS V14.01,2013-02-19 09:25:00,
2013-02-19 04:26:00,26.9,17.1,30.09,SW,219,0.0,1.0,66,0.00,,,0.00,VWS V14.01,2013-02-19 09:26:00,
2013-02-19 04:27:00,26.9,17.1,30.09,SW,219,0.0,1.0,66,0.00,,,0.00,VWS V14.01,2013-02-19 09:27:00,
2013-02-19 04:28:00,26.9,17.1,30.09,SW,219,0.0,1.0,66,0.00,,,0.00,VWS V14.01,2013-02-19 09:28:00,
2013-02-19 04:29:00,26.9,17.1,30.09,SW,219,0.0,1.0,66,0.00,,,0.00,VWS V14.01,2013-02-19 09:29:00,
2013-02-19 04:30:00,26.8,17.0,30.08,SW,219,0.0,1.0,66,0.00,,,0.00,VWS V14.01,2013-02-19 09:30:00,
2013-02-19 04:31:00,26.8,17.0,30.08,SW,219,0.0,0.0,66,0.00,,,0.00,VWS V14.01,2013-02-19 09:31:00,
2013-02-19 04:32:00,26.8,17.0,30.08,SW,219,0.0,0.0,66,0.00,,,0.00,VWS V14.01,2013-02-19 09:32:00,
2013-02-19 04:33:00,26.8,17.0,30.08,SW,219,0.0,0.0,66,0.00,,,0.00,VWS V14.01,2013-02-19 09:33:00,
2013-02-19 04:34:00,26.8,17.0,30.08,SW,216,0.0,1.0,66,0.00,,,0.00,VWS V14.01,2013-02-19 09:34:00,
2013-02-19 04:35:00,26.8,17.3,30.08,SW,216,0.0,1.0,67,0.00,,,0.00,VWS V14.01,2013-02-19 09:35:00,
2013-02-19 04:36:00,26.8,17.3,30.08,SW,216,0.0,1.0,67,0.00,,,0.00,VWS V14.01,2013-02-19 09:36:00,
2013-02-19 04:37:00,26.8,17.3,30.08,SW,216,0.0,2.0,67,0.00,,,0.00,VWS V14.01,2013-02-19 09:37:00,
2013-02-19 04:38:00,26.7,17.2,30.08,SW,216,0.0,2.0,67,0.00,,,0.00,VWS V14.01,2013-02-19 09:38:00,
2013-02-19 04:39:00,26.7,17.2,30.08,SW,216,0.0,2.0,67,0.00,,,0.00,VWS V14.01,2013-02-19 09:39:00,
2013-02-19 04:40:00,26.7,17.2,30.08,SW,216,0.0,2.0,67,0.00,,,0.00,VWS V14.01,2013-02-19 09:40:00,
2013-02-19 04:41:00,26.7,17.2,30.08,SW,216,0.0,0.0,67,0.00,,,0.00,VWS V14.01,2013-02-19 09:41:00,
2013-02-19 04:42:00,26.7,17.2,30.08,ESE,110,0.0,2.0,67,0.00,,,0.00,VWS V14.01,2013-02-19 09:42:00,
2013-02-19 04:43:00,26.6,17.1,30.08,ESE,111,0.0,2.0,67,0.00,,,0.00,VWS V14.01,2013-02-19 09:43:00,
2013-02-19 04:44:00,26.6,17.1,30.08,ESE,110,0.0,2.0,67,0.00,,,0.00,VWS V14.01,2013-02-19 09:44:00,
2013-02-19 04:45:00,26.6,17.1,30.07,ESE,111,0.0,2.0,67,0.00,,,0.00,VWS V14.01,2013-02-19 09:45:00,
2013-02-19 04:46:00,26.6,17.1,30.07,ESE,111,0.0,2.0,67,0.00,,,0.00,VWS V14.01,2013-02-19 09:46:00,
2013-02-19 04:47:00,26.5,17.4,30.07,ESE,111,0.0,2.0,68,0.00,,,0.00,VWS V14.01,2013-02-19 09:47:00,
2013-02-19 04:48:00,26.5,17.0,30.07,ESE,111,0.0,2.0,67,0.00,,,0.00,VWS V14.01,2013-02-19 09:48:00,
2013-02-19 04:49:00,26.5,17.0,30.07,ESE,111,0.0,2.0,67,0.00,,,0.00,VWS V14.01,2013-02-19 09:49:00,
2013-02-19 04:50:00,26.4,16.9,30.07,ESE,110,0.0,2.0,67,0.00,,,0.00,VWS V14.01,2013-02-19 09:50:00,
2013-02-19 04:51:00,26.4,16.9,30.07,ESE,111,0.0,1.0,67,0.00,,,0.00,VWS V14.01,2013-02-19 09:51:00,
2013-02-19 04:52:00,26.4,16.9,30.07,ENE,71,0.0,1.0,67,0.00,,,0.00,VWS V14.01,2013-02-19 09:52:00,
2013-02-19 04:53:00,26.4,16.9,30.07,ENE,72,0.0,2.0,67,0.00,,,0.00,VWS V14.01,2013-02-19 09:53:00,
2013-02-19 04:54:00,26.3,17.2,30.07,ENE,72,0.0,2.0,68,0.00,,,0.00,VWS V14.01,2013-02-19 09:54:00,
2013-02-19 04:55:00,26.3,17.2,30.07,ENE,72,0.0,2.0,68,0.00,,,0.00,VWS V14.01,2013-02-19 09:55:00,
2013-02-19 04:56:00,26.3,17.2,30.07,ENE,72,0.0,2.0,68,0.00,,,0.00,VWS V14.01,2013-02-19 09:56:00,
2013-02-19 04:57:00,26.3,17.2,30.07,ENE,72,1.0,2.0,68,0.00,,,0.00,VWS V14.01,2013-02-19 09:57:00,
2013-02-19 04:58:00,26.3,17.2,30.07,ENE,72,2.0,2.0,68,0.00,,,0.00,VWS V14.01,2013-02-19 09:58:00,
2013-02-19 04:59:00,26.2,17.1,30.07,ENE,72,0.0,2.0,68,0.00,,,0.00,VWS V14.01,2013-02-19 09:59:00,
2013-02-19 05:00:00,26.2,17.1,30.07,ENE,72,0.0,2.0,68,0.00,,,0.00,VWS V14.01,2013-02-19 10:00:00,
2013-02-19 05:01:00,26.2,17.1,30.07,ENE,72,0.0,0.0,68,0.00,,,0.00,VWS V14.01,2013-02-19 10:01:00,
2013-02-19 05:02:00,26.2,17.1,30.07,ENE,72,0.0,1.0,68,0.00,,,0.00,VWS V14.01,2013-02-19 10:02:00,
2013-02-19 05:03:00,26.1,17.0,30.07,ENE,72,0.0,1.0,68,0.00,,,0.00,VWS V14.01,2013-02-19 10:03:00,
2013-02-19 05:04:00,26.1,17.0,30.07,ENE,72,0.0,1.0,68,0.00,,,0.00,VWS V14.01,2013-02-19 10:04:00,
2013-02-19 05:05:00,26.1,17.0,30.07,ENE,72,0.0,1.0,68,0.00,,,0.00,VWS V14.01,2013-02-19 10:05:00,
2013-02-19 05:06:00,26.1,17.0,30.07,ENE,72,0.0,1.0,68,0.00,,,0.00,VWS V14.01,2013-02-19 10:06:00,
2013-02-19 05:07:00,26.1,17.0,30.07,ENE,72,0.0,2.0,68,0.00,,,0.00,VWS V14.01,2013-02-19 10:07:00,
2013-02-19 05:08:00,26.0,17.2,30.07,ENE,72,0.0,3.0,69,0.00,,,0.00,VWS V14.01,2013-02-19 10:08:00,
2013-02-19 05:09:00,26.0,17.2,30.07,ENE,72,0.0,3.0,69,0.00,,,0.00,VWS V14.01,2013-02-19 10:09:00,
2013-02-19 05:10:00,26.0,17.2,30.07,ENE,72,0.0,3.0,69,0.00,,,0.00,VWS V14.01,2013-02-19 10:10:00,
2013-02-19 05:11:00,26.0,17.2,30.07,ENE,72,0.0,1.0,69,0.00,,,0.00,VWS V14.01,2013-02-19 10:11:00,
2013-02-19 05:12:00,26.0,17.2,30.07,SE,134,1.0,3.0,69,0.00,,,0.00,VWS V14.01,2013-02-19 10:12:00,
2013-02-19 05:13:00,25.9,17.1,30.07,SE,134,1.0,3.0,69,0.00,,,0.00,VWS V14.01,2013-02-19 10:13:00,
2013-02-19 05:14:00,25.9,17.1,30.07,SE,134,1.0,3.0,69,0.00,,,0.00,VWS V14.01,2013-02-19 10:14:00,
2013-02-19 05:15:00,25.9,17.1,30.06,SE,134,0.0,3.0,69,0.00,,,0.00,VWS V14.01,2013-02-19 10:15:00,
2013-02-19 05:16:00,25.8,17.0,30.06,SE,134,0.0,3.0,69,0.00,,,0.00,VWS V14.01,2013-02-19 10:16:00,
2013-02-19 05:17:00,25.8,17.0,30.06,SE,134,0.0,3.0,69,0.00,,,0.00,VWS V14.01,2013-02-19 10:17:00,
2013-02-19 05:18:00,25.8,17.0,30.06,SE,134,1.0,3.0,69,0.00,,,0.00,VWS V14.01,2013-02-19 10:18:00,
2013-02-19 05:19:00,25.8,17.0,30.06,SE,134,0.0,3.0,69,0.00,,,0.00,VWS V14.01,2013-02-19 10:19:00,
2013-02-19 05:20:00,25.8,17.0,30.06,SE,134,0.0,3.0,69,0.00,,,0.00,VWS V14.01,2013-02-19 10:20:00,
2013-02-19 05:21:00,25.8,17.0,30.06,SE,134,0.0,0.0,69,0.00,,,0.00,VWS V14.01,2013-02-19 10:21:00,
2013-02-19 05:22:00,25.8,17.0,30.06,SE,134,0.0,0.0,69,0.00,,,0.00,VWS V14.01,2013-02-19 10:22:00,
2013-02-19 05:23:00,25.8,17.0,30.06,SE,134,0.0,0.0,69,0.00,,,0.00,VWS V14.01,2013-02-19 10:23:00,
2013-02-19 05:24:00,25.8,17.0,30.06,SE,134,0.0,1.0,69,0.00,,,0.00,VWS V14.01,2013-02-19 10:24:00,
2013-02-19 05:25:00,25.8,17.0,30.06,SE,134,0.0,1.0,69,0.00,,,0.00,VWS V14.01,2013-02-19 10:25:00,
2013-02-19 05:26:00,25.8,17.0,30.06,SE,134,0.0,1.0,69,0.00,,,0.00,VWS V14.01,2013-02-19 10:26:00,
2013-02-19 05:27:00,25.8,17.0,30.06,SE,134,0.0,1.0,69,0.00,,,0.00,VWS V14.01,2013-02-19 10:27:00,
2013-02-19 05:28:00,25.8,17.0,30.06,SE,134,0.0,1.0,69,0.00,,,0.00,VWS V14.01,2013-02-19 10:28:00,
2013-02-19 05:29:00,25.8,17.0,30.06,SE,134,0.0,1.0,69,0.00,,,0.00,VWS V14.01,2013-02-19 10:29:00,
2013-02-19 05:30:00,25.8,17.0,30.05,SE,134,0.0,1.0,69,0.00,,,0.00,VWS V14.01,2013-02-19 10:30:00,
2013-02-19 05:31:00,25.8,17.4,30.05,SE,134,2.0,2.0,70,0.00,,,0.00,VWS V14.01,2013-02-19 10:31:00,
2013-02-19 05:32:00,25.8,17.0,30.05,SE,134,1.0,2.0,69,0.00,,,0.00,VWS V14.01,2013-02-19 10:32:00,
2013-02-19 05:33:00,25.8,17.0,30.05,SE,134,0.0,2.0,69,0.00,,,0.00,VWS V14.01,2013-02-19 10:33:00,
2013-02-19 05:34:00,25.8,17.0,30.05,SE,134,0.0,2.0,69,0.00,,,0.00,VWS V14.01,2013-02-19 10:34:00,
2013-02-19 05:35:00,25.8,17.0,30.05,SE,134,1.0,2.0,69,0.00,,,0.00,VWS V14.01,2013-02-19 10:35:00,
2013-02-19 05:36:00,25.7,17.0,30.05,SE,134,1.0,2.0,69,0.00,,,0.00,VWS V14.01,2013-02-19 10:36:00,
2013-02-19 05:37:00,25.7,17.0,30.05,SE,134,0.0,2.0,69,0.00,,,0.00,VWS V14.01,2013-02-19 10:37:00,
2013-02-19 05:38:00,25.8,17.0,30.05,SE,134,0.0,2.0,69,0.00,,,0.00,VWS V14.01,2013-02-19 10:38:00,
2013-02-19 05:39:00,25.8,17.0,30.05,SE,134,0.0,2.0,69,0.00,,,0.00,VWS V14.01,2013-02-19 10:39:00,
2013-02-19 05:40:00,25.8,17.0,30.05,SE,134,0.0,2.0,69,0.00,,,0.00,VWS V14.01,2013-02-19 10:40:00,
2013-02-19 05:41:00,25.8,16.7,30.05,SE,134,0.0,0.0,68,0.00,,,0.00,VWS V14.01,2013-02-19 10:41:00,
2013-02-19 05:42:00,25.8,16.7,30.05,SE,134,2.0,2.0,68,0.00,,,0.00,VWS V14.01,2013-02-19 10:42:00,
2013-02-19 05:43:00,25.8,16.7,30.05,SE,134,1.0,2.0,68,0.00,,,0.00,VWS V14.01,2013-02-19 10:43:00,
2013-02-19 05:44:00,25.8,16.7,30.05,SE,134,0.0,2.0,68,0.00,,,0.00,VWS V14.01,2013-02-19 10:44:00,
2013-02-19 05:45:00,25.8,16.7,30.05,SE,134,1.0,2.0,68,0.00,,,0.00,VWS V14.01,2013-02-19 10:45:00,
2013-02-19 05:46:00,25.8,16.7,30.05,SE,134,0.0,2.0,68,0.00,,,0.00,VWS V14.01,2013-02-19 10:46:00,
2013-02-19 05:47:00,25.8,16.7,30.05,SE,134,0.0,3.0,68,0.00,,,0.00,VWS V14.01,2013-02-19 10:47:00,
2013-02-19 05:48:00,25.8,16.7,30.05,SE,134,1.0,3.0,68,0.00,,,0.00,VWS V14.01,2013-02-19 10:48:00,
2013-02-19 05:49:00,25.8,16.7,30.05,SE,134,3.0,3.0,68,0.00,,,0.00,VWS V14.01,2013-02-19 10:49:00,
2013-02-19 05:50:00,25.8,16.7,30.05,SE,134,0.0,3.0,68,0.00,,,0.00,VWS V14.01,2013-02-19 10:50:00,
2013-02-19 05:51:00,25.8,16.7,30.05,SE,134,0.0,2.0,68,0.00,,,0.00,VWS V14.01,2013-02-19 10:51:00,
2013-02-19 05:52:00,25.8,16.7,30.05,SE,134,0.0,2.0,68,0.00,,,0.00,VWS V14.01,2013-02-19 10:52:00,
2013-02-19 05:53:00,25.8,16.7,30.05,SE,134,2.0,3.0,68,0.00,,,0.00,VWS V14.01,2013-02-19 10:53:00,
2013-02-19 05:54:00,25.8,16.4,30.05,SE,134,0.0,3.0,67,0.00,,,0.00,VWS V14.01,2013-02-19 10:54:00,
2013-02-19 05:55:00,25.8,16.4,30.05,SE,134,0.0,3.0,67,0.00,,,0.00,VWS V14.01,2013-02-19 10:55:00,
2013-02-19 05:56:00,25.8,16.7,30.05,SE,134,0.0,3.0,68,0.00,,,0.00,VWS V14.01,2013-02-19 10:56:00,
2013-02-19 05:57:00,25.8,16.7,30.05,SE,134,0.0,3.0,68,0.00,,,0.00,VWS V14.01,2013-02-19 10:57:00,
2013-02-19 05:58:00,25.8,16.7,30.05,SE,134,0.0,3.0,68,0.00,,,0.00,VWS V14.01,2013-02-19 10:58:00,
2013-02-19 05:59:00,25.8,16.7,30.05,SE,134,0.0,3.0,68,0.00,,,0.00,VWS V14.01,2013-02-19 10:59:00,
2013-02-19 06:00:00,25.8,16.7,30.05,SE,134,0.0,3.0,68,0.00,,,0.00,VWS V14.01,2013-02-19 11:00:00,
2013-02-19 06:01:00,25.8,16.7,30.05,SE,134,0.0,2.0,68,0.00,,,0.00,VWS V14.01,2013-02-19 11:01:00,
2013-02-19 06:02:00,25.8,16.7,30.05,SE,134,0.0,2.0,68,0.00,,,0.00,VWS V14.01,2013-02-19 11:02:00,
2013-02-19 06:03:00,25.8,16.7,30.05,SE,134,0.0,2.0,68,0.00,,,0.00,VWS V14.01,2013-02-19 11:03:00,
2013-02-19 06:04:00,25.8,16.7,30.05,SE,134,0.0,2.0,68,0.00,,,0.00,VWS V14.01,2013-02-19 11:04:00,
2013-02-19 06:05:00,25.8,16.7,30.05,SE,134,0.0,2.0,68,0.00,,,0.00,VWS V14.01,2013-02-19 11:05:00,
2013-02-19 06:06:00,25.8,16.7,30.05,SE,134,1.0,2.0,68,0.00,,,0.00,VWS V14.01,2013-02-19 11:06:00,
2013-02-19 06:07:00,25.8,16.7,30.05,SE,134,0.0,2.0,68,0.00,,,0.00,VWS V14.01,2013-02-19 11:07:00,
2013-02-19 06:08:00,25.8,16.7,30.05,SE,134,0.0,2.0,68,0.00,,,0.00,VWS V14.01,2013-02-19 11:08:00,
2013-02-19 06:09:00,25.7,17.0,30.05,SE,134,0.0,2.0,69,0.00,,,0.00,VWS V14.01,2013-02-19 11:09:00,
2013-02-19 06:10:00,25.7,17.0,30.05,SE,134,0.0,2.0,69,0.00,,,0.00,VWS V14.01,2013-02-19 11:10:00,
2013-02-19 06:11:00,25.7,17.0,30.05,SE,134,1.0,1.0,69,0.00,,,0.00,VWS V14.01,2013-02-19 11:11:00,
2013-02-19 06:12:00,25.6,16.9,30.05,SE,134,0.0,1.0,69,0.00,,,0.00,VWS V14.01,2013-02-19 11:12:00,
2013-02-19 06:13:00,25.6,16.9,30.05,SE,134,0.0,1.0,69,0.00,,,0.00,VWS V14.01,2013-02-19 11:13:00,
2013-02-19 06:14:00,25.6,16.9,30.05,SE,134,1.0,1.0,69,0.00,,,0.00,VWS V14.01,2013-02-19 11:14:00,
2013-02-19 06:15:00,25.5,16.8,30.04,SE,134,1.0,1.0,69,0.00,,,0.00,VWS V14.01,2013-02-19 11:15:00,
2013-02-19 06:16:00,25.5,16.8,30.04,SE,134,1.0,2.0,69,0.00,,,0.00,VWS V14.01,2013-02-19 11:16:00,
2013-02-19 06:17:00,25.5,16.8,30.04,SE,134,2.0,2.0,69,0.00,,,0.00,VWS V14.01,2013-02-19 11:17:00,
2013-02-19 06:18:00,25.6,16.9,30.04,SE,134,0.0,2.0,69,0.00,,,0.00,VWS V14.01,2013-02-19 11:18:00,
2013-02-19 06:19:00,25.6,16.9,30.04,SE,134,3.0,3.0,69,0.00,,,0.00,VWS V14.01,2013-02-19 11:19:00,
2013-02-19 06:20:00,25.6,16.9,30.04,SE,134,1.0,3.0,69,0.00,,,0.00,VWS V14.01,2013-02-19 11:20:00,
2013-02-19 06:21:00,25.6,16.9,30.04,SE,134,1.0,1.0,69,0.00,,,0.00,VWS V14.01,2013-02-19 11:21:00,
2013-02-19 06:22:00,25.6,16.9,30.04,SE,134,1.0,1.0,69,0.00,,,0.00,VWS V14.01,2013-02-19 11:22:00,
2013-02-19 06:23:00,25.7,17.0,30.04,SE,134,0.0,1.0,69,0.00,,,0.00,VWS V14.01,2013-02-19 11:23:00,
2013-02-19 06:24:00,25.7,17.3,30.04,SE,134,0.0,1.0,70,0.00,,,0.00,VWS V14.01,2013-02-19 11:24:00,
2013-02-19 06:25:00,25.7,17.3,30.04,SE,134,1.0,2.0,70,0.00,,,0.00,VWS V14.01,2013-02-19 11:25:00,
2013-02-19 06:26:00,25.7,17.3,30.04,SE,134,0.0,2.0,70,0.00,,,0.00,VWS V14.01,2013-02-19 11:26:00,
2013-02-19 06:27:00,25.7,17.3,30.04,SE,134,0.0,2.0,70,0.00,,,0.00,VWS V14.01,2013-02-19 11:27:00,
2013-02-19 06:28:00,25.8,17.4,30.04,SE,134,2.0,2.0,70,0.00,,,0.00,VWS V14.01,2013-02-19 11:28:00,
2013-02-19 06:29:00,25.8,17.4,30.04,SE,134,0.0,2.0,70,0.00,,,0.00,VWS V14.01,2013-02-19 11:29:00,
2013-02-19 06:30:00,25.8,17.4,30.03,SE,134,0.0,2.0,70,0.00,,,0.00,VWS V14.01,2013-02-19 11:30:00,
2013-02-19 06:31:00,25.9,17.5,30.03,SE,134,0.0,0.0,70,0.00,,,0.00,VWS V14.01,2013-02-19 11:31:00,
2013-02-19 06:32:00,25.9,17.5,30.03,SE,134,0.0,0.0,70,0.00,,,0.00,VWS V14.01,2013-02-19 11:32:00,
2013-02-19 06:33:00,25.9,17.5,30.03,SE,134,1.0,1.0,70,0.00,,,0.00,VWS V14.01,2013-02-19 11:33:00,
2013-02-19 06:34:00,26.0,17.6,30.03,SE,134,2.0,2.0,70,0.00,,,0.00,VWS V14.01,2013-02-19 11:34:00,
2013-02-19 06:35:00,26.0,17.6,30.03,SE,134,1.0,2.0,70,0.00,,,0.00,VWS V14.01,2013-02-19 11:35:00,
2013-02-19 06:36:00,26.0,17.6,30.03,SE,134,0.0,2.0,70,0.00,,,0.00,VWS V14.01,2013-02-19 11:36:00,
2013-02-19 06:37:00,26.0,17.6,30.03,SE,134,0.0,2.0,70,0.00,,,0.00,VWS V14.01,2013-02-19 11:37:00,
2013-02-19 06:38:00,26.1,17.7,30.03,SE,134,1.0,2.0,70,0.00,,,0.00,VWS V14.01,2013-02-19 11:38:00,
2013-02-19 06:39:00,26.1,17.7,30.03,SE,134,0.0,2.0,70,0.00,,,0.00,VWS V14.01,2013-02-19 11:39:00,
2013-02-19 06:40:00,26.1,17.7,30.03,SE,134,0.0,2.0,70,0.00,,,0.00,VWS V14.01,2013-02-19 11:40:00,
2013-02-19 06:41:00,26.1,17.7,30.03,SE,134,1.0,1.0,70,0.00,,,0.00,VWS V14.01,2013-02-19 11:41:00,
2013-02-19 06:42:00,26.1,17.7,30.03,SE,134,1.0,1.0,70,0.00,,,0.00,VWS V14.01,2013-02-19 11:42:00,
2013-02-19 06:43:00,26.2,17.8,30.03,SE,134,0.0,1.0,70,0.00,,,0.00,VWS V14.01,2013-02-19 11:43:00,
2013-02-19 06:44:00,26.2,17.8,30.03,SE,134,1.0,1.0,70,0.00,,,0.00,VWS V14.01,2013-02-19 11:44:00,
2013-02-19 06:45:00,26.2,17.8,30.03,SE,134,0.0,2.0,70,0.00,,,0.00,VWS V14.01,2013-02-19 11:45:00,
2013-02-19 06:46:00,26.2,17.8,30.03,SE,134,0.0,2.0,70,0.00,,,0.00,VWS V14.01,2013-02-19 11:46:00,
2013-02-19 06:47:00,26.2,17.8,30.03,SE,134,0.0,2.0,70,0.00,,,0.00,VWS V14.01,2013-02-19 11:47:00,
2013-02-19 06:48:00,26.3,17.9,30.03,SE,134,1.0,2.0,70,0.00,,,0.00,VWS V14.01,2013-02-19 11:48:00,
2013-02-19 06:49:00,26.3,17.9,30.03,SE,134,1.0,2.0,70,0.00,,,0.00,VWS V14.01,2013-02-19 11:49:00,
2013-02-19 06:50:00,26.3,17.9,30.03,SE,134,0.0,2.0,70,0.00,,,0.00,VWS V14.01,2013-02-19 11:50:00,
2013-02-19 06:51:00,26.3,17.9,30.03,SE,134,0.0,0.0,70,0.00,,,0.00,VWS V14.01,2013-02-19 11:51:00,
2013-02-19 06:52:00,26.3,17.9,30.03,SE,134,0.0,0.0,70,0.00,,,0.00,VWS V14.01,2013-02-19 11:52:00,
2013-02-19 06:53:00,26.4,18.0,30.03,SE,134,0.0,0.0,70,0.00,,,0.00,VWS V14.01,2013-02-19 11:53:00,
2013-02-19 06:54:00,26.4,18.0,30.03,SE,134,0.0,0.0,70,0.00,,,0.00,VWS V14.01,2013-02-19 11:54:00,
2013-02-19 06:55:00,26.5,18.0,30.03,SE,132,1.0,4.0,70,0.00,,,0.00,VWS V14.01,2013-02-19 11:55:00,
2013-02-19 06:56:00,26.5,18.0,30.03,SE,132,1.0,4.0,70,0.00,,,0.00,VWS V14.01,2013-02-19 11:56:00,
2013-02-19 06:57:00,26.5,18.0,30.03,SE,132,1.0,4.0,70,0.00,,,0.00,VWS V14.01,2013-02-19 11:57:00,
2013-02-19 06:58:00,26.6,18.1,30.03,SE,133,0.0,4.0,70,0.00,,,0.00,VWS V14.01,2013-02-19 11:58:00,
2013-02-19 06:59:00,26.6,18.1,30.03,SE,133,0.0,4.0,70,0.00,,,0.00,VWS V14.01,2013-02-19 11:59:00,
2013-02-19 07:00:00,26.6,18.1,30.04,SE,133,0.0,4.0,70,0.00,,,0.00,VWS V14.01,2013-02-19 12:00:00,
2013-02-19 07:01:00,26.6,18.1,30.04,SE,133,0.0,1.0,70,0.00,,,0.00,VWS V14.01,2013-02-19 12:01:00,
2013-02-19 07:02:00,26.6,18.1,30.04,SE,133,0.0,1.0,70,0.00,,,0.00,VWS V14.01,2013-02-19 12:02:00,
2013-02-19 07:03:00,26.7,18.2,30.04,SE,133,0.0,1.0,70,0.00,,,0.00,VWS V14.01,2013-02-19 12:03:00,
2013-02-19 07:04:00,26.7,18.2,30.04,SE,133,0.0,1.0,70,0.00,,,0.00,VWS V14.01,2013-02-19 12:04:00,
2013-02-19 07:05:00,26.7,18.2,30.04,SE,133,0.0,1.0,70,0.00,,,0.00,VWS V14.01,2013-02-19 12:05:00,
2013-02-19 07:06:00,26.8,18.3,30.04,SE,133,2.0,2.0,70,0.00,,,0.00,VWS V14.01,2013-02-19 12:06:00,
2013-02-19 07:07:00,26.8,18.3,30.04,SE,133,2.0,2.0,70,0.00,,,0.00,VWS V14.01,2013-02-19 12:07:00,
2013-02-19 07:08:00,26.8,18.3,30.04,SE,133,0.0,2.0,70,0.00,,,0.00,VWS V14.01,2013-02-19 12:08:00,
2013-02-19 07:09:00,26.8,18.3,30.04,SE,133,1.0,2.0,70,0.00,,,0.00,VWS V14.01,2013-02-19 12:09:00,
2013-02-19 07:10:00,26.9,18.4,30.04,SE,133,0.0,2.0,70,0.00,,,0.00,VWS V14.01,2013-02-19 12:10:00,
2013-02-19 07:11:00,26.9,18.4,30.04,SE,133,0.0,2.0,70,0.00,,,0.00,VWS V14.01,2013-02-19 12:11:00,
2013-02-19 07:12:00,26.9,18.4,30.04,SE,133,0.0,2.0,70,0.00,,,0.00,VWS V14.01,2013-02-19 12:12:00,
2013-02-19 07:13:00,26.9,18.4,30.04,SE,133,0.0,0.0,70,0.00,,,0.00,VWS V14.01,2013-02-19 12:13:00,
2013-02-19 07:14:00,26.9,18.4,30.04,SE,133,0.0,0.0,70,0.00,,,0.00,VWS V14.01,2013-02-19 12:14:00,
2013-02-19 07:15:00,26.9,18.4,30.04,SE,133,0.0,0.0,70,0.00,,,0.00,VWS V14.01,2013-02-19 12:15:00,
2013-02-19 07:16:00,26.9,18.4,30.04,SE,133,1.0,1.0,70,0.00,,,0.00,VWS V14.01,2013-02-19 12:16:00,
2013-02-19 07:17:00,26.9,18.4,30.04,SE,133,0.0,1.0,70,0.00,,,0.00,VWS V14.01,2013-02-19 12:17:00,
2013-02-19 07:18:00,26.9,18.4,30.04,SE,133,0.0,1.0,70,0.00,,,0.00,VWS V14.01,2013-02-19 12:18:00,
2013-02-19 07:19:00,26.9,18.4,30.04,SE,133,0.0,2.0,70,0.00,,,0.00,VWS V14.01,2013-02-19 12:19:00,
2013-02-19 07:20:00,27.0,18.5,30.04,SE,133,0.0,2.0,70,0.00,,,0.00,VWS V14.01,2013-02-19 12:20:00,
2013-02-19 07:21:00,27.0,18.5,30.04,SE,133,0.0,2.0,70,0.00,,,0.00,VWS V14.01,2013-02-19 12:21:00,
2013-02-19 07:22:00,27.0,18.5,30.04,SE,133,0.0,0.0,70,0.00,,,0.00,VWS V14.01,2013-02-19 12:22:00,
2013-02-19 07:23:00,27.0,18.5,30.04,SE,133,1.0,1.0,70,0.00,,,0.00,VWS V14.01,2013-02-19 12:23:00,
2013-02-19 07:24:00,27.1,19.0,30.04,SE,133,0.0,1.0,71,0.00,,,0.00,VWS V14.01,2013-02-19 12:24:00,
2013-02-19 07:25:00,27.1,19.0,30.04,SE,133,0.0,1.0,71,0.00,,,0.00,VWS V14.01,2013-02-19 12:25:00,
2013-02-19 07:26:00,27.1,19.0,30.04,SE,133,0.0,1.0,71,0.00,,,0.00,VWS V14.01,2013-02-19 12:26:00,
2013-02-19 07:27:00,27.2,19.1,30.04,SE,133,0.0,1.0,71,0.00,,,0.00,VWS V14.01,2013-02-19 12:27:00,
2013-02-19 07:28:00,27.3,19.1,30.04,SE,133,0.0,1.0,71,0.00,,,0.00,VWS V14.01,2013-02-19 12:28:00,
2013-02-19 07:29:00,27.3,19.1,30.04,SE,133,0.0,1.0,71,0.00,,,0.00,VWS V14.01,2013-02-19 12:29:00,
2013-02-19 07:30:00,27.4,19.2,30.04,SE,133,1.0,1.0,71,0.00,,,0.00,VWS V14.01,2013-02-19 12:30:00,
2013-02-19 07:31:00,27.4,19.2,30.04,SE,133,1.0,1.0,71,0.00,,,0.00,VWS V14.01,2013-02-19 12:31:00,
2013-02-19 07:32:00,27.5,19.4,30.04,SE,133,0.0,1.0,71,0.00,,,0.00,VWS V14.01,2013-02-19 12:32:00,
2013-02-19 07:33:00,27.5,19.4,30.04,SE,133,0.0,1.0,71,0.00,,,0.00,VWS V14.01,2013-02-19 12:33:00,
2013-02-19 07:34:00,27.6,19.4,30.04,SE,133,0.0,2.0,71,0.00,,,0.00,VWS V14.01,2013-02-19 12:34:00,
2013-02-19 07:35:00,27.7,19.5,30.04,SE,133,0.0,2.0,71,0.00,,,0.00,VWS V14.01,2013-02-19 12:35:00,
2013-02-19 07:36:00,27.8,19.6,30.04,SE,133,0.0,2.0,71,0.00,,,0.00,VWS V14.01,2013-02-19 12:36:00,
2013-02-19 07:37:00,27.8,19.6,30.04,SE,133,0.0,2.0,71,0.00,,,0.00,VWS V14.01,2013-02-19 12:37:00,
2013-02-19 07:38:00,27.9,20.1,30.04,SE,133,0.0,2.0,72,0.00,,,0.00,VWS V14.01,2013-02-19 12:38:00,
2013-02-19 07:39:00,27.9,19.7,30.04,SE,133,0.0,2.0,71,0.00,,,0.00,VWS V14.01,2013-02-19 12:39:00,
2013-02-19 07:40:00,28.0,20.2,30.04,SE,133,2.0,2.0,72,0.00,,,0.00,VWS V14.01,2013-02-19 12:40:00,
2013-02-19 07:41:00,28.0,20.2,30.04,SE,133,1.0,2.0,72,0.00,,,0.00,VWS V14.01,2013-02-19 12:41:00,
2013-02-19 07:42:00,28.1,20.2,30.04,SE,133,0.0,1.0,72,0.00,,,0.00,VWS V14.01,2013-02-19 12:42:00,
2013-02-19 07:43:00,28.2,20.4,30.04,SE,133,1.0,1.0,72,0.00,,,0.00,VWS V14.01,2013-02-19 12:43:00,
2013-02-19 07:44:00,28.3,20.4,30.04,SE,133,0.0,1.0,72,0.00,,,0.00,VWS V14.01,2013-02-19 12:44:00,
2013-02-19 07:45:00,28.5,20.6,30.03,SE,133,0.0,2.0,72,0.00,,,0.00,VWS V14.01,2013-02-19 12:45:00,
2013-02-19 07:46:00,28.6,20.7,30.03,SE,133,0.0,2.0,72,0.00,,,0.00,VWS V14.01,2013-02-19 12:46:00,
2013-02-19 07:47:00,28.6,20.7,30.03,SE,133,0.0,2.0,72,0.00,,,0.00,VWS V14.01,2013-02-19 12:47:00,
2013-02-19 07:48:00,28.7,20.8,30.03,SE,133,0.0,2.0,72,0.00,,,0.00,VWS V14.01,2013-02-19 12:48:00,
2013-02-19 07:49:00,28.8,20.9,30.03,SE,133,0.0,2.0,72,0.00,,,0.00,VWS V14.01,2013-02-19 12:49:00,
2013-02-19 07:50:00,28.9,21.0,30.03,SE,133,0.0,2.0,72,0.00,,,0.00,VWS V14.01,2013-02-19 12:50:00,
2013-02-19 07:51:00,29.0,21.1,30.03,SE,133,0.0,0.0,72,0.00,,,0.00,VWS V14.01,2013-02-19 12:51:00,
2013-02-19 07:52:00,29.0,21.1,30.03,SE,133,0.0,0.0,72,0.00,,,0.00,VWS V14.01,2013-02-19 12:52:00,
2013-02-19 07:53:00,29.2,21.3,30.03,SE,133,0.0,0.0,72,0.00,,,0.00,VWS V14.01,2013-02-19 12:53:00,
2013-02-19 07:54:00,29.3,21.4,30.03,SE,133,0.0,0.0,72,0.00,,,0.00,VWS V14.01,2013-02-19 12:54:00,
2013-02-19 07:55:00,29.3,21.4,30.03,SE,133,0.0,0.0,72,0.00,,,0.00,VWS V14.01,2013-02-19 12:55:00,
2013-02-19 07:56:00,29.4,21.5,30.03,SE,133,0.0,2.0,72,0.00,,,0.00,VWS V14.01,2013-02-19 12:56:00,
2013-02-19 07:57:00,29.4,21.5,30.03,SE,133,0.0,2.0,72,0.00,,,0.00,VWS V14.01,2013-02-19 12:57:00,
2013-02-19 07:58:00,29.5,21.6,30.03,SE,133,1.0,2.0,72,0.00,,,0.00,VWS V14.01,2013-02-19 12:58:00,
2013-02-19 07:59:00,29.6,21.7,30.03,SE,133,2.0,2.0,72,0.00,,,0.00,VWS V14.01,2013-02-19 12:59:00,
2013-02-19 08:00:00,29.6,21.7,30.01,SE,134,1.0,3.0,72,0.00,,,0.00,VWS V14.01,2013-02-19 13:00:00,
2013-02-19 08:01:00,29.7,21.8,30.01,SE,134,1.0,1.0,72,0.00,,,0.00,VWS V14.01,2013-02-19 13:01:00,
2013-02-19 08:02:00,29.7,21.8,30.01,SE,134,1.0,1.0,72,0.00,,,0.00,VWS V14.01,2013-02-19 13:02:00,
2013-02-19 08:03:00,29.9,22.3,30.01,SE,136,2.0,2.0,73,0.00,,,0.00,VWS V14.01,2013-02-19 13:03:00,
2013-02-19 08:04:00,30.0,22.1,30.01,SE,136,1.0,2.0,72,0.00,,,0.00,VWS V14.01,2013-02-19 13:04:00,
2013-02-19 08:05:00,30.1,22.2,30.01,SSW,209,1.0,4.0,72,0.00,,,0.00,VWS V14.01,2013-02-19 13:05:00,
2013-02-19 08:06:00,30.2,22.3,30.01,SSW,209,0.0,4.0,72,0.00,,,0.00,VWS V14.01,2013-02-19 13:06:00,
2013-02-19 08:07:00,30.2,22.3,30.01,SSW,209,0.0,4.0,72,0.00,,,0.00,VWS V14.01,2013-02-19 13:07:00,
2013-02-19 08:08:00,30.3,22.4,30.01,SSW,209,0.0,4.0,72,0.00,,,0.00,VWS V14.01,2013-02-19 13:08:00,
2013-02-19 08:09:00,30.3,22.4,30.01,SSW,209,1.0,4.0,72,0.00,,,0.00,VWS V14.01,2013-02-19 13:09:00,
2013-02-19 08:10:00,30.4,22.5,30.01,SSW,209,0.0,4.0,72,0.00,,,0.00,VWS V14.01,2013-02-19 13:10:00,
2013-02-19 08:11:00,30.4,22.1,30.01,SSW,209,1.0,1.0,71,0.00,,,0.00,VWS V14.01,2013-02-19 13:11:00,
2013-02-19 08:12:00,30.4,22.1,30.01,SSW,209,1.0,1.0,71,0.00,,,0.00,VWS V14.01,2013-02-19 13:12:00,
2013-02-19 08:13:00,30.5,22.2,30.01,SSW,209,1.0,1.0,71,0.00,,,0.00,VWS V14.01,2013-02-19 13:13:00,
2013-02-19 08:14:00,30.6,22.3,30.01,South,182,1.0,3.0,71,0.00,,,0.00,VWS V14.01,2013-02-19 13:14:00,
2013-02-19 08:15:00,30.6,22.3,30.01,South,182,1.0,3.0,71,0.00,,,0.00,VWS V14.01,2013-02-19 13:15:00,
2013-02-19 08:16:00,30.6,22.3,30.02,SE,146,3.0,5.0,71,0.00,,,0.00,VWS V14.01,2013-02-19 13:16:00,
2013-02-19 08:17:00,30.6,22.0,30.02,NE,40,2.0,5.0,70,0.00,,,0.00,VWS V14.01,2013-02-19 13:17:00,
2013-02-19 08:18:00,30.7,22.1,30.02,SSW,205,4.0,5.0,70,0.00,,,0.00,VWS V14.01,2013-02-19 13:18:00,
2013-02-19 08:19:00,30.7,22.1,30.02,SSW,205,3.0,5.0,70,0.00,,,0.00,VWS V14.01,2013-02-19 13:19:00,
2013-02-19 08:20:00,30.8,22.2,30.02,SSW,197,2.0,5.0,70,0.00,,,0.00,VWS V14.01,2013-02-19 13:20:00,
2013-02-19 08:21:00,30.8,22.2,30.02,SSE,151,1.0,4.0,70,0.00,,,0.00,VWS V14.01,2013-02-19 13:21:00,
2013-02-19 08:22:00,30.9,22.3,30.02,SSE,151,0.0,4.0,70,0.00,,,0.00,VWS V14.01,2013-02-19 13:22:00,
2013-02-19 08:23:00,30.9,22.3,30.02,SSE,151,0.0,4.0,70,0.00,,,0.00,VWS V14.01,2013-02-19 13:23:00,
2013-02-19 08:24:00,31.0,22.4,30.02,SSE,151,0.0,4.0,70,0.00,,,0.00,VWS V14.01,2013-02-19 13:24:00,
2013-02-19 08:25:00,31.0,22.4,30.02,SSE,151,0.0,4.0,70,0.00,,,0.00,VWS V14.01,2013-02-19 13:25:00,
2013-02-19 08:26:00,31.0,22.4,30.02,SSE,151,0.0,4.0,70,0.00,,,0.00,VWS V14.01,2013-02-19 13:26:00,
2013-02-19 08:27:00,31.1,22.5,30.02,SSE,153,3.0,5.0,70,0.00,,,0.00,VWS V14.01,2013-02-19 13:27:00,
2013-02-19 08:28:00,31.1,22.5,30.02,SSE,153,0.0,6.0,70,0.00,,,0.00,VWS V14.01,2013-02-19 13:28:00,
2013-02-19 08:29:00,31.2,22.2,30.02,SSE,153,3.0,6.0,69,0.00,,,0.00,VWS V14.01,2013-02-19 13:29:00,
2013-02-19 08:30:00,31.2,22.2,30.01,SSE,155,3.0,6.0,69,0.00,,,0.00,VWS V14.01,2013-02-19 13:30:00,
2013-02-19 08:31:00,31.2,22.2,30.01,SSE,155,2.0,3.0,69,0.00,,,0.00,VWS V14.01,2013-02-19 13:31:00,
2013-02-19 08:32:00,31.2,22.2,30.01,SSE,155,0.0,3.0,69,0.00,,,0.00,VWS V14.01,2013-02-19 13:32:00,
2013-02-19 08:33:00,31.3,22.3,30.01,SSE,155,2.0,3.0,69,0.00,,,0.00,VWS V14.01,2013-02-19 13:33:00,
2013-02-19 08:34:00,31.3,22.3,30.01,SSE,155,0.0,3.0,69,0.00,,,0.00,VWS V14.01,2013-02-19 13:34:00,
2013-02-19 08:35:00,31.4,22.4,30.01,SSE,155,0.0,4.0,69,0.00,,,0.00,VWS V14.01,2013-02-19 13:35:00,
2013-02-19 08:36:00,31.4,22.4,30.01,SSE,155,0.0,4.0,69,0.00,,,0.00,VWS V14.01,2013-02-19 13:36:00,
2013-02-19 08:37:00,31.4,22.4,30.01,SSE,155,1.0,4.0,69,0.00,,,0.00,VWS V14.01,2013-02-19 13:37:00,
2013-02-19 08:38:00,31.5,22.5,30.01,SSE,159,2.0,5.0,69,0.00,,,0.00,VWS V14.01,2013-02-19 13:38:00,
2013-02-19 08:39:00,31.5,22.5,30.01,SSE,159,6.0,6.0,69,0.00,,,0.00,VWS V14.01,2013-02-19 13:39:00,
2013-02-19 08:40:00,31.6,22.6,30.01,SSE,156,5.0,8.0,69,0.00,,,0.00,VWS V14.01,2013-02-19 13:40:00,
2013-02-19 08:41:00,31.6,22.6,30.01,SSE,156,5.0,8.0,69,0.00,,,0.00,VWS V14.01,2013-02-19 13:41:00,
2013-02-19 08:42:00,31.7,22.4,30.01,SSE,156,2.0,3.0,68,0.00,,,0.00,VWS V14.01,2013-02-19 13:42:00,
2013-02-19 08:43:00,31.7,22.4,30.01,SSE,156,1.0,3.0,68,0.00,,,0.00,VWS V14.01,2013-02-19 13:43:00,
2013-02-19 08:44:00,31.8,22.5,30.01,SSE,156,0.0,3.0,68,0.00,,,0.00,VWS V14.01,2013-02-19 13:44:00,
2013-02-19 08:45:00,31.8,22.5,30.00,SSE,156,1.0,3.0,68,0.00,,,0.00,VWS V14.01,2013-02-19 13:45:00,
2013-02-19 08:46:00,31.9,22.5,30.00,SSE,156,1.0,3.0,68,0.00,,,0.00,VWS V14.01,2013-02-19 13:46:00,
2013-02-19 08:47:00,32.0,23.0,30.00,SSE,156,0.0,3.0,69,0.00,,,0.00,VWS V14.01,2013-02-19 13:47:00,
2013-02-19 08:48:00,32.1,23.1,30.00,SSE,156,1.0,4.0,69,0.00,,,0.00,VWS V14.01,2013-02-19 13:48:00,
2013-02-19 08:49:00,32.1,23.1,30.00,SSE,156,3.0,5.0,69,0.00,,,0.00,VWS V14.01,2013-02-19 13:49:00,
2013-02-19 08:50:00,32.2,22.8,30.00,SSE,156,0.0,5.0,68,0.00,,,0.00,VWS V14.01,2013-02-19 13:50:00,
2013-02-19 08:51:00,32.3,22.9,30.00,SSE,156,0.0,5.0,68,0.00,,,0.00,VWS V14.01,2013-02-19 13:51:00,
2013-02-19 08:52:00,32.3,22.9,30.00,SSE,156,0.0,5.0,68,0.00,,,0.00,VWS V14.01,2013-02-19 13:52:00,
2013-02-19 08:53:00,32.5,23.1,30.00,SSE,156,0.0,1.0,68,0.00,,,0.00,VWS V14.01,2013-02-19 13:53:00,
2013-02-19 08:54:00,32.6,23.2,30.00,SSE,156,2.0,2.0,68,0.00,,,0.00,VWS V14.01,2013-02-19 13:54:00,
2013-02-19 08:55:00,32.7,23.3,30.00,SSE,156,0.0,2.0,68,0.00,,,0.00,VWS V14.01,2013-02-19 13:55:00,
2013-02-19 08:56:00,32.8,23.4,30.00,SSE,156,2.0,3.0,68,0.00,,,0.00,VWS V14.01,2013-02-19 13:56:00,
2013-02-19 08:57:00,32.8,23.4,30.00,SSE,156,2.0,3.0,68,0.00,,,0.00,VWS V14.01,2013-02-19 13:57:00,
2013-02-19 08:58:00,32.9,23.5,30.00,SSE,156,2.0,4.0,68,0.00,,,0.00,VWS V14.01,2013-02-19 13:58:00,
2013-02-19 08:59:00,33.0,23.2,30.00,SSE,156,1.0,4.0,67,0.00,,,0.00,VWS V14.01,2013-02-19 13:59:00,
2013-02-19 09:00:00,33.1,23.4,29.99,SSE,156,2.0,4.0,67,0.00,,,0.00,VWS V14.01,2013-02-19 14:00:00,
2013-02-19 09:01:00,33.2,23.5,29.99,SE,146,4.0,6.0,67,0.00,,,0.00,VWS V14.01,2013-02-19 14:01:00,
2013-02-19 09:02:00,33.2,23.5,29.99,SE,146,4.0,6.0,67,0.00,,,0.00,VWS V14.01,2013-02-19 14:02:00,
2013-02-19 09:03:00,33.3,23.5,29.99,SSE,163,1.0,6.0,67,0.00,,,0.00,VWS V14.01,2013-02-19 14:03:00,
2013-02-19 09:04:00,33.3,23.2,29.99,SSE,163,0.0,6.0,66,0.00,,,0.00,VWS V14.01,2013-02-19 14:04:00,
2013-02-19 09:05:00,33.4,23.3,29.99,SSE,163,0.0,6.0,66,0.00,,,0.00,VWS V14.01,2013-02-19 14:05:00,
2013-02-19 09:06:00,33.4,23.3,29.99,SSE,163,4.0,6.0,66,0.00,,,0.00,VWS V14.01,2013-02-19 14:06:00,
2013-02-19 09:07:00,33.4,23.3,29.99,SSE,163,4.0,6.0,66,0.00,,,0.00,VWS V14.01,2013-02-19 14:07:00,
2013-02-19 09:08:00,33.4,23.3,29.99,SSE,164,3.0,6.0,66,0.00,,,0.00,VWS V14.01,2013-02-19 14:08:00,
2013-02-19 09:09:00,33.5,23.4,29.99,SSE,164,0.0,6.0,66,0.00,,,0.00,VWS V14.01,2013-02-19 14:09:00,
2013-02-19 09:10:00,33.5,23.4,29.99,SSE,164,1.0,6.0,66,0.00,,,0.00,VWS V14.01,2013-02-19 14:10:00,
2013-02-19 09:11:00,33.5,23.4,29.99,SSE,157,6.0,6.0,66,0.00,,,0.00,VWS V14.01,2013-02-19 14:11:00,
2013-02-19 09:12:00,33.5,23.4,29.99,SSE,157,6.0,6.0,66,0.00,,,0.00,VWS V14.01,2013-02-19 14:12:00,
2013-02-19 09:13:00,33.5,23.4,29.99,SSW,196,2.0,6.0,66,0.00,,,0.00,VWS V14.01,2013-02-19 14:13:00,
2013-02-19 09:14:00,33.6,23.5,29.99,SSW,196,1.0,6.0,66,0.00,,,0.00,VWS V14.01,2013-02-19 14:14:00,
2013-02-19 09:15:00,33.6,23.5,29.99,SSW,196,1.0,6.0,66,0.00,,,0.00,VWS V14.01,2013-02-19 14:15:00,
2013-02-19 09:16:00,33.6,23.5,29.98,SE,137,5.0,7.0,66,0.00,,,0.00,VWS V14.01,2013-02-19 14:16:00,
2013-02-19 09:17:00,33.6,23.5,29.98,SE,145,3.0,7.0,66,0.00,,,0.00,VWS V14.01,2013-02-19 14:17:00,
2013-02-19 09:18:00,33.6,23.5,29.98,SE,146,3.0,7.0,66,0.00,,,0.00,VWS V14.01,2013-02-19 14:18:00,
2013-02-19 09:19:00,33.7,23.6,29.98,SE,146,1.0,7.0,66,0.00,,,0.00,VWS V14.01,2013-02-19 14:19:00,
2013-02-19 09:20:00,33.7,23.6,29.98,SE,146,2.0,7.0,66,0.00,,,0.00,VWS V14.01,2013-02-19 14:20:00,
2013-02-19 09:21:00,33.7,23.6,29.98,SE,146,2.0,2.0,66,0.00,,,0.00,VWS V14.01,2013-02-19 14:21:00,
2013-02-19 09:22:00,33.8,23.7,29.98,SSE,152,5.0,5.0,66,0.00,,,0.00,VWS V14.01,2013-02-19 14:22:00,
2013-02-19 09:23:00,33.8,23.7,29.98,SSE,154,1.0,5.0,66,0.00,,,0.00,VWS V14.01,2013-02-19 14:23:00,
2013-02-19 09:24:00,33.8,23.7,29.98,SSE,155,3.0,5.0,66,0.00,,,0.00,VWS V14.01,2013-02-19 14:24:00,
2013-02-19 09:25:00,33.9,23.8,29.98,SSE,155,2.0,5.0,66,0.00,,,0.00,VWS V14.01,2013-02-19 14:25:00,
2013-02-19 09:26:00,33.9,23.8,29.98,SSE,154,1.0,5.0,66,0.00,,,0.00,VWS V14.01,2013-02-19 14:26:00,
2013-02-19 09:27:00,33.9,23.8,29.98,SSE,159,0.0,5.0,66,0.00,,,0.00,VWS V14.01,2013-02-19 14:27:00,
2013-02-19 09:28:00,33.9,24.1,29.98,SSE,159,1.0,5.0,67,0.00,,,0.00,VWS V14.01,2013-02-19 14:28:00,
2013-02-19 09:29:00,34.0,24.2,29.98,SSE,159,0.0,5.0,67,0.00,,,0.00,VWS V14.01,2013-02-19 14:29:00,
2013-02-19 09:30:00,34.0,24.2,29.97,SSE,159,2.0,5.0,67,0.00,,,0.00,VWS V14.01,2013-02-19 14:30:00,
2013-02-19 09:31:00,34.1,24.3,29.97,South,183,5.0,6.0,67,0.00,,,0.00,VWS V14.01,2013-02-19 14:31:00,
2013-02-19 09:32:00,34.1,24.3,29.97,South,182,4.0,6.0,67,0.00,,,0.00,VWS V14.01,2013-02-19 14:32:00,
2013-02-19 09:33:00,34.2,24.4,29.97,SSE,153,0.0,6.0,67,0.00,,,0.00,VWS V14.01,2013-02-19 14:33:00,
2013-02-19 09:34:00,34.2,24.4,29.97,SSE,153,1.0,6.0,67,0.00,,,0.00,VWS V14.01,2013-02-19 14:34:00,
2013-02-19 09:35:00,34.3,24.5,29.97,SSE,153,2.0,6.0,67,0.00,,,0.00,VWS V14.01,2013-02-19 14:35:00,
2013-02-19 09:36:00,34.3,24.5,29.97,SSE,153,2.0,6.0,67,0.00,,,0.00,VWS V14.01,2013-02-19 14:36:00,
2013-02-19 09:37:00,34.4,24.6,29.97,SSE,153,0.0,6.0,67,0.00,,,0.00,VWS V14.01,2013-02-19 14:37:00,
2013-02-19 09:38:00,34.4,24.6,29.97,SSE,153,0.0,6.0,67,0.00,,,0.00,VWS V14.01,2013-02-19 14:38:00,
2013-02-19 09:39:00,34.6,24.8,29.97,SSE,149,1.0,6.0,67,0.00,,,0.00,VWS V14.01,2013-02-19 14:39:00,
2013-02-19 09:40:00,34.7,24.5,29.97,SSE,150,0.0,6.0,66,0.00,,,0.00,VWS V14.01,2013-02-19 14:40:00,
2013-02-19 09:41:00,34.7,24.5,29.97,SSE,150,0.0,6.0,66,0.00,,,0.00,VWS V14.01,2013-02-19 14:41:00,
2013-02-19 09:42:00,34.8,25.0,29.97,SSE,164,2.0,4.0,67,0.00,,,0.00,VWS V14.01,2013-02-19 14:42:00,
2013-02-19 09:43:00,35.0,24.8,29.97,SSE,164,0.0,4.0,66,0.00,,,0.00,VWS V14.01,2013-02-19 14:43:00,
2013-02-19 09:44:00,35.1,24.9,29.97,South,184,3.0,5.0,66,0.00,,,0.00,VWS V14.01,2013-02-19 14:44:00,
2013-02-19 09:45:00,35.2,25.0,29.96,South,186,5.0,5.0,66,0.00,,,0.00,VWS V14.01,2013-02-19 14:45:00,
2013-02-19 09:46:00,35.2,25.0,29.96,South,175,4.0,5.0,66,0.00,,,0.00,VWS V14.01,2013-02-19 14:46:00,
2013-02-19 09:47:00,35.5,25.3,29.96,SSE,151,2.0,5.0,66,0.00,,,0.00,VWS V14.01,2013-02-19 14:47:00,
2013-02-19 09:48:00,35.7,25.5,29.96,SSE,151,5.0,5.0,66,0.00,,,0.00,VWS V14.01,2013-02-19 14:48:00,
2013-02-19 09:49:00,35.9,25.7,29.96,SSE,151,2.0,5.0,66,0.00,,,0.00,VWS V14.01,2013-02-19 14:49:00,
2013-02-19 09:50:00,36.1,25.5,29.96,SSE,151,2.0,5.0,65,0.00,,,0.00,VWS V14.01,2013-02-19 14:50:00,
2013-02-19 09:51:00,36.2,25.6,29.96,SSW,209,5.0,5.0,65,0.00,,,0.00,VWS V14.01,2013-02-19 14:51:00,
2013-02-19 09:52:00,36.5,25.9,29.96,South,182,0.0,8.0,65,0.00,,,0.00,VWS V14.01,2013-02-19 14:52:00,
2013-02-19 09:53:00,36.8,26.1,29.96,SSE,148,3.0,8.0,65,0.00,,,0.00,VWS V14.01,2013-02-19 14:53:00,
2013-02-19 09:54:00,36.8,26.1,29.96,SSE,148,3.0,8.0,65,0.00,,,0.00,VWS V14.01,2013-02-19 14:54:00,
2013-02-19 09:55:00,37.1,26.4,29.96,SSE,154,1.0,8.0,65,0.00,,,0.00,VWS V14.01,2013-02-19 14:55:00,
2013-02-19 09:56:00,37.2,26.5,29.96,South,169,3.0,8.0,65,0.00,,,0.00,VWS V14.01,2013-02-19 14:56:00,
2013-02-19 09:57:00,37.5,26.5,29.96,SSE,160,1.0,8.0,64,0.00,,,0.00,VWS V14.01,2013-02-19 14:57:00,
2013-02-19 09:58:00,37.7,26.6,29.96,SSE,165,0.0,8.0,64,0.00,,,0.00,VWS V14.01,2013-02-19 14:58:00,
2013-02-19 09:59:00,37.8,26.7,29.96,SSE,165,0.0,8.0,64,0.00,,,0.00,VWS V14.01,2013-02-19 14:59:00,
2013-02-19 10:00:00,38.0,26.5,29.94,South,184,3.0,8.0,63,0.00,,,0.00,VWS V14.01,2013-02-19 15:00:00,
2013-02-19 10:01:00,38.0,26.5,29.94,South,184,3.0,8.0,63,0.00,,,0.00,VWS V14.01,2013-02-19 15:01:00,
2013-02-19 10:02:00,38.3,26.8,29.94,South,188,2.0,8.0,63,0.00,,,0.00,VWS V14.01,2013-02-19 15:02:00,
2013-02-19 10:03:00,38.4,26.9,29.94,South,188,3.0,8.0,63,0.00,,,0.00,VWS V14.01,2013-02-19 15:03:00,
2013-02-19 10:04:00,38.5,26.6,29.94,South,180,1.0,8.0,62,0.00,,,0.00,VWS V14.01,2013-02-19 15:04:00,
2013-02-19 10:05:00,38.6,26.7,29.94,West,278,7.0,9.0,62,0.00,,,0.00,VWS V14.01,2013-02-19 15:05:00,
2013-02-19 10:06:00,38.6,26.7,29.94,South,190,11.0,11.0,62,0.00,,,0.00,VWS V14.01,2013-02-19 15:06:00,
2013-02-19 10:07:00,38.6,26.3,29.94,SW,221,7.0,11.0,61,0.00,,,0.00,VWS V14.01,2013-02-19 15:07:00,
2013-02-19 10:08:00,38.6,26.3,29.94,SSW,213,5.0,13.0,61,0.00,,,0.00,VWS V14.01,2013-02-19 15:08:00,
2013-02-19 10:09:00,38.6,26.3,29.94,SW,223,5.0,13.0,61,0.00,,,0.00,VWS V14.01,2013-02-19 15:09:00,
2013-02-19 10:10:00,38.6,26.3,29.94,SSW,198,6.0,13.0,61,0.00,,,0.00,VWS V14.01,2013-02-19 15:10:00,
2013-02-19 10:11:00,38.6,26.3,29.94,SSW,194,0.0,7.0,61,0.00,,,0.00,VWS V14.01,2013-02-19 15:11:00,
2013-02-19 10:12:00,38.6,26.3,29.94,WSW,244,3.0,7.0,61,0.00,,,0.00,VWS V14.01,2013-02-19 15:12:00,
2013-02-19 10:13:00,38.6,26.3,29.94,SW,221,2.0,7.0,61,0.00,,,0.00,VWS V14.01,2013-02-19 15:13:00,
2013-02-19 10:14:00,38.6,26.3,29.94,SW,221,1.0,7.0,61,0.00,,,0.00,VWS V14.01,2013-02-19 15:14:00,
2013-02-19 10:15:00,38.6,26.7,29.95,South,174,4.0,7.0,62,0.00,,,0.00,VWS V14.01,2013-02-19 15:15:00,
2013-02-19 10:16:00,38.6,26.7,29.95,South,174,2.0,7.0,62,0.00,,,0.00,VWS V14.01,2013-02-19 15:16:00,
2013-02-19 10:17:00,38.6,26.3,29.95,South,170,6.0,11.0,61,0.00,,,0.00,VWS V14.01,2013-02-19 15:17:00,
2013-02-19 10:18:00,38.6,26.3,29.95,SW,230,1.0,11.0,61,0.00,,,0.00,VWS V14.01,2013-02-19 15:18:00,
2013-02-19 10:19:00,38.6,26.3,29.95,SW,222,4.0,11.0,61,0.00,,,0.00,VWS V14.01,2013-02-19 15:19:00,
2013-02-19 10:20:00,38.6,26.3,29.95,SSW,192,6.0,11.0,61,0.00,,,0.00,VWS V14.01,2013-02-19 15:20:00,
2013-02-19 10:21:00,38.6,26.3,29.95,South,188,6.0,7.0,61,0.00,,,0.00,VWS V14.01,2013-02-19 15:21:00,
2013-02-19 10:22:00,38.6,26.3,29.95,South,188,6.0,7.0,61,0.00,,,0.00,VWS V14.01,2013-02-19 15:22:00,
2013-02-19 10:23:00,38.5,26.6,29.95,SSW,206,7.0,7.0,62,0.00,,,0.00,VWS V14.01,2013-02-19 15:23:00,
2013-02-19 10:24:00,38.5,26.6,29.95,SSW,206,7.0,7.0,62,0.00,,,0.00,VWS V14.01,2013-02-19 15:24:00,
2013-02-19 10:25:00,38.5,26.6,29.95,SSW,211,3.0,7.0,62,0.00,,,0.00,VWS V14.01,2013-02-19 15:25:00,
2013-02-19 10:26:00,38.5,26.6,29.95,SW,215,7.0,8.0,62,0.00,,,0.00,VWS V14.01,2013-02-19 15:26:00,
2013-02-19 10:27:00,38.5,26.6,29.95,SW,215,7.0,8.0,62,0.00,,,0.00,VWS V14.01,2013-02-19 15:27:00,
2013-02-19 10:28:00,38.5,26.6,29.95,SW,230,3.0,8.0,62,0.00,,,0.00,VWS V14.01,2013-02-19 15:28:00,
2013-02-19 10:29:00,38.4,26.5,29.95,WSW,245,2.0,8.0,62,0.00,,,0.00,VWS V14.01,2013-02-19 15:29:00,
2013-02-19 10:30:00,38.5,26.6,29.95,WSW,239,1.0,8.0,62,0.00,,,0.00,VWS V14.01,2013-02-19 15:30:00,
2013-02-19 10:31:00,38.5,26.6,29.95,South,178,4.0,4.0,62,0.00,,,0.00,VWS V14.01,2013-02-19 15:31:00,
2013-02-19 10:32:00,38.5,26.6,29.95,South,178,4.0,4.0,62,0.00,,,0.00,VWS V14.01,2013-02-19 15:32:00,
2013-02-19 10:33:00,38.5,26.6,29.95,SSW,199,4.0,5.0,62,0.00,,,0.00,VWS V14.01,2013-02-19 15:33:00,
2013-02-19 10:34:00,38.5,26.6,29.95,SSW,204,4.0,6.0,62,0.00,,,0.00,VWS V14.01,2013-02-19 15:34:00,
2013-02-19 10:35:00,38.5,26.6,29.95,SE,144,4.0,9.0,62,0.00,,,0.00,VWS V14.01,2013-02-19 15:35:00,
2013-02-19 10:36:00,38.5,26.6,29.95,South,172,3.0,9.0,62,0.00,,,0.00,VWS V14.01,2013-02-19 15:36:00,
2013-02-19 10:37:00,38.5,26.6,29.95,South,172,3.0,9.0,62,0.00,,,0.00,VWS V14.01,2013-02-19 15:37:00,
2013-02-19 10:38:00,38.5,26.6,29.95,SW,220,2.0,9.0,62,0.00,,,0.00,VWS V14.01,2013-02-19 15:38:00,
2013-02-19 10:39:00,38.6,26.7,29.95,SW,217,6.0,9.0,62,0.00,,,0.00,VWS V14.01,2013-02-19 15:39:00,
2013-02-19 10:40:00,38.6,26.7,29.95,SSW,204,6.0,9.0,62,0.00,,,0.00,VWS V14.01,2013-02-19 15:40:00,
2013-02-19 10:41:00,38.6,26.7,29.95,SSW,208,2.0,7.0,62,0.00,,,0.00,VWS V14.01,2013-02-19 15:41:00,
2013-02-19 10:42:00,38.6,26.7,29.95,SSW,208,2.0,7.0,62,0.00,,,0.00,VWS V14.01,2013-02-19 15:42:00,
2013-02-19 10:43:00,38.7,26.8,29.95,SSW,207,7.0,7.0,62,0.00,,,0.00,VWS V14.01,2013-02-19 15:43:00,
2013-02-19 10:44:00,38.7,26.8,29.95,SW,221,7.0,8.0,62,0.00,,,0.00,VWS V14.01,2013-02-19 15:44:00,
2013-02-19 10:45:00,38.7,26.8,29.94,SW,216,4.0,8.0,62,0.00,,,0.00,VWS V14.01,2013-02-19 15:45:00,
2013-02-19 10:46:00,38.6,26.7,29.94,SSW,192,7.0,9.0,62,0.00,,,0.00,VWS V14.01,2013-02-19 15:46:00,
2013-02-19 10:47:00,38.6,26.7,29.94,SSW,200,8.0,10.0,62,0.00,,,0.00,VWS V14.01,2013-02-19 15:47:00,
2013-02-19 10:48:00,38.6,26.7,29.94,South,188,1.0,10.0,62,0.00,,,0.00,VWS V14.01,2013-02-19 15:48:00,
2013-02-19 10:49:00,38.5,26.6,29.94,South,188,2.0,10.0,62,0.00,,,0.00,VWS V14.01,2013-02-19 15:49:00,
2013-02-19 10:50:00,38.5,26.6,29.94,SSW,207,4.0,10.0,62,0.00,,,0.00,VWS V14.01,2013-02-19 15:50:00,
2013-02-19 10:51:00,38.5,27.0,29.94,South,180,2.0,3.0,63,0.00,,,0.00,VWS V14.01,2013-02-19 15:51:00,
2013-02-19 10:52:00,38.5,27.0,29.94,South,180,2.0,3.0,63,0.00,,,0.00,VWS V14.01,2013-02-19 15:52:00,
2013-02-19 10:53:00,38.5,27.0,29.94,SSW,202,5.0,7.0,63,0.00,,,0.00,VWS V14.01,2013-02-19 15:53:00,
2013-02-19 10:54:00,38.5,27.0,29.94,SSW,205,5.0,7.0,63,0.00,,,0.00,VWS V14.01,2013-02-19 15:54:00,
2013-02-19 10:55:00,38.5,27.0,29.94,SSW,209,3.0,7.0,63,0.00,,,0.00,VWS V14.01,2013-02-19 15:55:00,
2013-02-19 10:56:00,38.5,26.6,29.94,South,190,3.0,7.0,62,0.00,,,0.00,VWS V14.01,2013-02-19 15:56:00,
2013-02-19 10:57:00,38.5,26.6,29.94,South,190,3.0,7.0,62,0.00,,,0.00,VWS V14.01,2013-02-19 15:57:00,
2013-02-19 10:58:00,38.5,27.0,29.94,South,173,5.0,7.0,63,0.00,,,0.00,VWS V14.01,2013-02-19 15:58:00,
2013-02-19 10:59:00,38.6,27.1,29.94,SSW,204,4.0,7.0,63,0.00,,,0.00,VWS V14.01,2013-02-19 15:59:00,
2013-02-19 11:00:00,38.5,27.0,29.94,WSW,251,1.0,7.0,63,0.00,,,0.00,VWS V14.01,2013-02-19 16:00:00,
2013-02-19 11:01:00,38.6,27.1,29.94,SSW,212,4.0,7.0,63,0.00,,,0.00,VWS V14.01,2013-02-19 16:01:00,
2013-02-19 11:02:00,38.6,27.1,29.94,SSW,212,4.0,7.0,63,0.00,,,0.00,VWS V14.01,2013-02-19 16:02:00,
2013-02-19 11:03:00,38.6,27.1,29.94,SSW,197,6.0,10.0,63,0.00,,,0.00,VWS V14.01,2013-02-19 16:03:00,
2013-02-19 11:04:00,38.6,26.7,29.94,SSW,202,5.0,10.0,62,0.00,,,0.00,VWS V14.01,2013-02-19 16:04:00,
2013-02-19 11:05:00,38.6,26.7,29.94,SSW,211,7.0,10.0,62,0.00,,,0.00,VWS V14.01,2013-02-19 16:05:00,
2013-02-19 11:06:00,38.6,26.7,29.94,SSW,205,5.0,10.0,62,0.00,,,0.00,VWS V14.01,2013-02-19 16:06:00,
2013-02-19 11:07:00,38.6,26.7,29.94,SSW,205,5.0,10.0,62,0.00,,,0.00,VWS V14.01,2013-02-19 16:07:00,
2013-02-19 11:08:00,38.6,26.7,29.94,SSW,194,3.0,10.0,62,0.00,,,0.00,VWS V14.01,2013-02-19 16:08:00,
2013-02-19 11:09:00,38.7,26.8,29.94,SSW,207,7.0,10.0,62,0.00,,,0.00,VWS V14.01,2013-02-19 16:09:00,
2013-02-19 11:10:00,38.7,26.8,29.94,South,182,4.0,10.0,62,0.00,,,0.00,VWS V14.01,2013-02-19 16:10:00,
2013-02-19 11:11:00,38.7,26.8,29.94,SW,219,6.0,8.0,62,0.00,,,0.00,VWS V14.01,2013-02-19 16:11:00,
2013-02-19 11:12:00,38.7,26.8,29.94,South,187,7.0,8.0,62,0.00,,,0.00,VWS V14.01,2013-02-19 16:12:00,
2013-02-19 11:13:00,38.7,26.8,29.94,SSW,197,3.0,8.0,62,0.00,,,0.00,VWS V14.01,2013-02-19 16:13:00,
2013-02-19 11:14:00,38.7,26.8,29.94,SSW,199,5.0,8.0,62,0.00,,,0.00,VWS V14.01,2013-02-19 16:14:00,
2013-02-19 11:15:00,38.7,26.8,29.93,SSW,199,4.0,8.0,62,0.00,,,0.00,VWS V14.01,2013-02-19 16:15:00,
2013-02-19 11:16:00,38.7,27.2,29.93,South,185,6.0,8.0,63,0.00,,,0.00,VWS V14.01,2013-02-19 16:16:00,
2013-02-19 11:17:00,38.8,27.3,29.93,SSW,209,3.0,8.0,63,0.00,,,0.00,VWS V14.01,2013-02-19 16:17:00,
2013-02-19 11:18:00,38.8,27.3,29.93,SSW,194,2.0,8.0,63,0.00,,,0.00,VWS V14.01,2013-02-19 16:18:00,
2013-02-19 11:19:00,38.8,27.3,29.93,SSW,211,8.0,8.0,63,0.00,,,0.00,VWS V14.01,2013-02-19 16:19:00,
2013-02-19 11:20:00,38.9,27.4,29.93,SSW,213,4.0,8.0,63,0.00,,,0.00,VWS V14.01,2013-02-19 16:20:00,
2013-02-19 11:21:00,38.8,27.3,29.93,SW,222,4.0,7.0,63,0.00,,,0.00,VWS V14.01,2013-02-19 16:21:00,
2013-02-19 11:22:00,38.9,27.4,29.93,SSW,195,5.0,7.0,63,0.00,,,0.00,VWS V14.01,2013-02-19 16:22:00,
2013-02-19 11:23:00,38.9,27.4,29.93,WNW,287,2.0,7.0,63,0.00,,,0.00,VWS V14.01,2013-02-19 16:23:00,
2013-02-19 11:24:00,38.9,27.4,29.93,SSW,201,6.0,7.0,63,0.00,,,0.00,VWS V14.01,2013-02-19 16:24:00,
2013-02-19 11:25:00,38.9,27.4,29.93,South,184,9.0,9.0,63,0.00,,,0.00,VWS V14.01,2013-02-19 16:25:00,
2013-02-19 11:26:00,38.9,27.4,29.93,South,190,7.0,9.0,63,0.00,,,0.00,VWS V14.01,2013-02-19 16:26:00,
2013-02-19 11:27:00,39.0,27.5,29.93,SSW,199,7.0,9.0,63,0.00,,,0.00,VWS V14.01,2013-02-19 16:27:00,
2013-02-19 11:28:00,39.0,27.5,29.93,SSW,205,8.0,9.0,63,0.00,,,0.00,VWS V14.01,2013-02-19 16:28:00,
2013-02-19 11:29:00,39.1,27.6,29.93,SW,226,5.0,10.0,63,0.00,,,0.00,VWS V14.01,2013-02-19 16:29:00,
2013-02-19 11:30:00,39.0,27.5,29.92,SSW,204,5.0,10.0,63,0.00,,,0.00,VWS V14.01,2013-02-19 16:30:00,
2013-02-19 11:31:00,39.0,27.5,29.92,SW,216,3.0,4.0,63,0.00,,,0.00,VWS V14.01,2013-02-19 16:31:00,
2013-02-19 11:32:00,39.1,27.6,29.92,South,184,4.0,5.0,63,0.00,,,0.00,VWS V14.01,2013-02-19 16:32:00,
2013-02-19 11:33:00,39.1,27.6,29.92,South,173,5.0,6.0,63,0.00,,,0.00,VWS V14.01,2013-02-19 16:33:00,
2013-02-19 11:34:00,39.1,27.6,29.92,SW,234,3.0,7.0,63,0.00,,,0.00,VWS V14.01,2013-02-19 16:34:00,
2013-02-19 11:35:00,39.1,27.6,29.92,SW,234,1.0,7.0,63,0.00,,,0.00,VWS V14.01,2013-02-19 16:35:00,
2013-02-19 11:36:00,39.1,27.6,29.92,SW,233,3.0,7.0,63,0.00,,,0.00,VWS V14.01,2013-02-19 16:36:00,
2013-02-19 11:37:00,39.1,28.0,29.92,SSW,212,10.0,10.0,64,0.00,,,0.00,VWS V14.01,2013-02-19 16:37:00,
2013-02-19 11:38:00,39.1,28.3,29.92,SSW,209,7.0,10.0,65,0.00,,,0.00,VWS V14.01,2013-02-19 16:38:00,
2013-02-19 11:39:00,39.0,28.6,29.92,SSW,210,7.0,10.0,66,0.00,,,0.00,VWS V14.01,2013-02-19 16:39:00,
2013-02-19 11:40:00,38.9,28.9,29.92,SSW,200,3.0,10.0,67,0.00,,,0.00,VWS V14.01,2013-02-19 16:40:00,
2013-02-19 11:41:00,38.9,28.9,29.92,SW,236,1.0,10.0,67,0.00,,,0.00,VWS V14.01,2013-02-19 16:41:00,
2013-02-19 11:42:00,38.8,29.2,29.92,SW,223,2.0,8.0,68,0.00,,,0.00,VWS V14.01,2013-02-19 16:42:00,
2013-02-19 11:43:00,38.7,29.8,29.92,SW,220,7.0,11.0,70,0.00,,,0.00,VWS V14.01,2013-02-19 16:43:00,
2013-02-19 11:44:00,38.6,29.7,29.92,SSW,211,8.0,11.0,70,0.00,,,0.00,VWS V14.01,2013-02-19 16:44:00,
2013-02-19 11:45:00,38.4,30.2,29.92,SSW,207,7.0,11.0,72,0.00,,,0.00,VWS V14.01,2013-02-19 16:45:00,
2013-02-19 11:46:00,38.4,30.2,29.92,SSW,207,7.0,11.0,72,0.00,,,0.00,VWS V14.01,2013-02-19 16:46:00,
2013-02-19 11:47:00,38.2,30.3,29.92,South,169,4.0,11.0,73,0.00,,,0.00,VWS V14.01,2013-02-19 16:47:00,
2013-02-19 11:48:00,38.0,30.1,29.92,South,184,9.0,11.0,73,0.00,,,0.00,VWS V14.01,2013-02-19 16:48:00,
2013-02-19 11:49:00,38.0,30.5,29.92,SSW,211,7.0,11.0,74,0.00,,,0.00,VWS V14.01,2013-02-19 16:49:00,
2013-02-19 11:50:00,37.8,30.3,29.92,SW,221,11.0,11.0,74,0.00,,,0.00,VWS V14.01,2013-02-19 16:50:00,
2013-02-19 11:51:00,37.6,30.4,29.92,SW,215,4.0,7.0,75,0.00,,,0.00,VWS V14.01,2013-02-19 16:51:00,
2013-02-19 11:52:00,37.6,30.4,29.92,SW,215,4.0,7.0,75,0.00,,,0.00,VWS V14.01,2013-02-19 16:52:00,
2013-02-19 11:53:00,37.3,30.4,29.92,South,184,5.0,8.0,76,0.00,,,0.00,VWS V14.01,2013-02-19 16:53:00,
2013-02-19 11:54:00,37.3,30.4,29.92,South,184,5.0,8.0,76,0.00,,,0.00,VWS V14.01,2013-02-19 16:54:00,
2013-02-19 11:55:00,37.0,30.5,29.92,SSW,196,8.0,8.0,77,0.00,,,0.00,VWS V14.01,2013-02-19 16:55:00,
2013-02-19 11:56:00,36.9,30.7,29.92,WSW,247,2.0,8.0,78,0.00,,,0.00,VWS V14.01,2013-02-19 16:56:00,
2013-02-19 11:57:00,36.9,30.7,29.92,WSW,247,2.0,8.0,78,0.00,,,0.00,VWS V14.01,2013-02-19 16:57:00,
2013-02-19 11:58:00,36.6,30.7,29.92,SSW,203,1.0,8.0,79,0.00,,,0.00,VWS V14.01,2013-02-19 16:58:00,
2013-02-19 11:59:00,36.5,30.9,29.92,SSW,206,1.0,8.0,80,0.00,,,0.00,VWS V14.01,2013-02-19 16:59:00,
2013-02-19 12:00:00,36.4,30.8,29.91,SSW,202,4.0,8.0,80,0.00,,,0.00,VWS V14.01,2013-02-19 17:00:00,
2013-02-19 12:01:00,36.3,31.0,29.91,SSW,203,2.0,2.0,81,0.00,,,0.00,VWS V14.01,2013-02-19 17:01:00,
2013-02-19 12:02:00,36.3,31.0,29.91,SSW,203,2.0,2.0,81,0.00,,,0.00,VWS V14.01,2013-02-19 17:02:00,
2013-02-19 12:03:00,36.1,30.8,29.91,SSW,205,4.0,7.0,81,0.01,,,0.01,VWS V14.01,2013-02-19 17:03:00,
2013-02-19 12:04:00,36.0,31.0,29.91,SSW,201,4.0,7.0,82,0.01,,,0.01,VWS V14.01,2013-02-19 17:04:00,
2013-02-19 12:05:00,35.9,31.2,29.91,South,186,5.0,7.0,83,0.01,,,0.01,VWS V14.01,2013-02-19 17:05:00,
2013-02-19 12:06:00,35.9,31.2,29.91,South,175,4.0,7.0,83,0.01,,,0.01,VWS V14.01,2013-02-19 17:06:00,
2013-02-19 12:07:00,35.9,31.2,29.91,South,175,4.0,7.0,83,0.01,,,0.01,VWS V14.01,2013-02-19 17:07:00,
2013-02-19 12:08:00,35.7,31.4,29.91,South,182,7.0,7.0,84,0.01,,,0.01,VWS V14.01,2013-02-19 17:08:00,
2013-02-19 12:09:00,35.6,31.2,29.91,SSW,198,3.0,7.0,84,0.01,,,0.01,VWS V14.01,2013-02-19 17:09:00,
2013-02-19 12:10:00,35.6,31.5,29.91,SW,223,5.0,7.0,85,0.01,,,0.01,VWS V14.01,2013-02-19 17:10:00,
2013-02-19 12:11:00,35.5,31.5,29.91,SSW,213,4.0,6.0,85,0.01,,,0.01,VWS V14.01,2013-02-19 17:11:00,
2013-02-19 12:12:00,35.5,31.5,29.91,SSW,213,4.0,6.0,85,0.01,,,0.01,VWS V14.01,2013-02-19 17:12:00,
2013-02-19 12:13:00,35.5,31.5,29.91,SSW,203,5.0,6.0,85,0.01,,,0.01,VWS V14.01,2013-02-19 17:13:00,
2013-02-19 12:14:00,35.4,31.6,29.91,SSW,198,3.0,6.0,86,0.02,,,0.02,VWS V14.01,2013-02-19 17:14:00,
2013-02-19 12:15:00,35.4,31.6,29.89,SSW,198,4.0,6.0,86,0.02,,,0.02,VWS V14.01,2013-02-19 17:15:00,
2013-02-19 12:16:00,35.3,31.5,29.89,SSW,192,3.0,6.0,86,0.02,,,0.02,VWS V14.01,2013-02-19 17:16:00,
2013-02-19 12:17:00,35.3,31.5,29.89,SSW,192,5.0,6.0,86,0.02,,,0.02,VWS V14.01,2013-02-19 17:17:00,
2013-02-19 12:18:00,35.3,31.8,29.89,South,191,6.0,9.0,87,0.02,,,0.02,VWS V14.01,2013-02-19 17:18:00,
2013-02-19 12:19:00,35.2,31.7,29.89,SSE,163,4.0,9.0,87,0.02,,,0.02,VWS V14.01,2013-02-19 17:19:00,
2013-02-19 12:20:00,35.2,31.7,29.89,South,188,4.0,9.0,87,0.02,,,0.02,VWS V14.01,2013-02-19 17:20:00,
2013-02-19 12:21:00,35.2,31.7,29.89,SW,214,7.0,7.0,87,0.02,,,0.02,VWS V14.01,2013-02-19 17:21:00,
2013-02-19 12:22:00,35.2,31.7,29.89,South,181,2.0,7.0,87,0.02,,,0.02,VWS V14.01,2013-02-19 17:22:00,
2013-02-19 12:23:00,35.1,31.6,29.89,SSW,209,3.0,7.0,87,0.02,,,0.02,VWS V14.01,2013-02-19 17:23:00,
2013-02-19 12:24:00,35.1,31.6,29.89,SSW,205,4.0,7.0,87,0.02,,,0.02,VWS V14.01,2013-02-19 17:24:00,
2013-02-19 12:25:00,35.1,31.9,29.89,SSW,207,2.0,7.0,88,0.02,,,0.02,VWS V14.01,2013-02-19 17:25:00,
2013-02-19 12:26:00,35.1,31.9,29.89,SSW,209,3.0,7.0,88,0.03,,,0.03,VWS V14.01,2013-02-19 17:26:00,
2013-02-19 12:27:00,35.1,31.9,29.89,SSW,209,3.0,7.0,88,0.03,,,0.03,VWS V14.01,2013-02-19 17:27:00,
2013-02-19 12:28:00,35.1,31.9,29.89,South,187,1.0,7.0,88,0.03,,,0.03,VWS V14.01,2013-02-19 17:28:00,
2013-02-19 12:29:00,35.1,31.9,29.89,SSW,210,3.0,7.0,88,0.03,,,0.03,VWS V14.01,2013-02-19 17:29:00,
2013-02-19 12:30:00,35.1,31.9,29.87,SSW,210,3.0,7.0,88,0.03,,,0.03,VWS V14.01,2013-02-19 17:30:00,
2013-02-19 12:31:00,35.0,31.8,29.87,South,189,3.0,9.0,88,0.03,,,0.03,VWS V14.01,2013-02-19 17:31:00,
2013-02-19 12:32:00,35.0,32.1,29.87,SSW,210,4.0,9.0,89,0.03,,,0.03,VWS V14.01,2013-02-19 17:32:00,
2013-02-19 12:33:00,35.1,32.2,29.87,SSW,210,7.0,9.0,89,0.03,,,0.03,VWS V14.01,2013-02-19 17:33:00,
2013-02-19 12:34:00,35.0,32.1,29.87,South,182,7.0,9.0,89,0.03,,,0.03,VWS V14.01,2013-02-19 17:34:00,
2013-02-19 12:35:00,35.0,32.1,29.87,SW,214,8.0,9.0,89,0.03,,,0.03,VWS V14.01,2013-02-19 17:35:00,
2013-02-19 12:36:00,35.1,32.2,29.87,SW,215,3.0,9.0,89,0.03,,,0.03,VWS V14.01,2013-02-19 17:36:00,
2013-02-19 12:37:00,35.1,32.2,29.87,SSW,198,2.0,9.0,89,0.03,,,0.03,VWS V14.01,2013-02-19 17:37:00,
2013-02-19 12:38:00,35.1,32.2,29.87,SW,217,7.0,9.0,89,0.03,,,0.03,VWS V14.01,2013-02-19 17:38:00,
2013-02-19 12:39:00,35.1,32.5,29.87,SSW,207,8.0,9.0,90,0.03,,,0.03,VWS V14.01,2013-02-19 17:39:00,
2013-02-19 12:40:00,35.1,32.5,29.87,South,188,4.0,9.0,90,0.03,,,0.03,VWS V14.01,2013-02-19 17:40:00,
2013-02-19 12:41:00,35.2,32.6,29.87,South,189,5.0,9.0,90,0.03,,,0.03,VWS V14.01,2013-02-19 17:41:00,
2013-02-19 12:42:00,35.2,32.6,29.87,SSW,201,5.0,6.0,90,0.03,,,0.03,VWS V14.01,2013-02-19 17:42:00,
2013-02-19 12:43:00,35.2,32.6,29.87,SSW,194,7.0,7.0,90,0.03,,,0.03,VWS V14.01,2013-02-19 17:43:00,
2013-02-19 12:44:00,35.2,32.6,29.87,SSW,202,5.0,7.0,90,0.03,,,0.03,VWS V14.01,2013-02-19 17:44:00,
2013-02-19 12:45:00,35.2,32.6,29.86,SSW,199,3.0,7.0,90,0.03,,,0.03,VWS V14.01,2013-02-19 17:45:00,
2013-02-19 12:46:00,35.2,32.6,29.86,SSW,207,3.0,7.0,90,0.03,,,0.04,VWS V14.01,2013-02-19 17:46:00,
2013-02-19 12:47:00,35.2,32.6,29.86,SSW,211,4.0,7.0,90,0.04,,,0.04,VWS V14.01,2013-02-19 17:47:00,
2013-02-19 12:48:00,35.2,32.6,29.86,SSW,192,3.0,7.0,90,0.04,,,0.04,VWS V14.01,2013-02-19 17:48:00,
2013-02-19 12:49:00,35.1,32.5,29.86,SSW,192,3.0,7.0,90,0.04,,,0.04,VWS V14.01,2013-02-19 17:49:00,
2013-02-19 12:50:00,35.1,32.5,29.86,SSW,194,1.0,7.0,90,0.04,,,0.04,VWS V14.01,2013-02-19 17:50:00,
2013-02-19 12:51:00,35.1,32.5,29.86,SSW,194,1.0,7.0,90,0.04,,,0.04,VWS V14.01,2013-02-19 17:51:00,
2013-02-19 12:52:00,35.2,32.6,29.86,South,190,6.0,6.0,90,0.04,,,0.04,VWS V14.01,2013-02-19 17:52:00,
2013-02-19 12:53:00,35.2,32.6,29.86,SSW,197,7.0,8.0,90,0.04,,,0.04,VWS V14.01,2013-02-19 17:53:00,
2013-02-19 12:54:00,35.2,32.6,29.86,SSW,208,5.0,8.0,90,0.04,,,0.04,VWS V14.01,2013-02-19 17:54:00,
2013-02-19 12:55:00,35.2,32.6,29.86,SSW,198,6.0,8.0,90,0.04,,,0.04,VWS V14.01,2013-02-19 17:55:00,
2013-02-19 12:56:00,35.2,32.6,29.86,SSW,201,6.0,8.0,90,0.04,,,0.04,VWS V14.01,2013-02-19 17:56:00,
2013-02-19 12:57:00,35.2,32.8,29.86,SSW,197,7.0,8.0,91,0.04,,,0.04,VWS V14.01,2013-02-19 17:57:00,
2013-02-19 12:58:00,35.2,32.8,29.86,SSW,193,5.0,8.0,91,0.04,,,0.04,VWS V14.01,2013-02-19 17:58:00,
2013-02-19 12:59:00,35.2,32.8,29.86,SSW,192,5.0,8.0,91,0.04,,,0.04,VWS V14.01,2013-02-19 17:59:00,
2013-02-19 13:00:00,35.2,32.8,29.84,SSW,212,5.0,8.0,91,0.04,,,0.04,VWS V14.01,2013-02-19 18:00:00,
2013-02-19 13:01:00,35.2,32.8,29.84,SSW,202,5.0,7.0,91,0.04,,,0.04,VWS V14.01,2013-02-19 18:01:00,
2013-02-19 13:02:00,35.2,32.8,29.84,SSW,202,5.0,7.0,91,0.04,,,0.04,VWS V14.01,2013-02-19 18:02:00,
2013-02-19 13:03:00,35.3,32.9,29.84,SSW,202,8.0,10.0,91,0.04,,,0.04,VWS V14.01,2013-02-19 18:03:00,
2013-02-19 13:04:00,35.3,32.9,29.84,SSW,204,4.0,10.0,91,0.04,,,0.04,VWS V14.01,2013-02-19 18:04:00,
2013-02-19 13:05:00,35.3,32.9,29.84,SSW,192,6.0,10.0,91,0.04,,,0.04,VWS V14.01,2013-02-19 18:05:00,
2013-02-19 13:06:00,35.4,33.0,29.84,South,173,7.0,10.0,91,0.04,,,0.04,VWS V14.01,2013-02-19 18:06:00,
2013-02-19 13:07:00,35.4,33.0,29.84,South,173,7.0,10.0,91,0.04,,,0.04,VWS V14.01,2013-02-19 18:07:00,
2013-02-19 13:08:00,35.4,33.0,29.84,SW,232,9.0,10.0,91,0.04,,,0.04,VWS V14.01,2013-02-19 18:08:00,
2013-02-19 13:09:00,35.4,33.0,29.84,SSW,196,7.0,10.0,91,0.04,,,0.04,VWS V14.01,2013-02-19 18:09:00,
2013-02-19 13:10:00,35.4,33.0,29.84,South,173,3.0,10.0,91,0.05,,,0.05,VWS V14.01,2013-02-19 18:10:00,
2013-02-19 13:11:00,35.4,33.0,29.84,SSW,209,5.0,10.0,91,0.04,,,0.05,VWS V14.01,2013-02-19 18:11:00,
2013-02-19 13:12:00,35.4,33.0,29.84,SSW,209,5.0,10.0,91,0.04,,,0.05,VWS V14.01,2013-02-19 18:12:00,
2013-02-19 13:13:00,35.4,33.0,29.84,South,190,4.0,10.0,91,0.04,,,0.05,VWS V14.01,2013-02-19 18:13:00,
2013-02-19 13:14:00,35.4,33.0,29.84,SW,229,4.0,10.0,91,0.04,,,0.05,VWS V14.01,2013-02-19 18:14:00,
2013-02-19 13:15:00,35.4,33.0,29.84,SW,214,3.0,10.0,91,0.04,,,0.05,VWS V14.01,2013-02-19 18:15:00,
2013-02-19 13:16:00,35.4,33.0,29.84,South,179,6.0,10.0,91,0.04,,,0.05,VWS V14.01,2013-02-19 18:16:00,
2013-02-19 13:17:00,35.4,33.0,29.84,South,179,6.0,10.0,91,0.04,,,0.05,VWS V14.01,2013-02-19 18:17:00,
2013-02-19 13:18:00,35.5,33.1,29.84,SW,219,4.0,10.0,91,0.04,,,0.05,VWS V14.01,2013-02-19 18:18:00,
2013-02-19 13:19:00,35.5,33.1,29.84,SSW,208,5.0,10.0,91,0.04,,,0.05,VWS V14.01,2013-02-19 18:19:00,
2013-02-19 13:20:00,35.5,33.1,29.84,SSW,201,5.0,10.0,91,0.05,,,0.06,VWS V14.01,2013-02-19 18:20:00,
2013-02-19 13:21:00,35.5,33.4,29.84,South,189,4.0,7.0,92,0.04,,,0.06,VWS V14.01,2013-02-19 18:21:00,
2013-02-19 13:22:00,35.5,33.4,29.84,South,189,4.0,7.0,92,0.04,,,0.06,VWS V14.01,2013-02-19 18:22:00,
2013-02-19 13:23:00,35.5,33.4,29.84,SSW,205,7.0,10.0,92,0.04,,,0.06,VWS V14.01,2013-02-19 18:23:00,
2013-02-19 13:24:00,35.6,33.5,29.84,SSW,213,7.0,10.0,92,0.04,,,0.06,VWS V14.01,2013-02-19 18:24:00,
2013-02-19 13:25:00,35.6,33.5,29.84,SSW,204,7.0,10.0,92,0.04,,,0.06,VWS V14.01,2013-02-19 18:25:00,
2013-02-19 13:26:00,35.6,33.5,29.84,SW,216,4.0,10.0,92,0.04,,,0.06,VWS V14.01,2013-02-19 18:26:00,
2013-02-19 13:27:00,35.6,33.5,29.84,SW,216,4.0,10.0,92,0.04,,,0.06,VWS V14.01,2013-02-19 18:27:00,
2013-02-19 13:28:00,35.7,33.6,29.84,South,174,4.0,10.0,92,0.04,,,0.06,VWS V14.01,2013-02-19 18:28:00,
2013-02-19 13:29:00,35.7,33.6,29.84,SSW,203,7.0,11.0,92,0.04,,,0.06,VWS V14.01,2013-02-19 18:29:00,
2013-02-19 13:30:00,35.7,33.6,29.82,SSW,192,5.0,11.0,92,0.04,,,0.06,VWS V14.01,2013-02-19 18:30:00,
2013-02-19 13:31:00,35.8,33.7,29.82,SSW,195,4.0,5.0,92,0.03,,,0.06,VWS V14.01,2013-02-19 18:31:00,
2013-02-19 13:32:00,35.8,33.7,29.82,SSW,195,4.0,5.0,92,0.03,,,0.06,VWS V14.01,2013-02-19 18:32:00,
2013-02-19 13:33:00,35.9,33.8,29.82,SSW,193,7.0,8.0,92,0.03,,,0.06,VWS V14.01,2013-02-19 18:33:00,
2013-02-19 13:34:00,35.9,33.8,29.82,SSW,198,10.0,10.0,92,0.03,,,0.06,VWS V14.01,2013-02-19 18:34:00,
2013-02-19 13:35:00,35.9,33.8,29.82,SSW,206,7.0,10.0,92,0.03,,,0.07,VWS V14.01,2013-02-19 18:35:00,
2013-02-19 13:36:00,35.9,33.8,29.82,SSW,198,7.0,10.0,92,0.04,,,0.07,VWS V14.01,2013-02-19 18:36:00,
2013-02-19 13:37:00,35.9,33.8,29.82,SSW,198,7.0,10.0,92,0.04,,,0.07,VWS V14.01,2013-02-19 18:37:00,
2013-02-19 13:38:00,35.9,33.8,29.82,South,175,5.0,10.0,92,0.04,,,0.07,VWS V14.01,2013-02-19 18:38:00,
2013-02-19 13:39:00,35.9,33.8,29.82,SW,217,3.0,10.0,92,0.04,,,0.07,VWS V14.01,2013-02-19 18:39:00,
2013-02-19 13:40:00,36.0,33.9,29.82,South,189,5.0,10.0,92,0.04,,,0.07,VWS V14.01,2013-02-19 18:40:00,
2013-02-19 13:41:00,36.0,33.9,29.82,SSW,198,6.0,6.0,92,0.04,,,0.07,VWS V14.01,2013-02-19 18:41:00,
2013-02-19 13:42:00,36.0,33.9,29.82,SSW,209,5.0,6.0,92,0.04,,,0.07,VWS V14.01,2013-02-19 18:42:00,
2013-02-19 13:43:00,36.0,33.9,29.82,SW,214,5.0,6.0,92,0.04,,,0.07,VWS V14.01,2013-02-19 18:43:00,
2013-02-19 13:44:00,36.0,33.9,29.82,SW,214,4.0,6.0,92,0.04,,,0.07,VWS V14.01,2013-02-19 18:44:00,
2013-02-19 13:45:00,36.0,33.9,29.81,SW,214,4.0,7.0,92,0.04,,,0.07,VWS V14.01,2013-02-19 18:45:00,
2013-02-19 13:46:00,36.0,33.9,29.81,SW,214,0.0,7.0,92,0.04,,,0.07,VWS V14.01,2013-02-19 18:46:00,
2013-02-19 13:47:00,36.0,33.9,29.81,SSW,213,4.0,7.0,92,0.04,,,0.07,VWS V14.01,2013-02-19 18:47:00,
2013-02-19 13:48:00,36.0,33.9,29.81,SSW,200,6.0,7.0,92,0.04,,,0.07,VWS V14.01,2013-02-19 18:48:00,
2013-02-19 13:49:00,36.0,33.9,29.81,SSW,201,6.0,7.0,92,0.04,,,0.08,VWS V14.01,2013-02-19 18:49:00,
2013-02-19 13:50:00,36.0,33.9,29.81,South,180,2.0,7.0,92,0.05,,,0.08,VWS V14.01,2013-02-19 18:50:00,
2013-02-19 13:51:00,36.0,33.9,29.81,SSW,204,5.0,5.0,92,0.04,,,0.08,VWS V14.01,2013-02-19 18:51:00,
2013-02-19 13:52:00,36.0,33.9,29.81,SSW,204,5.0,5.0,92,0.04,,,0.08,VWS V14.01,2013-02-19 18:52:00,
2013-02-19 13:53:00,36.0,33.9,29.81,South,172,3.0,6.0,92,0.04,,,0.08,VWS V14.01,2013-02-19 18:53:00,
2013-02-19 13:54:00,36.0,33.9,29.81,SSW,194,5.0,7.0,92,0.04,,,0.08,VWS V14.01,2013-02-19 18:54:00,
2013-02-19 13:55:00,36.1,34.0,29.81,South,182,4.0,7.0,92,0.04,,,0.08,VWS V14.01,2013-02-19 18:55:00,
2013-02-19 13:56:00,36.1,34.0,29.81,South,180,7.0,7.0,92,0.04,,,0.08,VWS V14.01,2013-02-19 18:56:00,
2013-02-19 13:57:00,36.1,34.0,29.81,South,180,7.0,7.0,92,0.04,,,0.08,VWS V14.01,2013-02-19 18:57:00,
2013-02-19 13:58:00,36.1,34.0,29.81,SSW,200,5.0,7.0,92,0.04,,,0.08,VWS V14.01,2013-02-19 18:58:00,
2013-02-19 13:59:00,36.1,34.0,29.81,South,176,3.0,10.0,92,0.04,,,0.08,VWS V14.01,2013-02-19 18:59:00,
2013-02-19 14:00:00,36.1,34.0,29.81,SSW,200,5.0,10.0,92,0.05,,,0.09,VWS V14.01,2013-02-19 19:00:00,
2013-02-19 14:01:00,36.1,34.0,29.81,SSW,193,2.0,4.0,92,0.05,,,0.09,VWS V14.01,2013-02-19 19:01:00,
2013-02-19 14:02:00,36.1,34.0,29.81,SSW,193,2.0,4.0,92,0.05,,,0.09,VWS V14.01,2013-02-19 19:02:00,
2013-02-19 14:03:00,36.2,34.1,29.81,SSW,202,2.0,4.0,92,0.05,,,0.09,VWS V14.01,2013-02-19 19:03:00,
2013-02-19 14:04:00,36.2,34.1,29.81,SSW,195,4.0,4.0,92,0.05,,,0.09,VWS V14.01,2013-02-19 19:04:00,
2013-02-19 14:05:00,36.2,34.1,29.81,SSW,208,7.0,7.0,92,0.05,,,0.09,VWS V14.01,2013-02-19 19:05:00,
2013-02-19 14:06:00,36.2,34.1,29.81,South,178,4.0,7.0,92,0.05,,,0.09,VWS V14.01,2013-02-19 19:06:00,
2013-02-19 14:07:00,36.2,34.1,29.81,South,178,4.0,7.0,92,0.05,,,0.09,VWS V14.01,2013-02-19 19:07:00,
2013-02-19 14:08:00,36.2,34.1,29.81,South,180,6.0,7.0,92,0.05,,,0.09,VWS V14.01,2013-02-19 19:08:00,
2013-02-19 14:09:00,36.2,34.1,29.81,SW,219,7.0,7.0,92,0.05,,,0.09,VWS V14.01,2013-02-19 19:09:00,
2013-02-19 14:10:00,36.2,34.1,29.81,SSW,204,5.0,7.0,92,0.06,,,0.10,VWS V14.01,2013-02-19 19:10:00,
2013-02-19 14:11:00,36.2,34.1,29.81,SSW,197,6.0,7.0,92,0.05,,,0.10,VWS V14.01,2013-02-19 19:11:00,
2013-02-19 14:12:00,36.2,34.1,29.81,SSW,197,6.0,7.0,92,0.05,,,0.10,VWS V14.01,2013-02-19 19:12:00,
2013-02-19 14:13:00,36.3,34.2,29.81,South,187,6.0,7.0,92,0.05,,,0.10,VWS V14.01,2013-02-19 19:13:00,
2013-02-19 14:14:00,36.3,34.2,29.81,SSW,211,5.0,7.0,92,0.05,,,0.10,VWS V14.01,2013-02-19 19:14:00,
2013-02-19 14:15:00,36.3,34.2,29.79,SSW,211,5.0,7.0,92,0.05,,,0.10,VWS V14.01,2013-02-19 19:15:00,
2013-02-19 14:16:00,36.3,34.2,29.79,SSW,202,2.0,7.0,92,0.05,,,0.10,VWS V14.01,2013-02-19 19:16:00,
2013-02-19 14:17:00,36.3,34.2,29.79,SSW,202,2.0,7.0,92,0.05,,,0.10,VWS V14.01,2013-02-19 19:17:00,
2013-02-19 14:18:00,36.3,34.2,29.79,SSW,205,3.0,7.0,92,0.05,,,0.10,VWS V14.01,2013-02-19 19:18:00,
2013-02-19 14:19:00,36.3,34.2,29.79,South,184,2.0,7.0,92,0.05,,,0.10,VWS V14.01,2013-02-19 19:19:00,
2013-02-19 14:20:00,36.4,34.3,29.79,South,184,3.0,7.0,92,0.05,,,0.10,VWS V14.01,2013-02-19 19:20:00,
2013-02-19 14:21:00,36.4,34.3,29.79,South,184,2.0,3.0,92,0.04,,,0.10,VWS V14.01,2013-02-19 19:21:00,
2013-02-19 14:22:00,36.4,34.3,29.79,South,184,2.0,3.0,92,0.04,,,0.10,VWS V14.01,2013-02-19 19:22:00,
2013-02-19 14:23:00,36.4,34.3,29.79,South,186,3.0,3.0,92,0.04,,,0.10,VWS V14.01,2013-02-19 19:23:00,
2013-02-19 14:24:00,36.4,34.3,29.79,South,188,8.0,8.0,92,0.04,,,0.10,VWS V14.01,2013-02-19 19:24:00,
2013-02-19 14:25:00,36.4,34.3,29.79,South,188,4.0,8.0,92,0.04,,,0.10,VWS V14.01,2013-02-19 19:25:00,
2013-02-19 14:26:00,36.5,34.4,29.79,SSW,196,4.0,8.0,92,0.04,,,0.10,VWS V14.01,2013-02-19 19:26:00,
2013-02-19 14:27:00,36.5,34.4,29.79,SSW,196,3.0,8.0,92,0.05,,,0.11,VWS V14.01,2013-02-19 19:27:00,
2013-02-19 14:28:00,36.5,34.4,29.79,South,186,4.0,8.0,92,0.05,,,0.11,VWS V14.01,2013-02-19 19:28:00,
2013-02-19 14:29:00,36.5,34.7,29.79,South,184,4.0,8.0,93,0.05,,,0.11,VWS V14.01,2013-02-19 19:29:00,
2013-02-19 14:30:00,36.5,34.7,29.78,SSW,192,5.0,8.0,93,0.05,,,0.11,VWS V14.01,2013-02-19 19:30:00,
2013-02-19 14:31:00,36.5,34.7,29.78,SW,223,7.0,7.0,93,0.05,,,0.11,VWS V14.01,2013-02-19 19:31:00,
2013-02-19 14:32:00,36.5,34.7,29.78,SW,216,3.0,7.0,93,0.05,,,0.11,VWS V14.01,2013-02-19 19:32:00,
2013-02-19 14:33:00,36.6,34.8,29.78,SSW,212,3.0,7.0,93,0.05,,,0.11,VWS V14.01,2013-02-19 19:33:00,
2013-02-19 14:34:00,36.6,34.8,29.78,SSW,213,3.0,7.0,93,0.05,,,0.11,VWS V14.01,2013-02-19 19:34:00,
2013-02-19 14:35:00,36.6,34.8,29.78,SW,214,4.0,7.0,93,0.05,,,0.11,VWS V14.01,2013-02-19 19:35:00,
2013-02-19 14:36:00,36.6,34.8,29.78,SSW,198,5.0,7.0,93,0.05,,,0.11,VWS V14.01,2013-02-19 19:36:00,
2013-02-19 14:37:00,36.6,34.8,29.78,SSW,205,4.0,7.0,93,0.06,,,0.12,VWS V14.01,2013-02-19 19:37:00,
2013-02-19 14:38:00,36.6,34.8,29.78,SW,217,2.0,7.0,93,0.06,,,0.12,VWS V14.01,2013-02-19 19:38:00,
2013-02-19 14:39:00,36.6,34.8,29.78,SSW,206,4.0,7.0,93,0.06,,,0.12,VWS V14.01,2013-02-19 19:39:00,
2013-02-19 14:40:00,36.7,34.9,29.78,SSW,213,4.0,7.0,93,0.06,,,0.12,VWS V14.01,2013-02-19 19:40:00,
2013-02-19 14:41:00,36.7,34.9,29.78,SSW,213,4.0,4.0,93,0.05,,,0.12,VWS V14.01,2013-02-19 19:41:00,
2013-02-19 14:42:00,36.7,34.9,29.78,SSW,196,5.0,5.0,93,0.05,,,0.12,VWS V14.01,2013-02-19 19:42:00,
2013-02-19 14:43:00,36.7,34.9,29.78,SSW,213,7.0,7.0,93,0.05,,,0.12,VWS V14.01,2013-02-19 19:43:00,
2013-02-19 14:44:00,36.7,34.9,29.78,SSW,207,2.0,7.0,93,0.05,,,0.12,VWS V14.01,2013-02-19 19:44:00,
2013-02-19 14:45:00,36.8,35.0,29.77,SSW,202,4.0,7.0,93,0.06,,,0.13,VWS V14.01,2013-02-19 19:45:00,
2013-02-19 14:46:00,36.8,35.0,29.77,SW,236,8.0,8.0,93,0.06,,,0.13,VWS V14.01,2013-02-19 19:46:00,
2013-02-19 14:47:00,36.8,35.0,29.77,SSW,204,2.0,8.0,93,0.06,,,0.13,VWS V14.01,2013-02-19 19:47:00,
2013-02-19 14:48:00,36.8,35.0,29.77,SSW,204,4.0,8.0,93,0.06,,,0.13,VWS V14.01,2013-02-19 19:48:00,
2013-02-19 14:49:00,36.8,35.0,29.77,SSW,198,5.0,8.0,93,0.06,,,0.13,VWS V14.01,2013-02-19 19:49:00,
2013-02-19 14:50:00,36.8,35.0,29.77,SSW,193,2.0,8.0,93,0.06,,,0.13,VWS V14.01,2013-02-19 19:50:00,
2013-02-19 14:51:00,36.9,35.1,29.77,SW,218,4.0,5.0,93,0.05,,,0.13,VWS V14.01,2013-02-19 19:51:00,
2013-02-19 14:52:00,36.9,35.1,29.77,SW,220,3.0,5.0,93,0.05,,,0.13,VWS V14.01,2013-02-19 19:52:00,
2013-02-19 14:53:00,36.9,35.1,29.77,SW,219,4.0,5.0,93,0.05,,,0.13,VWS V14.01,2013-02-19 19:53:00,
2013-02-19 14:54:00,36.9,35.1,29.77,SSW,198,2.0,5.0,93,0.05,,,0.13,VWS V14.01,2013-02-19 19:54:00,
2013-02-19 14:55:00,36.9,35.1,29.77,SSW,198,2.0,5.0,93,0.05,,,0.13,VWS V14.01,2013-02-19 19:55:00,
2013-02-19 14:56:00,36.9,35.1,29.77,SSW,198,1.0,5.0,93,0.05,,,0.13,VWS V14.01,2013-02-19 19:56:00,
2013-02-19 14:57:00,36.9,35.1,29.77,South,184,1.0,5.0,93,0.05,,,0.13,VWS V14.01,2013-02-19 19:57:00,
2013-02-19 14:58:00,37.0,35.2,29.77,South,190,4.0,5.0,93,0.05,,,0.13,VWS V14.01,2013-02-19 19:58:00,
2013-02-19 14:59:00,37.0,35.2,29.77,South,190,4.0,5.0,93,0.05,,,0.13,VWS V14.01,2013-02-19 19:59:00,
2013-02-19 15:00:00,37.0,35.2,29.76,SSW,194,3.0,5.0,93,0.05,,,0.13,VWS V14.01,2013-02-19 20:00:00,
2013-02-19 15:01:00,37.0,35.2,29.76,SSW,200,4.0,5.0,93,0.05,,,0.14,VWS V14.01,2013-02-19 20:01:00,
2013-02-19 15:02:00,37.1,35.3,29.76,SSW,192,5.0,6.0,93,0.06,,,0.14,VWS V14.01,2013-02-19 20:02:00,
2013-02-19 15:03:00,37.1,35.3,29.76,SSW,202,2.0,7.0,93,0.06,,,0.14,VWS V14.01,2013-02-19 20:03:00,
2013-02-19 15:04:00,37.1,35.3,29.76,South,191,2.0,7.0,93,0.06,,,0.14,VWS V14.01,2013-02-19 20:04:00,
2013-02-19 15:05:00,37.2,35.4,29.76,WSW,240,3.0,7.0,93,0.06,,,0.14,VWS V14.01,2013-02-19 20:05:00,
2013-02-19 15:06:00,37.2,35.4,29.76,WSW,240,4.0,7.0,93,0.06,,,0.14,VWS V14.01,2013-02-19 20:06:00,
2013-02-19 15:07:00,37.3,35.5,29.76,SSW,207,3.0,7.0,93,0.06,,,0.14,VWS V14.01,2013-02-19 20:07:00,
2013-02-19 15:08:00,37.3,35.5,29.76,SSW,212,5.0,7.0,93,0.06,,,0.14,VWS V14.01,2013-02-19 20:08:00,
2013-02-19 15:09:00,37.3,35.5,29.76,SSW,203,2.0,7.0,93,0.06,,,0.14,VWS V14.01,2013-02-19 20:09:00,
2013-02-19 15:10:00,37.3,35.5,29.76,SSW,203,2.0,7.0,93,0.06,,,0.14,VWS V14.01,2013-02-19 20:10:00,
2013-02-19 15:11:00,37.4,35.6,29.76,SW,215,6.0,6.0,93,0.04,,,0.14,VWS V14.01,2013-02-19 20:11:00,
2013-02-19 15:12:00,37.4,35.6,29.76,SW,215,6.0,6.0,93,0.04,,,0.14,VWS V14.01,2013-02-19 20:12:00,
2013-02-19 15:13:00,37.4,35.6,29.76,SSW,194,3.0,6.0,93,0.04,,,0.14,VWS V14.01,2013-02-19 20:13:00,
2013-02-19 15:14:00,37.4,35.6,29.76,SSW,194,3.0,6.0,93,0.04,,,0.14,VWS V14.01,2013-02-19 20:14:00,
2013-02-19 15:15:00,37.5,35.7,29.76,SW,221,2.0,6.0,93,0.04,,,0.14,VWS V14.01,2013-02-19 20:15:00,
2013-02-19 15:16:00,37.5,35.7,29.76,South,188,1.0,6.0,93,0.04,,,0.14,VWS V14.01,2013-02-19 20:16:00,
2013-02-19 15:17:00,37.5,35.7,29.76,South,188,1.0,6.0,93,0.04,,,0.14,VWS V14.01,2013-02-19 20:17:00,
2013-02-19 15:18:00,37.6,35.8,29.76,SSW,192,1.0,6.0,93,0.04,,,0.14,VWS V14.01,2013-02-19 20:18:00,
2013-02-19 15:19:00,37.6,35.8,29.76,SSE,157,2.0,6.0,93,0.04,,,0.14,VWS V14.01,2013-02-19 20:19:00,
2013-02-19 15:20:00,37.7,35.9,29.76,SW,228,2.0,6.0,93,0.04,,,0.14,VWS V14.01,2013-02-19 20:20:00,
2013-02-19 15:21:00,37.7,35.9,29.76,SSW,205,4.0,10.0,93,0.04,,,0.14,VWS V14.01,2013-02-19 20:21:00,
2013-02-19 15:22:00,37.7,35.9,29.76,SSW,205,4.0,10.0,93,0.04,,,0.14,VWS V14.01,2013-02-19 20:22:00,
2013-02-19 15:23:00,37.8,36.2,29.76,South,181,0.0,10.0,94,0.04,,,0.14,VWS V14.01,2013-02-19 20:23:00,
2013-02-19 15:24:00,37.8,36.2,29.76,SSW,194,3.0,10.0,94,0.04,,,0.14,VWS V14.01,2013-02-19 20:24:00,
2013-02-19 15:25:00,37.8,36.2,29.76,SW,223,4.0,10.0,94,0.04,,,0.14,VWS V14.01,2013-02-19 20:25:00,
2013-02-19 15:26:00,37.8,36.2,29.76,SW,215,4.0,10.0,94,0.04,,,0.14,VWS V14.01,2013-02-19 20:26:00,
2013-02-19 15:27:00,37.8,36.2,29.76,SW,215,4.0,10.0,94,0.04,,,0.14,VWS V14.01,2013-02-19 20:27:00,
2013-02-19 15:28:00,37.9,36.3,29.76,South,188,6.0,10.0,94,0.04,,,0.14,VWS V14.01,2013-02-19 20:28:00,
2013-02-19 15:29:00,37.9,36.3,29.76,SSW,202,5.0,10.0,94,0.04,,,0.14,VWS V14.01,2013-02-19 20:29:00,
2013-02-19 15:30:00,37.9,36.3,29.75,SSW,202,5.0,10.0,94,0.04,,,0.14,VWS V14.01,2013-02-19 20:30:00,
2013-02-19 15:31:00,37.9,36.3,29.75,WSW,242,5.0,5.0,94,0.03,,,0.14,VWS V14.01,2013-02-19 20:31:00,
2013-02-19 15:32:00,37.9,36.3,29.75,WSW,242,5.0,5.0,94,0.03,,,0.14,VWS V14.01,2013-02-19 20:32:00,
2013-02-19 15:33:00,38.0,36.4,29.75,South,186,4.0,9.0,94,0.03,,,0.14,VWS V14.01,2013-02-19 20:33:00,
2013-02-19 15:34:00,38.0,36.4,29.75,SSW,201,6.0,9.0,94,0.03,,,0.14,VWS V14.01,2013-02-19 20:34:00,
2013-02-19 15:35:00,38.0,36.4,29.75,SSW,204,3.0,9.0,94,0.03,,,0.14,VWS V14.01,2013-02-19 20:35:00,
2013-02-19 15:36:00,38.0,36.4,29.75,SSW,202,4.0,9.0,94,0.03,,,0.14,VWS V14.01,2013-02-19 20:36:00,
2013-02-19 15:37:00,38.1,36.5,29.75,SSW,196,7.0,9.0,94,0.03,,,0.14,VWS V14.01,2013-02-19 20:37:00,
2013-02-19 15:38:00,38.1,36.5,29.75,WSW,253,6.0,9.0,94,0.03,,,0.14,VWS V14.01,2013-02-19 20:38:00,
2013-02-19 15:39:00,38.1,36.5,29.75,South,184,7.0,9.0,94,0.03,,,0.14,VWS V14.01,2013-02-19 20:39:00,
2013-02-19 15:40:00,38.2,36.6,29.75,SSW,211,6.0,9.0,94,0.03,,,0.14,VWS V14.01,2013-02-19 20:40:00,
2013-02-19 15:41:00,38.2,36.6,29.75,SSW,198,4.0,6.0,94,0.02,,,0.14,VWS V14.01,2013-02-19 20:41:00,
2013-02-19 15:42:00,38.2,36.6,29.75,SSW,192,4.0,6.0,94,0.02,,,0.14,VWS V14.01,2013-02-19 20:42:00,
2013-02-19 15:43:00,38.2,36.6,29.75,SSW,200,1.0,6.0,94,0.02,,,0.14,VWS V14.01,2013-02-19 20:43:00,
2013-02-19 15:44:00,38.2,36.6,29.74,SSW,203,5.0,6.0,94,0.02,,,0.14,VWS V14.01,2013-02-19 20:44:00,
2013-02-19 15:45:00,38.2,36.6,29.74,SSW,209,4.0,6.0,94,0.02,,,0.14,VWS V14.01,2013-02-19 20:45:00,
2013-02-19 15:46:00,38.2,36.6,29.74,SSW,204,2.0,6.0,94,0.02,,,0.14,VWS V14.01,2013-02-19 20:46:00,
2013-02-19 15:47:00,38.2,36.6,29.74,SSW,204,0.0,6.0,94,0.02,,,0.14,VWS V14.01,2013-02-19 20:47:00,
2013-02-19 15:48:00,38.2,36.6,29.74,SSW,204,0.0,6.0,94,0.02,,,0.14,VWS V14.01,2013-02-19 20:48:00,
2013-02-19 15:49:00,38.2,36.6,29.74,SSW,204,4.0,6.0,94,0.02,,,0.14,VWS V14.01,2013-02-19 20:49:00,
2013-02-19 15:50:00,38.3,36.7,29.74,SSW,193,3.0,6.0,94,0.03,,,0.15,VWS V14.01,2013-02-19 20:50:00,
2013-02-19 15:51:00,38.3,36.7,29.74,SSW,213,5.0,5.0,94,0.02,,,0.15,VWS V14.01,2013-02-19 20:51:00,
2013-02-19 15:52:00,38.3,36.7,29.74,SSW,213,5.0,5.0,94,0.02,,,0.15,VWS V14.01,2013-02-19 20:52:00,
2013-02-19 15:53:00,38.3,36.7,29.74,SW,214,6.0,6.0,94,0.02,,,0.15,VWS V14.01,2013-02-19 20:53:00,
2013-02-19 15:54:00,38.3,36.7,29.74,South,187,3.0,6.0,94,0.02,,,0.15,VWS V14.01,2013-02-19 20:54:00,
2013-02-19 15:55:00,38.3,36.7,29.74,SSW,208,4.0,6.0,94,0.02,,,0.15,VWS V14.01,2013-02-19 20:55:00,
2013-02-19 15:56:00,38.3,36.7,29.74,SSW,207,0.0,6.0,94,0.02,,,0.15,VWS V14.01,2013-02-19 20:56:00,
2013-02-19 15:57:00,38.3,36.7,29.74,SSW,207,0.0,6.0,94,0.02,,,0.15,VWS V14.01,2013-02-19 20:57:00,
2013-02-19 15:58:00,38.3,36.7,29.74,SSW,202,3.0,6.0,94,0.02,,,0.15,VWS V14.01,2013-02-19 20:58:00,
2013-02-19 15:59:00,38.3,36.7,29.74,SSW,202,2.0,6.0,94,0.02,,,0.15,VWS V14.01,2013-02-19 20:59:00,
2013-02-19 16:00:00,38.3,36.7,29.73,SSW,202,1.0,6.0,94,0.02,,,0.15,VWS V14.01,2013-02-19 21:00:00,
2013-02-19 16:01:00,38.4,36.8,29.73,SSW,202,3.0,3.0,94,0.01,,,0.15,VWS V14.01,2013-02-19 21:01:00,
2013-02-19 16:02:00,38.4,36.8,29.73,SSW,202,3.0,3.0,94,0.01,,,0.15,VWS V14.01,2013-02-19 21:02:00,
2013-02-19 16:03:00,38.4,36.8,29.73,SW,225,0.0,4.0,94,0.01,,,0.15,VWS V14.01,2013-02-19 21:03:00,
2013-02-19 16:04:00,38.4,36.8,29.73,SW,223,1.0,4.0,94,0.01,,,0.15,VWS V14.01,2013-02-19 21:04:00,
2013-02-19 16:05:00,38.4,36.8,29.73,SW,223,1.0,4.0,94,0.01,,,0.15,VWS V14.01,2013-02-19 21:05:00,
2013-02-19 16:06:00,38.4,36.8,29.73,SW,223,0.0,4.0,94,0.01,,,0.15,VWS V14.01,2013-02-19 21:06:00,
2013-02-19 16:07:00,38.4,36.8,29.73,SW,223,0.0,4.0,94,0.01,,,0.15,VWS V14.01,2013-02-19 21:07:00,
2013-02-19 16:08:00,38.4,36.8,29.73,SW,222,1.0,5.0,94,0.01,,,0.15,VWS V14.01,2013-02-19 21:08:00,
2013-02-19 16:09:00,38.4,36.8,29.73,SW,222,0.0,5.0,94,0.01,,,0.15,VWS V14.01,2013-02-19 21:09:00,
2013-02-19 16:10:00,38.4,36.8,29.73,SW,222,3.0,5.0,94,0.01,,,0.15,VWS V14.01,2013-02-19 21:10:00,
2013-02-19 16:11:00,38.4,36.8,29.73,SW,221,3.0,3.0,94,0.01,,,0.15,VWS V14.01,2013-02-19 21:11:00,
2013-02-19 16:12:00,38.4,36.8,29.73,SW,221,3.0,3.0,94,0.01,,,0.15,VWS V14.01,2013-02-19 21:12:00,
2013-02-19 16:13:00,38.4,36.8,29.73,SW,221,3.0,3.0,94,0.02,,,0.16,VWS V14.01,2013-02-19 21:13:00,
2013-02-19 16:14:00,38.5,36.9,29.73,West,263,0.0,3.0,94,0.02,,,0.16,VWS V14.01,2013-02-19 21:14:00,
2013-02-19 16:15:00,38.5,36.9,29.72,West,263,1.0,3.0,94,0.02,,,0.16,VWS V14.01,2013-02-19 21:15:00,
2013-02-19 16:16:00,38.5,36.9,29.72,West,263,0.0,3.0,94,0.02,,,0.16,VWS V14.01,2013-02-19 21:16:00,
2013-02-19 16:17:00,38.5,36.9,29.72,West,263,0.0,3.0,94,0.02,,,0.16,VWS V14.01,2013-02-19 21:17:00,
2013-02-19 16:18:00,38.5,36.9,29.72,SW,219,1.0,4.0,94,0.02,,,0.16,VWS V14.01,2013-02-19 21:18:00,
2013-02-19 16:19:00,38.5,36.9,29.72,SW,220,0.0,4.0,94,0.02,,,0.16,VWS V14.01,2013-02-19 21:19:00,
2013-02-19 16:20:00,38.5,36.9,29.72,West,262,1.0,6.0,94,0.02,,,0.16,VWS V14.01,2013-02-19 21:20:00,
2013-02-19 16:21:00,38.6,37.0,29.72,West,262,0.0,0.0,94,0.02,,,0.16,VWS V14.01,2013-02-19 21:21:00,
2013-02-19 16:22:00,38.6,37.0,29.72,West,262,0.0,0.0,94,0.02,,,0.16,VWS V14.01,2013-02-19 21:22:00,
2013-02-19 16:23:00,38.6,37.0,29.72,West,261,0.0,0.0,94,0.02,,,0.16,VWS V14.01,2013-02-19 21:23:00,
2013-02-19 16:24:00,38.5,36.9,29.72,SW,234,1.0,4.0,94,0.02,,,0.16,VWS V14.01,2013-02-19 21:24:00,
2013-02-19 16:25:00,38.5,36.9,29.72,SW,219,0.0,4.0,94,0.02,,,0.16,VWS V14.01,2013-02-19 21:25:00,
2013-02-19 16:26:00,38.6,37.0,29.72,SW,219,0.0,4.0,94,0.02,,,0.16,VWS V14.01,2013-02-19 21:26:00,
2013-02-19 16:27:00,38.6,37.0,29.72,NNW,333,1.0,5.0,94,0.02,,,0.16,VWS V14.01,2013-02-19 21:27:00,
2013-02-19 16:28:00,38.6,37.0,29.72,SW,234,2.0,5.0,94,0.02,,,0.16,VWS V14.01,2013-02-19 21:28:00,
2013-02-19 16:29:00,38.6,37.0,29.72,South,189,5.0,7.0,94,0.02,,,0.16,VWS V14.01,2013-02-19 21:29:00,
2013-02-19 16:30:00,38.6,37.0,29.72,SSW,197,1.0,7.0,94,0.02,,,0.16,VWS V14.01,2013-02-19 21:30:00,
2013-02-19 16:31:00,38.6,37.0,29.72,SSW,197,4.0,4.0,94,0.02,,,0.16,VWS V14.01,2013-02-19 21:31:00,
2013-02-19 16:32:00,38.6,37.0,29.72,SSW,197,2.0,4.0,94,0.02,,,0.16,VWS V14.01,2013-02-19 21:32:00,
2013-02-19 16:33:00,38.6,37.0,29.72,SW,219,4.0,7.0,94,0.02,,,0.16,VWS V14.01,2013-02-19 21:33:00,
2013-02-19 16:34:00,38.6,37.0,29.72,SSW,211,7.0,7.0,94,0.02,,,0.16,VWS V14.01,2013-02-19 21:34:00,
2013-02-19 16:35:00,38.7,37.1,29.72,SSW,199,6.0,7.0,94,0.02,,,0.16,VWS V14.01,2013-02-19 21:35:00,
2013-02-19 16:36:00,38.7,37.1,29.72,SSW,212,1.0,7.0,94,0.02,,,0.16,VWS V14.01,2013-02-19 21:36:00,
2013-02-19 16:37:00,38.7,37.1,29.72,SSW,211,5.0,7.0,94,0.02,,,0.16,VWS V14.01,2013-02-19 21:37:00,
2013-02-19 16:38:00,38.7,37.1,29.72,SSW,211,2.0,7.0,94,0.02,,,0.16,VWS V14.01,2013-02-19 21:38:00,
2013-02-19 16:39:00,38.8,37.2,29.72,SSW,211,0.0,7.0,94,0.02,,,0.16,VWS V14.01,2013-02-19 21:39:00,
2013-02-19 16:40:00,38.8,37.2,29.72,SSW,209,6.0,7.0,94,0.02,,,0.16,VWS V14.01,2013-02-19 21:40:00,
2013-02-19 16:41:00,38.8,37.2,29.72,SSW,207,6.0,7.0,94,0.02,,,0.16,VWS V14.01,2013-02-19 21:41:00,
2013-02-19 16:42:00,38.8,37.2,29.72,SSW,206,2.0,2.0,94,0.02,,,0.16,VWS V14.01,2013-02-19 21:42:00,
2013-02-19 16:43:00,38.8,37.2,29.72,SSW,207,1.0,3.0,94,0.03,,,0.17,VWS V14.01,2013-02-19 21:43:00,
2013-02-19 16:44:00,38.8,37.2,29.72,SSW,200,4.0,6.0,94,0.03,,,0.17,VWS V14.01,2013-02-19 21:44:00,
2013-02-19 16:45:00,38.8,37.2,29.71,SSW,200,1.0,6.0,94,0.03,,,0.17,VWS V14.01,2013-02-19 21:45:00,
2013-02-19 16:46:00,38.8,37.2,29.71,SSW,200,2.0,6.0,94,0.03,,,0.17,VWS V14.01,2013-02-19 21:46:00,
2013-02-19 16:47:00,38.8,37.2,29.71,SSW,200,0.0,6.0,94,0.03,,,0.17,VWS V14.01,2013-02-19 21:47:00,
2013-02-19 16:48:00,38.8,37.2,29.71,SSW,208,3.0,7.0,94,0.03,,,0.17,VWS V14.01,2013-02-19 21:48:00,
2013-02-19 16:49:00,38.8,37.2,29.71,SW,232,0.0,7.0,94,0.03,,,0.17,VWS V14.01,2013-02-19 21:49:00,
2013-02-19 16:50:00,38.9,37.3,29.71,SW,232,0.0,7.0,94,0.03,,,0.17,VWS V14.01,2013-02-19 21:50:00,
2013-02-19 16:51:00,38.8,37.2,29.71,SW,232,2.0,7.0,94,0.03,,,0.17,VWS V14.01,2013-02-19 21:51:00,
2013-02-19 16:52:00,38.9,37.3,29.71,SW,233,0.0,4.0,94,0.02,,,0.17,VWS V14.01,2013-02-19 21:52:00,
2013-02-19 16:53:00,38.9,37.3,29.71,SW,233,2.0,4.0,94,0.02,,,0.17,VWS V14.01,2013-02-19 21:53:00,
2013-02-19 16:54:00,38.9,37.3,29.71,SW,233,1.0,4.0,94,0.02,,,0.17,VWS V14.01,2013-02-19 21:54:00,
2013-02-19 16:55:00,38.9,37.3,29.71,SW,232,6.0,6.0,94,0.02,,,0.17,VWS V14.01,2013-02-19 21:55:00,
2013-02-19 16:56:00,38.9,37.3,29.71,SW,232,6.0,6.0,94,0.02,,,0.17,VWS V14.01,2013-02-19 21:56:00,
2013-02-19 16:57:00,38.8,37.2,29.71,SW,214,1.0,6.0,94,0.02,,,0.17,VWS V14.01,2013-02-19 21:57:00,
2013-02-19 16:58:00,38.9,37.3,29.71,SW,214,3.0,6.0,94,0.02,,,0.17,VWS V14.01,2013-02-19 21:58:00,
2013-02-19 16:59:00,38.9,37.3,29.71,SW,215,1.0,6.0,94,0.02,,,0.17,VWS V14.01,2013-02-19 21:59:00,
2013-02-19 17:00:00,38.9,37.3,29.71,SW,214,4.0,6.0,94,0.03,,,0.18,VWS V14.01,2013-02-19 22:00:00,
2013-02-19 17:01:00,38.9,37.3,29.71,SW,214,1.0,6.0,94,0.03,,,0.18,VWS V14.01,2013-02-19 22:01:00,
2013-02-19 17:02:00,38.9,37.3,29.71,SW,214,2.0,2.0,94,0.03,,,0.18,VWS V14.01,2013-02-19 22:02:00,
2013-02-19 17:03:00,38.9,37.3,29.71,South,180,5.0,6.0,94,0.03,,,0.18,VWS V14.01,2013-02-19 22:03:00,
2013-02-19 17:04:00,38.9,37.3,29.71,SSW,198,2.0,6.0,94,0.03,,,0.18,VWS V14.01,2013-02-19 22:04:00,
2013-02-19 17:05:00,38.9,37.3,29.71,South,186,5.0,6.0,94,0.03,,,0.18,VWS V14.01,2013-02-19 22:05:00,
2013-02-19 17:06:00,38.9,37.3,29.71,ENE,72,3.0,6.0,94,0.03,,,0.18,VWS V14.01,2013-02-19 22:06:00,
2013-02-19 17:07:00,38.9,37.3,29.71,ENE,72,3.0,6.0,94,0.03,,,0.18,VWS V14.01,2013-02-19 22:07:00,
2013-02-19 17:08:00,38.9,37.3,29.71,SSW,210,1.0,6.0,94,0.03,,,0.18,VWS V14.01,2013-02-19 22:08:00,
2013-02-19 17:09:00,38.9,37.3,29.71,SSW,210,1.0,6.0,94,0.03,,,0.18,VWS V14.01,2013-02-19 22:09:00,
2013-02-19 17:10:00,38.9,37.3,29.71,SSW,210,2.0,6.0,94,0.03,,,0.18,VWS V14.01,2013-02-19 22:10:00,
2013-02-19 17:11:00,39.0,37.4,29.71,SSW,210,3.0,3.0,94,0.03,,,0.18,VWS V14.01,2013-02-19 22:11:00,
2013-02-19 17:12:00,39.0,37.4,29.71,SSW,210,3.0,3.0,94,0.03,,,0.18,VWS V14.01,2013-02-19 22:12:00,
2013-02-19 17:13:00,39.0,37.4,29.71,WSW,250,1.0,5.0,94,0.03,,,0.18,VWS V14.01,2013-02-19 22:13:00,
2013-02-19 17:14:00,39.0,37.4,29.71,WSW,250,1.0,5.0,94,0.03,,,0.18,VWS V14.01,2013-02-19 22:14:00,
2013-02-19 17:15:00,39.0,37.4,29.71,SW,227,0.0,5.0,94,0.04,,,0.19,VWS V14.01,2013-02-19 22:15:00,
2013-02-19 17:16:00,39.0,37.4,29.71,SW,227,0.0,5.0,94,0.04,,,0.19,VWS V14.01,2013-02-19 22:16:00,
2013-02-19 17:17:00,39.0,37.4,29.71,SW,227,0.0,5.0,94,0.04,,,0.19,VWS V14.01,2013-02-19 22:17:00,
2013-02-19 17:18:00,39.0,37.4,29.71,SW,228,2.0,5.0,94,0.04,,,0.19,VWS V14.01,2013-02-19 22:18:00,
2013-02-19 17:19:00,39.0,37.4,29.71,SSW,207,3.0,5.0,94,0.04,,,0.19,VWS V14.01,2013-02-19 22:19:00,
2013-02-19 17:20:00,39.0,37.4,29.71,SSW,204,2.0,5.0,94,0.04,,,0.19,VWS V14.01,2013-02-19 22:20:00,
2013-02-19 17:21:00,39.0,37.4,29.71,SSW,208,5.0,5.0,94,0.03,,,0.19,VWS V14.01,2013-02-19 22:21:00,
2013-02-19 17:22:00,39.0,37.4,29.71,SSW,208,5.0,5.0,94,0.03,,,0.19,VWS V14.01,2013-02-19 22:22:00,
2013-02-19 17:23:00,39.1,37.5,29.71,SSW,193,4.0,5.0,94,0.03,,,0.19,VWS V14.01,2013-02-19 22:23:00,
2013-02-19 17:24:00,39.1,37.5,29.71,SSW,193,1.0,5.0,94,0.03,,,0.19,VWS V14.01,2013-02-19 22:24:00,
2013-02-19 17:25:00,39.1,37.5,29.71,West,263,5.0,6.0,94,0.03,,,0.19,VWS V14.01,2013-02-19 22:25:00,
2013-02-19 17:26:00,39.1,37.5,29.71,West,261,2.0,6.0,94,0.03,,,0.19,VWS V14.01,2013-02-19 22:26:00,
2013-02-19 17:27:00,39.1,37.5,29.71,West,261,2.0,6.0,94,0.03,,,0.19,VWS V14.01,2013-02-19 22:27:00,
2013-02-19 17:28:00,39.1,37.5,29.71,WSW,254,2.0,6.0,94,0.03,,,0.19,VWS V14.01,2013-02-19 22:28:00,
2013-02-19 17:29:00,39.2,37.6,29.71,West,259,3.0,6.0,94,0.03,,,0.19,VWS V14.01,2013-02-19 22:29:00,
2013-02-19 17:30:00,39.2,37.6,29.71,West,259,3.0,6.0,94,0.03,,,0.19,VWS V14.01,2013-02-19 22:30:00,
2013-02-19 17:31:00,39.2,37.6,29.71,West,272,0.0,0.0,94,0.03,,,0.19,VWS V14.01,2013-02-19 22:31:00,
2013-02-19 17:32:00,39.2,37.6,29.71,West,272,0.0,0.0,94,0.03,,,0.19,VWS V14.01,2013-02-19 22:32:00,
2013-02-19 17:33:00,39.2,37.6,29.71,West,272,0.0,2.0,94,0.03,,,0.19,VWS V14.01,2013-02-19 22:33:00,
2013-02-19 17:34:00,39.2,37.6,29.71,West,267,3.0,3.0,94,0.03,,,0.19,VWS V14.01,2013-02-19 22:34:00,
2013-02-19 17:35:00,39.1,37.5,29.71,West,267,0.0,3.0,94,0.03,,,0.19,VWS V14.01,2013-02-19 22:35:00,
2013-02-19 17:36:00,39.2,37.6,29.71,West,267,0.0,3.0,94,0.03,,,0.19,VWS V14.01,2013-02-19 22:36:00,
2013-02-19 17:37:00,39.2,37.6,29.71,SW,227,0.0,3.0,94,0.03,,,0.19,VWS V14.01,2013-02-19 22:37:00,
2013-02-19 17:38:00,39.2,37.6,29.71,SW,227,0.0,3.0,94,0.03,,,0.19,VWS V14.01,2013-02-19 22:38:00,
2013-02-19 17:39:00,39.1,37.5,29.71,SW,227,0.0,3.0,94,0.03,,,0.19,VWS V14.01,2013-02-19 22:39:00,
2013-02-19 17:40:00,39.2,37.6,29.71,SW,236,2.0,5.0,94,0.03,,,0.19,VWS V14.01,2013-02-19 22:40:00,
2013-02-19 17:41:00,39.2,37.6,29.71,SW,235,4.0,4.0,94,0.03,,,0.19,VWS V14.01,2013-02-19 22:41:00,
2013-02-19 17:42:00,39.2,37.6,29.71,SSW,206,0.0,4.0,94,0.03,,,0.19,VWS V14.01,2013-02-19 22:42:00,
2013-02-19 17:43:00,39.2,37.6,29.71,WSW,247,1.0,4.0,94,0.03,,,0.19,VWS V14.01,2013-02-19 22:43:00,
2013-02-19 17:44:00,39.2,37.6,29.71,WSW,247,0.0,4.0,94,0.03,,,0.19,VWS V14.01,2013-02-19 22:44:00,
2013-02-19 17:45:00,39.2,37.6,29.71,WSW,247,0.0,4.0,94,0.03,,,0.19,VWS V14.01,2013-02-19 22:45:00,
2013-02-19 17:46:00,39.2,37.6,29.71,WSW,247,0.0,4.0,94,0.03,,,0.19,VWS V14.01,2013-02-19 22:46:00,
2013-02-19 17:47:00,39.2,37.6,29.71,WSW,247,1.0,4.0,94,0.03,,,0.19,VWS V14.01,2013-02-19 22:47:00,
2013-02-19 17:48:00,39.2,37.6,29.71,SSW,207,4.0,4.0,94,0.03,,,0.19,VWS V14.01,2013-02-19 22:48:00,
2013-02-19 17:49:00,39.2,37.6,29.71,SW,215,3.0,4.0,94,0.03,,,0.19,VWS V14.01,2013-02-19 22:49:00,
2013-02-19 17:50:00,39.2,37.6,29.71,SW,215,5.0,5.0,94,0.03,,,0.19,VWS V14.01,2013-02-19 22:50:00,
2013-02-19 17:51:00,39.2,37.6,29.71,SW,215,0.0,5.0,94,0.02,,,0.19,VWS V14.01,2013-02-19 22:51:00,
2013-02-19 17:52:00,39.2,37.6,29.71,WSW,250,2.0,5.0,94,0.02,,,0.19,VWS V14.01,2013-02-19 22:52:00,
2013-02-19 17:53:00,39.2,37.6,29.71,WSW,250,1.0,5.0,94,0.02,,,0.19,VWS V14.01,2013-02-19 22:53:00,
2013-02-19 17:54:00,39.2,37.6,29.71,West,262,3.0,5.0,94,0.02,,,0.19,VWS V14.01,2013-02-19 22:54:00,
2013-02-19 17:55:00,39.2,37.6,29.71,West,261,1.0,5.0,94,0.02,,,0.19,VWS V14.01,2013-02-19 22:55:00,
2013-02-19 17:56:00,39.2,37.6,29.71,West,261,2.0,5.0,94,0.02,,,0.19,VWS V14.01,2013-02-19 22:56:00,
2013-02-19 17:57:00,39.2,37.6,29.71,West,261,1.0,5.0,94,0.02,,,0.19,VWS V14.01,2013-02-19 22:57:00,
2013-02-19 17:58:00,39.2,37.6,29.71,SW,217,3.0,5.0,94,0.02,,,0.19,VWS V14.01,2013-02-19 22:58:00,
2013-02-19 17:59:00,39.2,37.6,29.71,SW,223,3.0,5.0,94,0.02,,,0.19,VWS V14.01,2013-02-19 22:59:00,
2013-02-19 18:00:00,39.3,37.7,29.71,SW,225,2.0,5.0,94,0.02,,,0.19,VWS V14.01,2013-02-19 23:00:00,
2013-02-19 18:01:00,39.3,37.7,29.71,SW,225,2.0,5.0,94,0.02,,,0.19,VWS V14.01,2013-02-19 23:01:00,
2013-02-19 18:02:00,39.3,37.7,29.71,WSW,254,1.0,5.0,94,0.02,,,0.19,VWS V14.01,2013-02-19 23:02:00,
2013-02-19 18:03:00,39.3,37.7,29.71,West,277,5.0,7.0,94,0.02,,,0.19,VWS V14.01,2013-02-19 23:03:00,
2013-02-19 18:04:00,39.3,37.7,29.71,WSW,248,2.0,8.0,94,0.02,,,0.19,VWS V14.01,2013-02-19 23:04:00,
2013-02-19 18:05:00,39.4,38.1,29.71,WSW,248,0.0,8.0,95,0.02,,,0.19,VWS V14.01,2013-02-19 23:05:00,
2013-02-19 18:06:00,39.4,38.1,29.71,WSW,248,0.0,8.0,95,0.02,,,0.19,VWS V14.01,2013-02-19 23:06:00,
2013-02-19 18:07:00,39.4,38.1,29.71,WSW,248,0.0,8.0,95,0.02,,,0.19,VWS V14.01,2013-02-19 23:07:00,
2013-02-19 18:08:00,39.4,38.1,29.71,WSW,252,1.0,8.0,95,0.02,,,0.19,VWS V14.01,2013-02-19 23:08:00,
2013-02-19 18:09:00,39.4,37.8,29.71,WSW,253,0.0,8.0,94,0.02,,,0.19,VWS V14.01,2013-02-19 23:09:00,
2013-02-19 18:10:00,39.4,37.8,29.71,WSW,258,1.0,8.0,94,0.02,,,0.19,VWS V14.01,2013-02-19 23:10:00,
2013-02-19 18:11:00,39.4,37.8,29.71,WSW,258,0.0,8.0,94,0.02,,,0.19,VWS V14.01,2013-02-19 23:11:00,
2013-02-19 18:12:00,39.4,37.8,29.71,WSW,258,1.0,5.0,94,0.01,,,0.19,VWS V14.01,2013-02-19 23:12:00,
2013-02-19 18:13:00,39.5,37.9,29.71,WSW,255,1.0,5.0,94,0.01,,,0.19,VWS V14.01,2013-02-19 23:13:00,
2013-02-19 18:14:00,39.5,37.9,29.71,WSW,256,1.0,5.0,94,0.01,,,0.19,VWS V14.01,2013-02-19 23:14:00,
2013-02-19 18:15:00,39.4,37.8,29.71,West,262,1.0,5.0,94,0.01,,,0.19,VWS V14.01,2013-02-19 23:15:00,
2013-02-19 18:16:00,39.5,37.9,29.71,West,262,0.0,5.0,94,0.01,,,0.19,VWS V14.01,2013-02-19 23:16:00,
2013-02-19 18:17:00,39.5,37.9,29.71,West,262,2.0,5.0,94,0.01,,,0.19,VWS V14.01,2013-02-19 23:17:00,
2013-02-19 18:18:00,39.5,37.9,29.71,West,266,4.0,5.0,94,0.01,,,0.19,VWS V14.01,2013-02-19 23:18:00,
2013-02-19 18:19:00,39.5,37.9,29.71,West,266,2.0,5.0,94,0.01,,,0.19,VWS V14.01,2013-02-19 23:19:00,
2013-02-19 18:20:00,39.5,38.2,29.71,WSW,244,0.0,5.0,95,0.01,,,0.19,VWS V14.01,2013-02-19 23:20:00,
2013-02-19 18:21:00,39.5,38.2,29.71,WSW,244,2.0,5.0,95,0.01,,,0.19,VWS V14.01,2013-02-19 23:21:00,
2013-02-19 18:22:00,39.5,38.2,29.71,WSW,249,2.0,4.0,95,0.00,,,0.19,VWS V14.01,2013-02-19 23:22:00,
2013-02-19 18:23:00,39.5,38.2,29.71,West,259,3.0,5.0,95,0.00,,,0.19,VWS V14.01,2013-02-19 23:23:00,
2013-02-19 18:24:00,39.5,38.2,29.71,West,266,0.0,5.0,95,0.00,,,0.19,VWS V14.01,2013-02-19 23:24:00,
2013-02-19 18:25:00,39.6,38.3,29.71,West,267,3.0,5.0,95,0.00,,,0.19,VWS V14.01,2013-02-19 23:25:00,
2013-02-19 18:26:00,39.5,38.2,29.71,West,267,4.0,5.0,95,0.00,,,0.19,VWS V14.01,2013-02-19 23:26:00,
2013-02-19 18:27:00,39.5,38.2,29.71,WSW,245,5.0,5.0,95,0.00,,,0.19,VWS V14.01,2013-02-19 23:27:00,
2013-02-19 18:28:00,39.6,38.3,29.71,West,277,5.0,6.0,95,0.00,,,0.19,VWS V14.01,2013-02-19 23:28:00,
2013-02-19 18:29:00,39.6,38.3,29.71,WSW,258,2.0,6.0,95,0.00,,,0.19,VWS V14.01,2013-02-19 23:29:00,
2013-02-19 18:30:00,39.6,38.3,29.70,West,260,0.0,6.0,95,0.00,,,0.19,VWS V14.01,2013-02-19 23:30:00,
2013-02-19 18:31:00,39.6,38.3,29.70,West,259,2.0,6.0,95,0.00,,,0.19,VWS V14.01,2013-02-19 23:31:00,
2013-02-19 18:32:00,39.6,38.3,29.70,West,278,0.0,2.0,95,0.00,,,0.19,VWS V14.01,2013-02-19 23:32:00,
2013-02-19 18:33:00,39.6,38.3,29.70,West,276,0.0,3.0,95,0.00,,,0.19,VWS V14.01,2013-02-19 23:33:00,
2013-02-19 18:34:00,39.6,38.3,29.70,West,276,2.0,3.0,95,0.00,,,0.19,VWS V14.01,2013-02-19 23:34:00,
2013-02-19 18:35:00,39.6,38.3,29.70,West,275,3.0,3.0,95,0.00,,,0.19,VWS V14.01,2013-02-19 23:35:00,
2013-02-19 18:36:00,39.6,38.3,29.70,West,274,4.0,4.0,95,0.00,,,0.19,VWS V14.01,2013-02-19 23:36:00,
2013-02-19 18:37:00,39.6,38.3,29.70,West,274,1.0,4.0,95,0.00,,,0.19,VWS V14.01,2013-02-19 23:37:00,
2013-02-19 18:38:00,39.6,38.3,29.70,West,274,3.0,4.0,95,0.00,,,0.19,VWS V14.01,2013-02-19 23:38:00,
2013-02-19 18:39:00,39.6,38.3,29.70,West,274,0.0,4.0,95,0.00,,,0.19,VWS V14.01,2013-02-19 23:39:00,
2013-02-19 18:40:00,39.6,38.3,29.70,West,274,2.0,4.0,95,0.00,,,0.19,VWS V14.01,2013-02-19 23:40:00,
2013-02-19 18:41:00,39.6,38.3,29.70,West,274,2.0,4.0,95,0.00,,,0.19,VWS V14.01,2013-02-19 23:41:00,
2013-02-19 18:42:00,39.6,38.3,29.70,West,275,4.0,6.0,95,0.00,,,0.19,VWS V14.01,2013-02-19 23:42:00,
2013-02-19 18:43:00,39.6,38.3,29.70,West,275,1.0,6.0,95,0.00,,,0.19,VWS V14.01,2013-02-19 23:43:00,
2013-02-19 18:44:00,39.7,38.4,29.70,West,275,0.0,6.0,95,0.00,,,0.19,VWS V14.01,2013-02-19 23:44:00,
2013-02-19 18:45:00,39.7,38.4,29.69,West,275,1.0,6.0,95,0.00,,,0.19,VWS V14.01,2013-02-19 23:45:00,
2013-02-19 18:46:00,39.7,38.4,29.69,West,275,0.0,6.0,95,0.00,,,0.19,VWS V14.01,2013-02-19 23:46:00,
2013-02-19 18:47:00,39.7,38.4,29.69,West,278,2.0,6.0,95,0.00,,,0.19,VWS V14.01,2013-02-19 23:47:00,
2013-02-19 18:48:00,39.6,38.3,29.69,WSW,248,4.0,6.0,95,0.00,,,0.19,VWS V14.01,2013-02-19 23:48:00,
2013-02-19 18:49:00,39.6,38.3,29.69,WSW,254,1.0,6.0,95,0.00,,,0.19,VWS V14.01,2013-02-19 23:49:00,
2013-02-19 18:50:00,39.6,38.3,29.69,WNW,286,2.0,6.0,95,0.00,,,0.19,VWS V14.01,2013-02-19 23:50:00,
2013-02-19 18:51:00,39.6,38.3,29.69,WNW,286,2.0,6.0,95,0.00,,,0.19,VWS V14.01,2013-02-19 23:51:00,
2013-02-19 18:52:00,39.6,38.3,29.69,West,273,4.0,5.0,95,0.00,,,0.19,VWS V14.01,2013-02-19 23:52:00,
2013-02-19 18:53:00,39.6,38.3,29.69,SW,228,0.0,5.0,95,0.00,,,0.19,VWS V14.01,2013-02-19 23:53:00,
2013-02-19 18:54:00,39.6,38.3,29.69,WSW,255,9.0,9.0,95,0.00,,,0.19,VWS V14.01,2013-02-19 23:54:00,
2013-02-19 18:55:00,39.6,38.3,29.69,SSW,202,6.0,12.0,95,0.00,,,0.19,VWS V14.01,2013-02-19 23:55:00,
2013-02-19 18:56:00,39.7,38.4,29.69,WSW,248,4.0,12.0,95,0.00,,,0.19,VWS V14.01,2013-02-19 23:56:00,
2013-02-19 18:57:00,39.6,38.3,29.69,West,263,2.0,12.0,95,0.00,,,0.19,VWS V14.01,2013-02-19 23:57:00,
2013-02-19 18:58:00,39.7,38.4,29.69,West,263,0.0,12.0,95,0.00,,,0.19,VWS V14.01,2013-02-19 23:58:00,
2013-02-19 18:59:00,39.7,38.4,29.69,West,266,2.0,12.0,95,0.00,,,0.19,VWS V14.01,2013-02-19 23:59:00,
2013-02-19 19:00:00,39.7,38.4,29.71,West,274,2.0,12.0,95,0.00,,,0.19,VWS V14.01,2013-02-20 00:00:00,
2013-02-19 19:01:00,39.7,38.4,29.71,West,274,2.0,12.0,95,0.00,,,0.19,VWS V14.01,2013-02-20 00:01:00,
2013-02-19 19:02:00,39.7,38.4,29.71,West,263,3.0,12.0,95,0.00,,,0.19,VWS V14.01,2013-02-20 00:02:00,
2013-02-19 19:03:00,39.7,38.4,29.71,West,271,6.0,12.0,95,0.01,,,0.20,VWS V14.01,2013-02-20 00:03:00,
2013-02-19 19:04:00,39.7,38.4,29.71,WNW,284,3.0,12.0,95,0.01,,,0.20,VWS V14.01,2013-02-20 00:04:00,
2013-02-19 19:05:00,39.7,38.4,29.71,West,260,7.0,12.0,95,0.01,,,0.20,VWS V14.01,2013-02-20 00:05:00,
2013-02-19 19:06:00,39.7,38.4,29.71,West,261,8.0,12.0,95,0.01,,,0.20,VWS V14.01,2013-02-20 00:06:00,
2013-02-19 19:07:00,39.7,38.4,29.71,West,281,5.0,14.0,95,0.01,,,0.20,VWS V14.01,2013-02-20 00:07:00,
2013-02-19 19:08:00,39.7,38.4,29.71,WSW,258,5.0,14.0,95,0.01,,,0.20,VWS V14.01,2013-02-20 00:08:00,
2013-02-19 19:09:00,39.7,38.4,29.71,West,263,11.0,14.0,95,0.01,,,0.20,VWS V14.01,2013-02-20 00:09:00,
2013-02-19 19:10:00,39.7,38.4,29.71,WSW,257,3.0,14.0,95,0.02,,,0.21,VWS V14.01,2013-02-20 00:10:00,
2013-02-19 19:11:00,39.7,38.4,29.71,WNW,293,5.0,14.0,95,0.02,,,0.21,VWS V14.01,2013-02-20 00:11:00,
2013-02-19 19:12:00,39.7,38.4,29.71,WSW,245,6.0,14.0,95,0.02,,,0.21,VWS V14.01,2013-02-20 00:12:00,
2013-02-19 19:13:00,39.7,38.4,29.71,SW,221,7.0,14.0,95,0.02,,,0.21,VWS V14.01,2013-02-20 00:13:00,
2013-02-19 19:14:00,39.7,38.4,29.71,West,259,2.0,14.0,95,0.02,,,0.21,VWS V14.01,2013-02-20 00:14:00,
2013-02-19 19:15:00,39.6,38.3,29.70,WSW,252,4.0,14.0,95,0.02,,,0.21,VWS V14.01,2013-02-20 00:15:00,
2013-02-19 19:16:00,39.6,38.3,29.70,WSW,252,4.0,14.0,95,0.02,,,0.21,VWS V14.01,2013-02-20 00:16:00,
2013-02-19 19:17:00,39.6,38.3,29.70,West,279,3.0,14.0,95,0.02,,,0.21,VWS V14.01,2013-02-20 00:17:00,
2013-02-19 19:18:00,39.6,38.3,29.70,West,272,2.0,14.0,95,0.03,,,0.22,VWS V14.01,2013-02-20 00:18:00,
2013-02-19 19:19:00,39.6,38.3,29.70,NNW,331,5.0,14.0,95,0.03,,,0.22,VWS V14.01,2013-02-20 00:19:00,
2013-02-19 19:20:00,39.5,38.2,29.70,NW,326,3.0,14.0,95,0.03,,,0.22,VWS V14.01,2013-02-20 00:20:00,
2013-02-19 19:21:00,39.5,38.2,29.70,West,259,5.0,5.0,95,0.03,,,0.22,VWS V14.01,2013-02-20 00:21:00,
2013-02-19 19:22:00,39.5,38.2,29.70,West,259,5.0,5.0,95,0.03,,,0.22,VWS V14.01,2013-02-20 00:22:00,
2013-02-19 19:23:00,39.5,38.2,29.70,WNW,293,4.0,6.0,95,0.03,,,0.22,VWS V14.01,2013-02-20 00:23:00,
2013-02-19 19:24:00,39.4,38.1,29.70,NW,310,6.0,6.0,95,0.03,,,0.22,VWS V14.01,2013-02-20 00:24:00,
2013-02-19 19:25:00,39.4,38.1,29.70,West,275,7.0,7.0,95,0.03,,,0.22,VWS V14.01,2013-02-20 00:25:00,
2013-02-19 19:26:00,39.3,38.0,29.70,West,271,8.0,8.0,95,0.03,,,0.22,VWS V14.01,2013-02-20 00:26:00,
2013-02-19 19:27:00,39.3,38.0,29.70,West,271,8.0,8.0,95,0.03,,,0.22,VWS V14.01,2013-02-20 00:27:00,
2013-02-19 19:28:00,39.3,38.0,29.70,WNW,292,0.0,8.0,95,0.03,,,0.22,VWS V14.01,2013-02-20 00:28:00,
2013-02-19 19:29:00,39.3,38.0,29.70,WNW,292,0.0,8.0,95,0.03,,,0.22,VWS V14.01,2013-02-20 00:29:00,
2013-02-19 19:30:00,39.3,38.0,29.69,WSW,249,2.0,8.0,95,0.03,,,0.22,VWS V14.01,2013-02-20 00:30:00,
2013-02-19 19:31:00,39.2,37.9,29.69,WSW,249,2.0,2.0,95,0.03,,,0.22,VWS V14.01,2013-02-20 00:31:00,
2013-02-19 19:32:00,39.2,37.9,29.69,WSW,249,2.0,2.0,95,0.03,,,0.22,VWS V14.01,2013-02-20 00:32:00,
2013-02-19 19:33:00,39.2,37.9,29.69,West,259,4.0,6.0,95,0.03,,,0.22,VWS V14.01,2013-02-20 00:33:00,
2013-02-19 19:34:00,39.2,37.9,29.69,WSW,257,3.0,6.0,95,0.03,,,0.22,VWS V14.01,2013-02-20 00:34:00,
2013-02-19 19:35:00,39.2,37.9,29.69,West,259,3.0,6.0,95,0.03,,,0.22,VWS V14.01,2013-02-20 00:35:00,
2013-02-19 19:36:00,39.2,37.9,29.69,West,274,5.0,6.0,95,0.03,,,0.22,VWS V14.01,2013-02-20 00:36:00,
2013-02-19 19:37:00,39.2,37.9,29.69,West,274,5.0,6.0,95,0.03,,,0.22,VWS V14.01,2013-02-20 00:37:00,
2013-02-19 19:38:00,39.1,37.8,29.69,WNW,284,2.0,6.0,95,0.03,,,0.22,VWS V14.01,2013-02-20 00:38:00,
2013-02-19 19:39:00,39.1,37.8,29.69,WNW,288,2.0,6.0,95,0.03,,,0.22,VWS V14.01,2013-02-20 00:39:00,
2013-02-19 19:40:00,39.1,37.8,29.69,SW,228,5.0,10.0,95,0.03,,,0.22,VWS V14.01,2013-02-20 00:40:00,
2013-02-19 19:41:00,39.1,37.8,29.69,ESE,109,0.0,2.0,95,0.03,,,0.22,VWS V14.01,2013-02-20 00:41:00,
2013-02-19 19:42:00,39.1,37.8,29.69,ESE,109,0.0,2.0,95,0.03,,,0.22,VWS V14.01,2013-02-20 00:42:00,
2013-02-19 19:43:00,39.1,37.8,29.69,WNW,288,6.0,6.0,95,0.03,,,0.22,VWS V14.01,2013-02-20 00:43:00,
2013-02-19 19:44:00,39.0,37.7,29.69,WSW,254,4.0,8.0,95,0.03,,,0.22,VWS V14.01,2013-02-20 00:44:00,
2013-02-19 19:45:00,39.0,37.7,29.69,West,271,4.0,9.0,95,0.03,,,0.22,VWS V14.01,2013-02-20 00:45:00,
2013-02-19 19:46:00,39.0,37.7,29.69,WSW,243,5.0,9.0,95,0.03,,,0.22,VWS V14.01,2013-02-20 00:46:00,
2013-02-19 19:47:00,39.0,37.7,29.69,WSW,253,7.0,9.0,95,0.03,,,0.22,VWS V14.01,2013-02-20 00:47:00,
2013-02-19 19:48:00,39.0,37.7,29.69,West,260,6.0,9.0,95,0.03,,,0.22,VWS V14.01,2013-02-20 00:48:00,
2013-02-19 19:49:00,38.9,37.6,29.69,SW,236,3.0,9.0,95,0.03,,,0.22,VWS V14.01,2013-02-20 00:49:00,
2013-02-19 19:50:00,38.9,37.6,29.69,WSW,258,2.0,9.0,95,0.03,,,0.22,VWS V14.01,2013-02-20 00:50:00,
2013-02-19 19:51:00,38.9,37.6,29.69,West,264,6.0,6.0,95,0.03,,,0.22,VWS V14.01,2013-02-20 00:51:00,
2013-02-19 19:52:00,38.9,37.6,29.69,West,269,7.0,7.0,95,0.03,,,0.22,VWS V14.01,2013-02-20 00:52:00,
2013-02-19 19:53:00,38.9,37.6,29.69,WSW,245,4.0,7.0,95,0.03,,,0.22,VWS V14.01,2013-02-20 00:53:00,
2013-02-19 19:54:00,38.9,37.6,29.69,SW,225,5.0,7.0,95,0.03,,,0.22,VWS V14.01,2013-02-20 00:54:00,
2013-02-19 19:55:00,38.9,37.6,29.69,SW,235,5.0,7.0,95,0.03,,,0.22,VWS V14.01,2013-02-20 00:55:00,
2013-02-19 19:56:00,38.8,37.5,29.69,SW,235,7.0,10.0,95,0.03,,,0.22,VWS V14.01,2013-02-20 00:56:00,
2013-02-19 19:57:00,38.8,37.5,29.69,WSW,258,4.0,10.0,95,0.03,,,0.22,VWS V14.01,2013-02-20 00:57:00,
2013-02-19 19:58:00,38.8,37.5,29.69,WNW,286,4.0,10.0,95,0.03,,,0.22,VWS V14.01,2013-02-20 00:58:00,
2013-02-19 19:59:00,38.8,37.5,29.69,WSW,240,4.0,10.0,95,0.03,,,0.22,VWS V14.01,2013-02-20 00:59:00,
2013-02-19 20:00:00,38.8,37.5,29.69,WSW,255,5.0,10.0,95,0.03,,,0.22,VWS V14.01,2013-02-20 01:00:00,
2013-02-19 20:01:00,38.8,37.5,29.69,West,275,2.0,4.0,95,0.01,,,0.22,VWS V14.01,2013-02-20 01:01:00,
2013-02-19 20:02:00,38.8,37.5,29.69,WSW,243,3.0,4.0,95,0.01,,,0.22,VWS V14.01,2013-02-20 01:02:00,
2013-02-19 20:03:00,38.7,37.4,29.69,SW,234,8.0,8.0,95,0.01,,,0.22,VWS V14.01,2013-02-20 01:03:00,
2013-02-19 20:04:00,38.7,37.4,29.69,WSW,240,7.0,12.0,95,0.01,,,0.22,VWS V14.01,2013-02-20 01:04:00,
2013-02-19 20:05:00,38.7,37.4,29.69,NW,304,2.0,12.0,95,0.01,,,0.22,VWS V14.01,2013-02-20 01:05:00,
2013-02-19 20:06:00,38.7,37.4,29.69,NW,304,2.0,12.0,95,0.01,,,0.22,VWS V14.01,2013-02-20 01:06:00,
2013-02-19 20:07:00,38.7,37.4,29.69,WNW,294,3.0,12.0,95,0.01,,,0.22,VWS V14.01,2013-02-20 01:07:00,
2013-02-19 20:08:00,38.7,37.4,29.69,WSW,240,4.0,12.0,95,0.01,,,0.22,VWS V14.01,2013-02-20 01:08:00,
2013-02-19 20:09:00,38.7,37.4,29.69,WNW,291,1.0,12.0,95,0.01,,,0.22,VWS V14.01,2013-02-20 01:09:00,
2013-02-19 20:10:00,38.6,37.3,29.69,West,262,6.0,12.0,95,0.01,,,0.22,VWS V14.01,2013-02-20 01:10:00,
2013-02-19 20:11:00,38.6,37.3,29.69,WSW,249,7.0,12.0,95,0.01,,,0.22,VWS V14.01,2013-02-20 01:11:00,
2013-02-19 20:12:00,38.5,37.2,29.69,South,186,0.0,4.0,95,0.01,,,0.22,VWS V14.01,2013-02-20 01:12:00,
2013-02-19 20:13:00,38.4,37.1,29.69,SW,223,3.0,6.0,95,0.01,,,0.22,VWS V14.01,2013-02-20 01:13:00,
2013-02-19 20:14:00,38.3,37.0,29.69,West,279,8.0,8.0,95,0.01,,,0.22,VWS V14.01,2013-02-20 01:14:00,
2013-02-19 20:15:00,38.2,36.9,29.70,WNW,298,4.0,8.0,95,0.01,,,0.22,VWS V14.01,2013-02-20 01:15:00,
2013-02-19 20:16:00,38.2,36.9,29.70,WNW,298,4.0,8.0,95,0.01,,,0.22,VWS V14.01,2013-02-20 01:16:00,
2013-02-19 20:17:00,38.0,36.4,29.70,WSW,254,6.0,8.0,94,0.01,,,0.22,VWS V14.01,2013-02-20 01:17:00,
2013-02-19 20:18:00,37.9,36.3,29.70,West,270,11.0,11.0,94,0.01,,,0.22,VWS V14.01,2013-02-20 01:18:00,
2013-02-19 20:19:00,37.8,36.2,29.70,West,259,5.0,11.0,94,0.01,,,0.22,VWS V14.01,2013-02-20 01:19:00,
2013-02-19 20:20:00,37.7,36.1,29.70,West,281,4.0,11.0,94,0.01,,,0.22,VWS V14.01,2013-02-20 01:20:00,
2013-02-19 20:21:00,37.7,36.1,29.70,West,281,3.0,11.0,94,0.01,,,0.22,VWS V14.01,2013-02-20 01:21:00,
2013-02-19 20:22:00,37.5,35.9,29.70,WSW,253,3.0,7.0,94,0.00,,,0.22,VWS V14.01,2013-02-20 01:22:00,
2013-02-19 20:23:00,37.5,35.9,29.70,WNW,287,3.0,8.0,94,0.00,,,0.22,VWS V14.01,2013-02-20 01:23:00,
2013-02-19 20:24:00,37.4,35.8,29.70,SSW,201,7.0,8.0,94,0.00,,,0.22,VWS V14.01,2013-02-20 01:24:00,
2013-02-19 20:25:00,37.3,35.7,29.70,West,276,4.0,11.0,94,0.00,,,0.22,VWS V14.01,2013-02-20 01:25:00,
2013-02-19 20:26:00,37.3,35.7,29.70,WNW,298,5.0,11.0,94,0.00,,,0.22,VWS V14.01,2013-02-20 01:26:00,
2013-02-19 20:27:00,37.2,35.6,29.70,WNW,294,1.0,11.0,94,0.00,,,0.22,VWS V14.01,2013-02-20 01:27:00,
2013-02-19 20:28:00,37.2,35.6,29.70,WNW,286,3.0,11.0,94,0.00,,,0.22,VWS V14.01,2013-02-20 01:28:00,
2013-02-19 20:29:00,37.1,35.5,29.70,West,267,6.0,11.0,94,0.00,,,0.22,VWS V14.01,2013-02-20 01:29:00,
2013-02-19 20:30:00,37.1,35.5,29.69,WSW,247,3.0,11.0,94,0.00,,,0.22,VWS V14.01,2013-02-20 01:30:00,
2013-02-19 20:31:00,37.1,35.5,29.69,WSW,247,3.0,11.0,94,0.00,,,0.22,VWS V14.01,2013-02-20 01:31:00,
2013-02-19 20:32:00,37.1,35.5,29.69,WSW,247,3.0,11.0,94,0.00,,,0.22,VWS V14.01,2013-02-20 01:32:00,
2013-02-19 20:33:00,37.0,35.4,29.69,WSW,244,4.0,4.0,94,0.00,,,0.22,VWS V14.01,2013-02-20 01:33:00,
2013-02-19 20:34:00,36.9,35.3,29.69,SW,220,5.0,10.0,94,0.00,,,0.22,VWS V14.01,2013-02-20 01:34:00,
2013-02-19 20:35:00,36.9,35.3,29.69,SW,223,1.0,10.0,94,0.00,,,0.22,VWS V14.01,2013-02-20 01:35:00,
2013-02-19 20:36:00,36.8,35.2,29.69,SW,223,0.0,10.0,94,0.00,,,0.22,VWS V14.01,2013-02-20 01:36:00,
2013-02-19 20:37:00,36.8,35.2,29.69,SW,223,0.0,10.0,94,0.00,,,0.22,VWS V14.01,2013-02-20 01:37:00,
2013-02-19 20:38:00,36.8,35.2,29.69,SW,224,2.0,10.0,94,0.00,,,0.22,VWS V14.01,2013-02-20 01:38:00,
2013-02-19 20:39:00,36.7,35.1,29.69,WSW,240,4.0,10.0,94,0.00,,,0.22,VWS V14.01,2013-02-20 01:39:00,
2013-02-19 20:40:00,36.7,35.1,29.69,WNW,285,3.0,10.0,94,0.00,,,0.22,VWS V14.01,2013-02-20 01:40:00,
2013-02-19 20:41:00,36.6,35.0,29.69,West,279,4.0,6.0,94,0.00,,,0.22,VWS V14.01,2013-02-20 01:41:00,
2013-02-19 20:42:00,36.6,35.0,29.69,West,279,4.0,6.0,94,0.00,,,0.22,VWS V14.01,2013-02-20 01:42:00,
2013-02-19 20:43:00,36.6,35.0,29.69,West,279,4.0,6.0,94,0.00,,,0.22,VWS V14.01,2013-02-20 01:43:00,
2013-02-19 20:44:00,36.6,35.0,29.69,WSW,248,8.0,8.0,94,0.00,,,0.22,VWS V14.01,2013-02-20 01:44:00,
2013-02-19 20:45:00,36.6,35.0,29.69,West,272,4.0,10.0,94,0.00,,,0.22,VWS V14.01,2013-02-20 01:45:00,
2013-02-19 20:46:00,36.5,34.9,29.69,WNW,296,1.0,10.0,94,0.00,,,0.22,VWS V14.01,2013-02-20 01:46:00,
2013-02-19 20:47:00,36.5,34.9,29.69,WNW,296,1.0,10.0,94,0.00,,,0.22,VWS V14.01,2013-02-20 01:47:00,
2013-02-19 20:48:00,36.5,34.9,29.69,WNW,296,1.0,10.0,94,0.00,,,0.22,VWS V14.01,2013-02-20 01:48:00,
2013-02-19 20:49:00,36.5,34.9,29.69,West,279,5.0,10.0,94,0.00,,,0.22,VWS V14.01,2013-02-20 01:49:00,
2013-02-19 20:50:00,36.5,34.9,29.69,NNW,334,3.0,10.0,94,0.00,,,0.22,VWS V14.01,2013-02-20 01:50:00,
2013-02-19 20:51:00,36.4,34.8,29.69,West,259,8.0,8.0,94,0.00,,,0.22,VWS V14.01,2013-02-20 01:51:00,
2013-02-19 20:52:00,36.4,34.8,29.69,West,259,8.0,8.0,94,0.00,,,0.22,VWS V14.01,2013-02-20 01:52:00,
2013-02-19 20:53:00,36.4,34.8,29.69,West,259,8.0,8.0,94,0.00,,,0.22,VWS V14.01,2013-02-20 01:53:00,
2013-02-19 20:54:00,36.4,34.8,29.69,West,259,8.0,8.0,94,0.00,,,0.22,VWS V14.01,2013-02-20 01:54:00,
2013-02-19 20:55:00,36.4,34.8,29.69,SW,234,0.0,8.0,94,0.00,,,0.22,VWS V14.01,2013-02-20 01:55:00,
2013-02-19 20:56:00,36.3,34.7,29.69,WSW,239,1.0,8.0,94,0.00,,,0.22,VWS V14.01,2013-02-20 01:56:00,
2013-02-19 20:57:00,36.3,34.7,29.69,WSW,239,1.0,8.0,94,0.00,,,0.22,VWS V14.01,2013-02-20 01:57:00,
2013-02-19 20:58:00,36.3,34.7,29.69,WSW,239,1.0,8.0,94,0.00,,,0.22,VWS V14.01,2013-02-20 01:58:00,
2013-02-19 20:59:00,36.3,34.7,29.69,WNW,297,3.0,8.0,94,0.00,,,0.22,VWS V14.01,2013-02-20 01:59:00,
2013-02-19 21:00:00,36.3,34.7,29.69,WNW,297,3.0,8.0,94,0.00,,,0.22,VWS V14.01,2013-02-20 02:00:00,
2013-02-19 21:01:00,36.2,34.6,29.70,West,269,4.0,4.0,94,0.00,,,0.22,VWS V14.01,2013-02-20 02:01:00,
2013-02-19 21:02:00,36.2,34.6,29.70,West,269,4.0,4.0,94,0.00,,,0.22,VWS V14.01,2013-02-20 02:02:00,
2013-02-19 21:03:00,36.2,34.6,29.70,West,269,4.0,4.0,94,0.00,,,0.22,VWS V14.01,2013-02-20 02:03:00,
2013-02-19 21:04:00,36.2,34.6,29.70,West,269,4.0,4.0,94,0.00,,,0.22,VWS V14.01,2013-02-20 02:04:00,
2013-02-19 21:05:00,36.2,34.6,29.70,West,279,1.0,4.0,94,0.00,,,0.22,VWS V14.01,2013-02-20 02:05:00,
2013-02-19 21:06:00,36.2,34.6,29.70,WSW,252,0.0,4.0,94,0.00,,,0.22,VWS V14.01,2013-02-20 02:06:00,
2013-02-19 21:07:00,36.2,34.6,29.70,WSW,252,0.0,4.0,94,0.00,,,0.22,VWS V14.01,2013-02-20 02:07:00,
2013-02-19 21:08:00,36.2,34.6,29.70,WSW,252,0.0,4.0,94,0.00,,,0.22,VWS V14.01,2013-02-20 02:08:00,
2013-02-19 21:09:00,36.2,34.6,29.70,WSW,252,0.0,4.0,94,0.00,,,0.22,VWS V14.01,2013-02-20 02:09:00,
2013-02-19 21:10:00,36.2,34.6,29.70,WSW,252,0.0,4.0,94,0.00,,,0.22,VWS V14.01,2013-02-20 02:10:00,
2013-02-19 21:11:00,36.1,34.3,29.70,West,263,1.0,2.0,93,0.00,,,0.22,VWS V14.01,2013-02-20 02:11:00,
2013-02-19 21:12:00,36.1,34.3,29.70,West,263,1.0,2.0,93,0.00,,,0.22,VWS V14.01,2013-02-20 02:12:00,
2013-02-19 21:13:00,36.1,34.3,29.70,West,263,1.0,2.0,93,0.00,,,0.22,VWS V14.01,2013-02-20 02:13:00,
2013-02-19 21:14:00,36.1,34.3,29.70,West,263,1.0,2.0,93,0.00,,,0.22,VWS V14.01,2013-02-20 02:14:00,
2013-02-19 21:15:00,36.1,34.3,29.70,West,263,1.0,2.0,93,0.00,,,0.22,VWS V14.01,2013-02-20 02:15:00,
2013-02-19 21:16:00,36.0,34.2,29.69,SW,233,8.0,8.0,93,0.00,,,0.22,VWS V14.01,2013-02-20 02:16:00,
2013-02-19 21:17:00,36.0,34.2,29.69,SW,233,8.0,8.0,93,0.00,,,0.22,VWS V14.01,2013-02-20 02:17:00,
2013-02-19 21:18:00,36.0,34.2,29.69,SW,233,8.0,8.0,93,0.00,,,0.22,VWS V14.01,2013-02-20 02:18:00,
2013-02-19 21:19:00,36.0,34.2,29.69,SW,233,8.0,8.0,93,0.00,,,0.22,VWS V14.01,2013-02-20 02:19:00,
2013-02-19 21:20:00,36.0,34.2,29.69,SW,233,8.0,8.0,93,0.00,,,0.22,VWS V14.01,2013-02-20 02:20:00,
2013-02-19 21:21:00,35.9,34.1,29.69,WSW,248,3.0,3.0,93,0.00,,,0.22,VWS V14.01,2013-02-20 02:21:00,
2013-02-19 21:22:00,35.9,34.1,29.69,WSW,248,3.0,3.0,93,0.00,,,0.22,VWS V14.01,2013-02-20 02:22:00,
2013-02-19 21:23:00,35.8,34.0,29.69,WSW,252,4.0,4.0,93,0.00,,,0.22,VWS V14.01,2013-02-20 02:23:00,
2013-02-19 21:24:00,35.8,34.0,29.69,SW,232,6.0,6.0,93,0.00,,,0.22,VWS V14.01,2013-02-20 02:24:00,
2013-02-19 21:25:00,35.8,34.0,29.69,West,265,2.0,10.0,93,0.00,,,0.22,VWS V14.01,2013-02-20 02:25:00,
2013-02-19 21:26:00,35.8,34.0,29.69,WNW,300,4.0,10.0,93,0.00,,,0.22,VWS V14.01,2013-02-20 02:26:00,
2013-02-19 21:27:00,35.8,34.0,29.69,WNW,300,4.0,10.0,93,0.00,,,0.22,VWS V14.01,2013-02-20 02:27:00,
2013-02-19 21:28:00,35.8,34.0,29.69,WNW,300,4.0,10.0,93,0.00,,,0.22,VWS V14.01,2013-02-20 02:28:00,
2013-02-19 21:29:00,35.8,34.0,29.69,WNW,300,4.0,10.0,93,0.00,,,0.22,VWS V14.01,2013-02-20 02:29:00,
2013-02-19 21:30:00,35.8,34.0,29.69,WNW,300,4.0,10.0,93,0.00,,,0.22,VWS V14.01,2013-02-20 02:30:00,
2013-02-19 21:31:00,35.8,34.0,29.69,WNW,300,4.0,10.0,93,0.00,,,0.22,VWS V14.01,2013-02-20 02:31:00,
2013-02-19 21:32:00,35.6,33.5,29.72,SW,222,4.0,4.0,92,0.00,,,0.22,VWS V14.01,2013-02-20 02:32:00,
2013-02-19 21:33:00,35.6,33.5,29.72,West,267,3.0,6.0,92,0.00,,,0.22,VWS V14.01,2013-02-20 02:33:00,
2013-02-19 21:34:00,35.6,33.5,29.72,WSW,246,3.0,6.0,92,0.00,,,0.22,VWS V14.01,2013-02-20 02:34:00,
2013-02-19 21:35:00,35.6,33.5,29.72,WSW,257,7.0,9.0,92,0.00,,,0.22,VWS V14.01,2013-02-20 02:35:00,
2013-02-19 21:36:00,35.6,33.5,29.72,WSW,237,2.0,9.0,92,0.00,,,0.22,VWS V14.01,2013-02-20 02:36:00,
2013-02-19 21:37:00,35.6,33.5,29.72,WSW,237,2.0,9.0,92,0.00,,,0.22,VWS V14.01,2013-02-20 02:37:00,
2013-02-19 21:38:00,35.6,33.5,29.72,WSW,237,2.0,9.0,92,0.00,,,0.22,VWS V14.01,2013-02-20 02:38:00,
2013-02-19 21:39:00,35.6,33.5,29.72,WSW,237,2.0,9.0,92,0.00,,,0.22,VWS V14.01,2013-02-20 02:39:00,
2013-02-19 21:40:00,35.6,33.5,29.72,WSW,237,2.0,9.0,92,0.00,,,0.22,VWS V14.01,2013-02-20 02:40:00,
2013-02-19 21:41:00,35.5,33.4,29.72,WNW,286,2.0,4.0,92,0.00,,,0.22,VWS V14.01,2013-02-20 02:41:00,
2013-02-19 21:42:00,35.5,33.4,29.72,WNW,286,2.0,4.0,92,0.00,,,0.22,VWS V14.01,2013-02-20 02:42:00,
2013-02-19 21:43:00,35.5,33.4,29.72,WNW,286,2.0,4.0,92,0.00,,,0.22,VWS V14.01,2013-02-20 02:43:00,
2013-02-19 21:44:00,35.5,33.4,29.72,WNW,286,2.0,4.0,92,0.00,,,0.22,VWS V14.01,2013-02-20 02:44:00,
2013-02-19 21:45:00,35.5,33.4,29.72,WNW,286,2.0,4.0,92,0.00,,,0.22,VWS V14.01,2013-02-20 02:45:00,
2013-02-19 21:46:00,35.5,33.4,29.72,WNW,286,2.0,4.0,92,0.00,,,0.22,VWS V14.01,2013-02-20 02:46:00,
2013-02-19 21:50:00,35.2,32.6,29.72,SW,225,3.0,16.0,90,0.00,,,0.22,VWS V14.01,2013-02-20 02:50:00,
2013-02-19 22:00:00,34.8,31.6,29.72,West,270,3.0,13.0,88,0.00,,,0.22,VWS V14.01,2013-02-20 03:00:00,
2013-02-19 22:10:00,34.6,31.1,29.72,West,270,3.0,12.0,87,0.00,,,0.22,VWS V14.01,2013-02-20 03:10:00,
2013-02-19 22:20:00,34.4,30.4,29.72,West,270,4.0,15.0,85,0.00,,,0.22,VWS V14.01,2013-02-20 03:20:00,
2013-02-19 22:30:00,34.1,29.2,29.72,NNW,338,3.0,10.0,82,0.00,,,0.22,VWS V14.01,2013-02-20 03:30:00,
2013-02-19 22:40:00,34.0,28.8,29.72,West,270,3.0,11.0,81,0.00,,,0.22,VWS V14.01,2013-02-20 03:40:00,
2013-02-19 22:50:00,33.8,28.6,29.73,WSW,248,4.0,13.0,81,0.00,,,0.22,VWS V14.01,2013-02-20 03:50:00,
2013-02-19 23:00:00,33.8,28.6,29.74,WNW,292,4.0,16.0,81,0.00,,,0.22,VWS V14.01,2013-02-20 04:00:00,
2013-02-19 23:10:00,33.8,27.7,29.74,WSW,248,7.0,19.0,78,0.00,,,0.22,VWS V14.01,2013-02-20 04:10:00,
2013-02-19 23:20:00,33.6,26.9,29.72,NW,315,5.0,15.0,76,0.00,,,0.22,VWS V14.01,2013-02-20 04:20:00,
2013-02-19 23:30:00,33.4,26.3,29.72,WNW,292,5.0,15.0,75,0.00,,,0.22,VWS V14.01,2013-02-20 04:30:00,
2013-02-19 23:40:00,33.2,25.8,29.72,WSW,248,5.0,14.0,74,0.00,,,0.22,VWS V14.01,2013-02-20 04:40:00,
2013-02-19 23:50:00,33.0,25.3,29.72,West,270,5.0,18.0,73,0.00,,,0.22,VWS V14.01,2013-02-20 04:50:00,